[[{"header":{"parameterUnit":"m.s-1","parameterCategory":1,"la1":31.0,"la2":29.5877,"lo1":-88.7671,"lo2":-86.6584,"dy":0.0162,"dx":0.0185,"nx":115,"ny":88,"refTime":"2024-07-27T12:00:00:Z","depth":0,"parameterNumber":2,"parameterNumberName":"U-component_of_WINDS"},"data":[0.0,0.0,0.0,0.0,0.0,0.0,0.0,0.0,0.0,0.0,0.0,0.0,0.0,0.0,0.0,0.0,0.0,0.0,0.0,0.0,0.0,0.0,0.0,0.0,0.0,0.0,0.0,0.0,0.0,0.0,0.0,0.0,0.0,0.0,0.0,0.0,0.0,0.0,0.0,0.0,0.0,0.0,0.0,0.0,0.0,0.0,0.0,0.0,0.0,0.0,0.0,0.0,0.0,0.0,0.0,0.0,0.0,0.0,0.0,0.0,0.0,0.0,0.0,0.0,0.0,0.0,0.0,0.0,0.0,0.0,0.0,0.0,0.0,0.0,0.0,0.0,0.0,0.0,0.0,0.0,0.0,0.0,0.0,0.0,0.0,0.0,0.0,0.0,0.0,0.0,0.0,0.0,0.0,0.0,0.0,0.0,0.0,0.0,0.0,0.0,0.0,0.0,0.0,0.0,0.0,0.0,0.0,0.0,0.0,0.0,0.0,0.0,0.0,0.0,0.0,0.0,0.0,0.0,0.0,0.0,0.0,0.0,0.0,0.0,0.0,0.0,0.0,0.0,0.0,0.0,0.0,0.0,0.0,0.0,0.0,0.0,0.0,0.0,0.0,0.0,0.0,0.0,0.0,0.0,0.0,0.0,0.0,0.0,0.0,0.0,0.0,0.0,0.0,0.0,0.0,0.0,0.0,0.0,0.0,0.0,0.0,0.0,0.0,0.0,0.0,0.0,0.0,0.0,0.0,0.0,0.0,0.0,0.0,0.0,0.0,0.0,0.0,0.0,0.0,0.0,0.0,0.0,0.0,0.0,0.0,0.0,0.0,0.0,0.0,0.0,0.0,0.0,0.0,0.0,0.0,0.0,0.0,0.0,0.0,0.0,0.0,0.0,0.0,0.0,0.0,0.0,0.0,0.0,0.0,0.0,0.0,0.0,0.0,0.0,0.0,0.0,0.0,0.0,0.0,0.0,0.0,0.0,0.0,0.0,0.0,0.0,0.0,0.0,0.0,0.0,0.0,0.0,0.0,0.0,0.0,0.0,0.0,0.0,0.0,0.0,0.0,0.0,0.0,0.0,0.0,0.0,0.0,0.0,0.0,0.0,0.0,0.0,0.0,0.0,0.0,0.0,0.0,0.0,0.0,0.0,0.0,0.0,0.0,0.0,0.0,0.0,0.0,0.0,0.0,0.0,0.0,0.0,0.0,0.0,0.0,0.0,0.0,0.0,0.0,0.0,0.0,0.0,0.0,0.0,0.0,0.0,0.0,0.0,0.0,0.0,0.0,0.0,0.0,0.0,0.0,0.0,0.0,0.0,0.0,0.0,0.0,0.0,0.0,0.0,0.0,0.0,0.0,0.0,0.0,0.0,0.0,0.0,0.0,0.0,0.0,0.0,0.0,0.0,0.0,0.0,0.0,0.0,0.0,0.0,0.0,0.0,0.0,0.0,0.0,0.0,0.0,0.0,0.0,0.0,0.0,0.0,0.0,0.0,0.0,0.0,0.0,0.0,0.0,0.0,0.0,0.0,0.0,0.0,0.0,0.0,0.0,0.0,0.0,0.0,0.0,0.0,0.0,0.0,0.0,0.0,0.0,0.0,0.0,0.0,0.0,0.0,0.0,0.0,0.0,0.0,0.0,0.0,0.0,0.0,0.0,0.0,0.0,0.0,0.0,0.0,0.0,0.0,0.0,0.0,0.0,0.0,0.0,0.0,0.0,0.0,0.0,0.0,0.0,0.0,0.0,0.0,0.0,0.0,0.0,0.0,0.0,0.0,0.0,0.0,0.0,0.0,0.0,0.0,0.0,0.0,0.0,0.0,0.0,0.0,0.0,0.0,0.0,0.0,0.0,0.0,0.0,0.0,0.0,0.0,0.0,0.0,0.0,0.0,0.0,0.0,0.0,0.0,0.0,0.0,0.0,0.0,0.0,0.0,0.0,0.0,0.0,0.0,0.0,0.0,0.0,0.0,0.0,0.0,0.0,0.0,0.0,0.0,0.0,0.0,0.0,0.0,0.0,0.0,0.0,0.0,0.0,0.0,0.0,0.0,0.0,0.0,0.0,0.0,0.0,0.0,0.0,0.0,0.0,0.0,0.0,0.0,0.0,0.0,0.0,0.0,0.0,0.0,0.0,0.0,0.0,0.0,0.0,0.0,0.0,0.0,0.0,0.0,0.0,0.0,0.0,0.0,0.0,0.0,0.0,0.0,0.0,0.0,0.0,0.0,0.0,0.0,0.0,0.0,0.0,0.0,0.0,0.0,0.0,0.0,0.0,0.0,0.0,0.0,0.0,0.0,0.0,0.0,0.0,0.0,0.0,0.0,0.0,0.0,0.0,0.0,0.0,0.0,0.0,0.0,0.0,0.0,0.0,0.0,0.0,0.0,0.0,0.0,0.0,0.0,0.0,0.0,0.0,0.0,0.0,0.0,0.0,0.0,0.0,0.0,0.0,0.0,0.0,0.0,0.0,0.0,0.0,0.0,0.0,0.0,0.0,0.0,0.0,0.0,0.0,0.0,0.0,0.0,0.0,0.0,0.0,0.0,0.0,0.0,0.0,0.0,0.0,0.0,0.0,0.0,0.0,0.0,0.0,0.0,0.0,0.0,0.0,0.0,0.0,0.0,0.0,0.0,0.0,0.0,0.0,0.0,0.0,0.0,0.0,0.0,0.0,0.0,0.0,0.0,0.0,0.0,0.0,0.0,0.0,0.0,0.0,0.0,0.0,0.0,0.0,0.0,0.0,0.0,0.0,0.0,0.0,0.0,0.0,0.0,0.0,0.0,0.0,0.0,0.0,0.0,0.0,0.0,0.0,0.0,0.0,0.0,0.0,0.0,0.0,0.0,0.0,0.0,0.0,0.0,0.0,0.0,0.0,0.0,0.0,0.0,0.0,0.0,0.0,0.0,0.0,0.0,0.0,0.0,0.0,0.0,0.0,0.0,0.0,0.0,0.0,0.0,0.0,0.0,0.0,0.0,0.0,0.0,0.0,0.0,0.0,0.0,0.0,0.0,0.0,0.0,0.0,0.0,0.0,0.0,0.0,0.0,0.0,0.0,0.0,0.0,0.0,0.0,0.0,0.0,0.0,0.0,0.0,0.0,0.0,0.0,0.0,0.0,0.0,0.0,0.0,0.0,0.0,0.0,0.0,0.0,0.0,0.0,0.0,0.0,0.0,0.0,0.0,0.0,0.0,0.0,0.0,0.0,0.0,0.0,0.0,0.0,0.0,0.0,0.0,0.0,0.0,0.0,0.0,0.0,0.0,0.0,0.0,0.0,0.0,0.0,0.0,0.0,0.0,0.0,0.0,0.0,0.0,0.0,0.0,0.0,0.0,0.0,0.0,0.0,0.0,0.0,0.0,0.0,0.0,0.0,0.0,0.0,0.0,0.0,0.0,0.0,0.0,0.0,0.0,0.0,0.0,0.0,0.0,0.0,0.0,0.0,0.0,0.0,0.0,0.0,0.0,0.0,0.0,0.0,0.0,0.0,0.0,0.0,0.0,0.0,0.0,0.0,0.0,0.0,0.0,0.0,0.0,0.0,0.0,0.0,0.0,0.0,0.0,0.0,0.0,0.0,0.0,0.0,0.0,0.0,0.0,0.0,0.0,0.0,0.0,0.0,0.0,0.0,0.0,0.0,0.0,0.0,0.0,0.0,0.0,0.0,0.0,0.0,0.0,0.0,0.0,0.0,0.0,0.0,0.0,0.0,0.0,0.0,0.0,0.0,0.0,0.0,0.0,0.0,0.0,0.0,0.0,0.0,0.0,0.0,0.0,0.0,0.0,0.0,0.0,0.0,0.0,0.0,0.0,0.0,0.0,0.0,0.0,0.0,0.0,0.0,0.0,0.0,0.0,0.0,0.0,0.0,0.0,0.0,0.0,0.0,0.0,0.0,0.0,0.0,0.0,0.0,0.0,0.0,0.0,0.0,0.0,0.0,0.0,0.0,0.0,0.0,0.0,0.0,0.0,0.0,0.0,0.0,0.0,0.0,0.0,0.0,0.0,0.0,0.0,0.0,0.0,0.0,0.0,0.0,0.0,0.0,0.0,0.0,0.0,0.0,0.0,0.0,0.0,0.0,0.0,0.0,0.0,0.0,0.0,0.0,0.0,0.0,0.0,0.0,0.0,0.0,0.0,0.0,0.0,0.0,0.0,0.0,0.0,0.0,0.0,0.0,0.0,0.0,0.0,0.0,0.0,0.0,0.0,0.0,0.0,0.0,0.0,0.0,0.0,0.0,0.0,0.0,0.0,0.0,0.0,0.0,-1.2042,0.0,0.0,0.0,0.0,0.0,0.0,0.0,0.0,0.0,0.0,0.0,0.0,0.0,0.0,0.0,0.0,0.0,0.0,0.0,0.0,0.0,0.0,0.0,0.0,0.0,0.0,0.0,0.0,0.0,0.0,0.0,0.0,0.0,0.0,0.0,0.0,0.0,0.0,0.0,0.0,0.0,0.0,0.0,0.0,0.0,0.0,0.0,0.0,0.0,0.0,0.0,0.0,0.0,0.0,0.0,0.0,0.0,0.0,0.0,0.0,0.0,0.0,0.0,0.0,0.0,0.0,0.0,0.0,0.0,0.0,0.0,0.0,0.0,0.0,0.0,0.0,0.0,0.0,0.0,0.0,0.0,0.0,0.0,0.0,0.0,0.0,0.0,0.0,0.0,0.0,0.0,0.0,0.0,0.0,0.0,0.0,0.0,0.0,0.0,0.0,0.0,0.0,0.0,0.0,0.0,0.0,0.0,0.0,0.0,0.0,-1.2673,-1.3217,-1.3605,-1.3354,-1.2363,0.0,0.0,0.0,0.0,0.0,0.0,0.0,0.0,0.0,0.0,0.0,0.0,0.0,0.0,0.0,0.0,0.0,0.0,0.0,0.0,0.0,0.0,0.0,0.0,0.0,0.0,0.0,0.0,0.0,0.0,0.0,0.0,0.0,0.0,0.0,0.0,0.0,0.0,0.0,0.0,0.0,0.0,0.0,0.0,0.0,0.0,0.0,0.0,0.0,0.0,0.0,0.0,0.0,0.0,0.0,0.0,0.0,0.0,0.0,0.0,0.0,0.0,0.0,0.0,0.0,0.0,0.0,0.0,0.0,0.0,0.0,0.0,0.0,0.0,0.0,0.0,0.0,0.0,0.0,0.0,0.0,0.0,0.0,0.0,0.0,0.0,0.0,0.0,0.0,0.0,0.0,0.0,0.0,0.0,0.0,0.0,0.0,0.0,0.0,0.0,0.0,0.0,0.0,0.0,0.0,0.0,0.0,0.0,0.0,0.0,0.0,0.0,-1.454,-1.3935,-1.2393,0.0,0.0,0.0,0.0,0.0,0.0,0.0,0.0,0.0,0.0,0.0,0.0,0.0,0.0,0.0,0.0,0.0,0.0,0.0,0.0,0.0,0.0,0.0,0.0,0.0,0.0,0.0,0.0,0.0,0.0,0.0,0.0,0.0,0.0,0.0,0.0,0.0,0.0,0.0,0.0,0.0,0.0,0.0,0.0,0.0,0.0,0.0,0.0,0.0,0.0,0.0,0.0,0.0,0.0,0.0,0.0,0.0,0.0,0.0,0.0,0.0,0.0,0.0,0.0,0.0,0.0,0.0,0.0,0.0,0.0,0.0,0.0,0.0,0.0,0.0,0.0,0.0,0.0,0.0,0.0,0.0,0.0,0.0,0.0,0.0,0.0,0.0,0.0,0.0,0.0,0.0,0.0,0.0,0.0,0.0,0.0,0.0,0.0,0.0,0.0,0.0,0.0,0.0,0.0,0.0,0.0,0.0,0.0,0.0,0.0,-1.493,-1.4993,-1.5091,0.0,-1.2831,0.0,0.0,0.0,0.0,0.0,0.0,0.0,0.0,0.0,0.0,0.0,0.0,0.0,0.0,0.0,0.0,0.0,0.0,0.0,0.0,0.0,0.0,0.0,0.0,0.0,0.0,0.0,0.0,0.0,0.0,0.0,0.0,0.0,0.0,0.0,0.0,0.0,0.0,0.0,0.0,0.0,0.0,0.0,0.0,0.0,0.0,0.0,0.0,0.0,0.0,0.0,0.0,0.0,0.0,0.0,0.0,0.0,0.0,0.0,0.0,0.0,0.0,0.0,0.0,0.0,0.0,0.0,0.0,0.0,0.0,0.0,0.0,0.0,0.0,0.0,0.0,0.0,0.0,0.0,0.0,0.0,0.0,0.0,0.0,0.0,0.0,0.0,0.0,0.0,0.0,0.0,0.0,0.0,0.0,0.0,0.0,0.0,0.0,0.0,0.0,0.0,0.0,0.0,0.0,0.0,0.0,0.0,0.0,0.0,0.0,-1.5728,-1.5299,-1.481,-1.4003,0.0,0.0,0.0,0.0,0.0,0.0,0.0,0.0,0.0,0.0,0.0,0.0,0.0,0.0,0.0,0.0,0.0,0.0,0.0,0.0,0.0,0.0,0.0,0.0,0.0,0.0,0.0,0.0,0.0,0.0,0.0,0.0,0.0,0.0,0.0,0.0,0.0,0.0,0.0,0.0,0.0,0.0,0.0,0.0,0.0,0.0,0.0,0.0,0.0,0.0,0.0,0.0,0.0,0.0,0.0,0.0,0.0,0.0,0.0,0.0,0.0,0.0,0.0,0.0,0.0,0.0,0.0,0.0,0.0,0.0,0.0,0.0,0.0,0.0,0.0,0.0,0.0,0.0,0.0,0.0,0.0,0.0,0.0,0.0,0.0,0.0,0.0,0.0,0.0,0.0,0.0,0.0,0.0,0.0,0.0,0.0,0.0,0.0,0.0,0.0,0.0,0.0,0.0,0.0,0.0,0.0,0.0,0.0,0.0,0.0,-1.6268,-1.6317,-1.5762,-1.5156,-1.4292,-1.3181,0.0,0.0,0.0,0.0,0.0,0.0,0.0,0.0,0.0,0.0,0.0,0.0,0.0,0.0,0.0,0.0,0.0,0.0,0.0,0.0,0.0,0.0,0.0,0.0,0.0,0.0,0.0,0.0,0.0,0.0,0.0,0.0,0.0,0.0,0.0,0.0,0.0,0.0,0.0,0.0,0.0,0.0,0.0,0.0,0.0,0.0,0.0,0.0,0.0,0.0,0.0,0.0,0.0,0.0,0.0,0.0,0.0,0.0,0.0,0.0,0.0,0.0,0.0,0.0,0.0,0.0,0.0,0.0,0.0,0.0,0.0,0.0,0.0,0.0,0.0,0.0,0.0,0.0,0.0,0.0,0.0,0.0,0.0,0.0,0.0,0.0,0.0,0.0,0.0,0.0,0.0,0.0,0.0,0.0,0.0,0.0,0.0,0.0,0.0,0.0,0.0,0.0,0.0,0.0,0.0,0.0,0.0,0.0,0.0,-1.6586,-1.6627,-1.6668,-1.6617,-1.5782,0.0,0.0,0.0,0.0,0.0,0.0,0.0,0.0,0.0,0.0,0.0,0.0,0.0,0.0,0.0,0.0,0.0,0.0,0.0,0.0,0.0,0.0,0.0,0.0,0.0,0.0,0.0,0.0,0.0,0.0,0.0,0.0,0.0,0.0,0.0,0.0,0.0,0.0,0.0,0.0,0.0,0.0,0.0,0.0,0.0,0.0,0.0,0.0,0.0,0.0,0.0,0.0,0.0,0.0,0.0,0.0,0.0,0.0,0.0,0.0,0.0,0.0,0.0,0.0,0.0,0.0,0.0,0.0,0.0,0.0,0.0,0.0,0.0,0.0,0.0,0.0,0.0,0.0,0.0,0.0,0.0,0.0,0.0,0.0,0.0,0.0,0.0,0.0,0.0,0.0,0.0,0.0,0.0,0.0,0.0,0.0,0.0,0.0,0.0,0.0,0.0,0.0,0.0,0.0,0.0,0.0,0.0,0.0,0.0,-1.6588,-1.7157,-1.7709,-1.8244,-1.7226,-1.6088,0.0,0.0,0.0,0.0,0.0,0.0,0.0,0.0,0.0,0.0,0.0,0.0,0.0,0.0,0.0,0.0,0.0,0.0,0.0,0.0,0.0,0.0,0.0,0.0,0.0,0.0,0.0,0.0,0.0,0.0,0.0,0.0,0.0,0.0,0.0,0.0,0.0,0.0,0.0,0.0,0.0,0.0,0.0,0.0,0.0,0.0,0.0,0.0,0.0,0.0,0.0,0.0,0.0,0.0,0.0,0.0,0.0,0.0,0.0,0.0,0.0,0.0,0.0,0.0,0.0,0.0,0.0,0.0,0.0,0.0,0.0,0.0,0.0,0.0,0.0,0.0,0.0,0.0,0.0,0.0,0.0,0.0,0.0,0.0,0.0,0.0,0.0,0.0,0.0,0.0,0.0,0.0,0.0,0.0,0.0,0.0,0.0,0.0,0.0,0.0,0.0,0.0,0.0,0.0,0.0,0.0,0.0,0.0,0.0,-1.7408,0.0,-1.8871,0.0,-1.8038,-1.688,0.0,0.0,0.0,0.0,0.0,0.0,0.0,0.0,0.0,0.0,0.0,0.0,0.0,0.0,0.0,0.0,0.0,0.0,0.0,0.0,0.0,0.0,0.0,0.0,0.0,0.0,0.0,0.0,0.0,0.0,0.0,0.0,0.0,0.0,0.0,0.0,0.0,0.0,0.0,0.0,0.0,0.0,0.0,0.0,0.0,0.0,0.0,0.0,0.0,0.0,0.0,0.0,0.0,0.0,0.0,0.0,0.0,0.0,0.0,0.0,0.0,0.0,0.0,0.0,0.0,0.0,0.0,0.0,0.0,0.0,0.0,0.0,0.0,0.0,0.0,0.0,0.0,0.0,0.0,0.0,0.0,0.0,0.0,0.0,0.0,0.0,0.0,0.0,0.0,0.0,0.0,0.0,0.0,0.0,0.0,0.0,0.0,0.0,0.0,0.0,0.0,0.0,0.0,0.0,0.0,0.0,0.0,0.0,-1.7429,-1.9056,-1.9977,-2.0053,-1.9198,-1.9125,-1.8276,0.0,0.0,0.0,0.0,0.0,0.0,0.0,0.0,0.0,0.0,0.0,0.0,0.0,0.0,0.0,0.0,0.0,0.0,0.0,0.0,0.0,0.0,0.0,0.0,0.0,0.0,0.0,0.0,0.0,0.0,0.0,0.0,0.0,0.0,0.0,0.0,0.0,0.0,0.0,0.0,0.0,0.0,0.0,0.0,0.0,0.0,0.0,0.0,0.0,0.0,0.0,0.0,0.0,0.0,0.0,0.0,0.0,0.0,0.0,0.0,0.0,0.0,0.0,0.0,0.0,0.0,0.0,0.0,0.0,0.0,0.0,0.0,0.0,0.0,0.0,0.0,0.0,0.0,0.0,0.0,0.0,0.0,0.0,0.0,0.0,0.0,0.0,0.0,0.0,0.0,0.0,0.0,0.0,0.0,0.0,0.0,0.0,0.0,0.0,0.0,0.0,0.0,0.0,0.0,0.0,0.0,0.0,0.0,0.0,-2.088,-2.1704,-2.1974,-2.164,-2.0535,-1.9379,0.0,0.0,0.0,0.0,0.0,0.0,0.0,0.0,0.0,0.0,0.0,0.0,0.0,0.0,0.0,0.0,0.0,0.0,0.0,0.0,0.0,0.0,0.0,0.0,0.0,0.0,0.0,0.0,0.0,0.0,0.0,0.0,0.0,0.0,0.0,0.0,0.0,0.0,0.0,0.0,0.0,0.0,0.0,0.0,0.0,0.0,0.0,0.0,0.0,0.0,0.0,0.0,0.0,0.0,0.0,0.0,0.0,0.0,0.0,0.0,0.0,0.0,0.0,0.0,0.0,0.0,0.0,0.0,0.0,0.0,0.0,0.0,0.0,0.0,0.0,0.0,0.0,0.0,0.0,0.0,0.0,0.0,0.0,0.0,0.0,0.0,0.0,0.0,0.0,0.0,0.0,0.0,0.0,0.0,0.0,0.0,0.0,0.0,0.0,0.0,0.0,0.0,0.0,0.0,0.0,0.0,0.0,0.0,0.0,-2.3118,-2.327,-2.3313,-2.3253,-2.2207,-2.0915,-1.9379,0.0,0.0,0.0,0.0,0.0,0.0,0.0,0.0,0.0,0.0,0.0,0.0,0.0,0.0,0.0,0.0,0.0,0.0,0.0,0.0,0.0,0.0,0.0,0.0,0.0,0.0,0.0,0.0,0.0,0.0,0.0,0.0,0.0,0.0,0.0,0.0,0.0,0.0,0.0,0.0,0.0,0.0,0.0,0.0,0.0,0.0,0.0,0.0,0.0,0.0,0.0,0.0,0.0,0.0,0.0,0.0,0.0,0.0,0.0,0.0,0.0,0.0,0.0,0.0,0.0,0.0,0.0,0.0,0.0,0.0,0.0,0.0,0.0,0.0,0.0,0.0,0.0,0.0,0.0,0.0,0.0,0.0,0.0,0.0,0.0,0.0,0.0,0.0,0.0,0.0,0.0,0.0,0.0,0.0,0.0,0.0,0.0,0.0,0.0,0.0,0.0,0.0,0.0,0.0,0.0,0.0,0.0,0.0,-2.5647,-2.4812,-2.436,-2.4235,-2.405,-2.2812,0.0,0.0,0.0,0.0,0.0,0.0,0.0,0.0,0.0,0.0,0.0,0.0,0.0,0.0,0.0,0.0,0.0,0.0,0.0,0.0,0.0,0.0,0.0,0.0,0.0,0.0,0.0,0.0,0.0,0.0,0.0,0.0,0.0,0.0,0.0,0.0,0.0,0.0,0.0,0.0,0.0,0.0,0.0,0.0,0.0,0.0,0.0,0.0,0.0,0.0,0.0,0.0,0.0,0.0,0.0,0.0,0.0,0.0,0.0,0.0,0.0,0.0,0.0,0.0,0.0,0.0,0.0,0.0,0.0,0.0,0.0,0.0,0.0,0.0,0.0,0.0,0.0,0.0,0.0,0.0,0.0,0.0,0.0,0.0,0.0,0.0,0.0,0.0,0.0,0.0,0.0,0.0,0.0,0.0,0.0,0.0,0.0,0.0,0.0,0.0,0.0,0.0,0.0,0.0,0.0,0.0,0.0,0.0,0.0,-2.7289,-2.7643,-2.7468,-2.6812,-2.5581,-2.3974,0.0,0.0,0.0,0.0,0.0,0.0,0.0,0.0,0.0,0.0,0.0,0.0,0.0,0.0,0.0,0.0,0.0,0.0,0.0,0.0,0.0,0.0,0.0,0.0,0.0,0.0,0.0,0.0,0.0,0.0,0.0,0.0,0.0,0.0,0.0,0.0,0.0,0.0,0.0,0.0,0.0,0.0,0.0,0.0,0.0,0.0,0.0,0.0,0.0,0.0,0.0,0.0,0.0,0.0,0.0,0.0,0.0,0.0,0.0,0.0,0.0,0.0,0.0,0.0,0.0,0.0,0.0,0.0,0.0,0.0,0.0,0.0,0.0,0.0,0.0,0.0,0.0,0.0,0.0,0.0,0.0,0.0,0.0,0.0,0.0,0.0,0.0,0.0,0.0,0.0,0.0,0.0,0.0,0.0,0.0,0.0,0.0,0.0,0.0,0.0,0.0,0.0,0.0,0.0,0.0,0.0,0.0,0.0,-2.7026,-2.7998,-2.8743,-2.9058,-2.8848,-2.7179,-2.5227,0.0,0.0,0.0,0.0,0.0,0.0,0.0,0.0,0.0,0.0,0.0,0.0,0.0,0.0,0.0,0.0,0.0,0.0,0.0,0.0,0.0,0.0,0.0,0.0,0.0,0.0,0.0,0.0,0.0,0.0,0.0,0.0,0.0,0.0,0.0,0.0,0.0,0.0,0.0,0.0,0.0,0.0,0.0,0.0,0.0,0.0,0.0,0.0,0.0,0.0,0.0,0.0,0.0,0.0,0.0,0.0,0.0,0.0,0.0,0.0,0.0,0.0,0.0,0.0,0.0,0.0,0.0,0.0,0.0,0.0,0.0,0.0,0.0,0.0,0.0,0.0,0.0,0.0,0.0,0.0,0.0,0.0,0.0,0.0,0.0,0.0,0.0,0.0,0.0,0.0,0.0,0.0,0.0,0.0,0.0,0.0,0.0,0.0,0.0,0.0,0.0,0.0,0.0,0.0,0.0,0.0,0.0,0.0,-2.7902,-2.8,-2.8685,-2.9357,-2.9968,-2.8383,-2.6373,0.0,0.0,0.0,0.0,0.0,0.0,0.0,0.0,0.0,0.0,0.0,0.0,0.0,0.0,0.0,0.0,0.0,0.0,0.0,0.0,0.0,0.0,0.0,0.0,0.0,0.0,0.0,0.0,0.0,0.0,0.0,0.0,0.0,0.0,0.0,0.0,0.0,0.0,0.0,0.0,0.0,0.0,0.0,0.0,0.0,0.0,0.0,0.0,0.0,0.0,0.0,0.0,0.0,0.0,0.0,0.0,0.0,0.0,0.0,0.0,0.0,0.0,0.0,0.0,0.0,0.0,0.0,0.0,0.0,0.0,0.0,0.0,0.0,0.0,0.0,0.0,0.0,0.0,0.0,0.0,0.0,0.0,0.0,0.0,0.0,0.0,0.0,0.0,0.0,0.0,0.0,0.0,0.0,0.0,0.0,0.0,0.0,0.0,0.0,0.0,0.0,0.0,0.0,0.0,0.0,0.0,0.0,0.0,-2.7277,-2.7904,-2.8046,-2.8177,-2.8318,-2.7235,-2.6336,0.0,0.0,0.0,0.0,0.0,0.0,0.0,0.0,0.0,0.0,0.0,0.0,0.0,0.0,0.0,0.0,0.0,0.0,0.0,0.0,0.0,0.0,0.0,0.0,0.0,0.0,0.0,0.0,0.0,0.0,0.0,0.0,0.0,0.0,0.0,0.0,0.0,0.0,0.0,0.0,0.0,0.0,0.0,0.0,0.0,0.0,0.0,0.0,-2.6551,0.0,0.0,0.0,0.0,0.0,0.0,0.0,0.0,0.0,0.0,0.0,0.0,0.0,0.0,0.0,0.0,0.0,0.0,0.0,0.0,0.0,0.0,0.0,0.0,0.0,0.0,0.0,0.0,0.0,0.0,0.0,0.0,0.0,0.0,0.0,0.0,0.0,0.0,0.0,0.0,0.0,0.0,0.0,0.0,0.0,0.0,0.0,0.0,0.0,0.0,0.0,0.0,0.0,0.0,0.0,0.0,0.0,0.0,0.0,-2.7004,-2.7771,-2.7361,-2.7285,-2.7549,-2.6704,-2.5968,0.0,0.0,0.0,0.0,0.0,0.0,0.0,0.0,0.0,0.0,0.0,0.0,0.0,0.0,0.0,0.0,0.0,0.0,0.0,0.0,0.0,0.0,0.0,0.0,0.0,0.0,0.0,0.0,0.0,0.0,0.0,0.0,0.0,0.0,0.0,0.0,0.0,0.0,0.0,0.0,0.0,0.0,0.0,0.0,0.0,0.0,0.0,0.0,0.0,0.0,0.0,0.0,0.0,0.0,0.0,0.0,0.0,0.0,0.0,0.0,0.0,0.0,0.0,0.0,0.0,0.0,0.0,0.0,0.0,0.0,0.0,0.0,0.0,0.0,0.0,0.0,0.0,0.0,0.0,0.0,0.0,0.0,0.0,0.0,0.0,0.0,0.0,0.0,0.0,0.0,0.0,0.0,0.0,0.0,0.0,0.0,0.0,0.0,0.0,0.0,0.0,0.0,0.0,0.0,0.0,0.0,0.0,-2.622,-2.6883,-2.7612,-2.6708,-2.6441,-2.6987,-2.6348,-2.5553,-2.4629,0.0,0.0,0.0,0.0,0.0,0.0,0.0,0.0,0.0,0.0,0.0,0.0,0.0,0.0,0.0,0.0,0.0,0.0,0.0,0.0,0.0,0.0,0.0,0.0,0.0,0.0,0.0,0.0,0.0,0.0,0.0,0.0,0.0,0.0,0.0,0.0,0.0,0.0,-2.0076,-2.2129,0.0,0.0,0.0,0.0,0.0,0.0,0.0,0.0,-3.0235,0.0,0.0,0.0,0.0,0.0,0.0,0.0,0.0,0.0,0.0,0.0,0.0,0.0,0.0,0.0,0.0,0.0,0.0,0.0,0.0,0.0,0.0,0.0,0.0,0.0,0.0,0.0,0.0,0.0,0.0,0.0,0.0,0.0,0.0,0.0,0.0,0.0,0.0,0.0,0.0,0.0,0.0,0.0,0.0,0.0,0.0,0.0,0.0,0.0,0.0,0.0,0.0,0.0,0.0,0.0,0.0,-2.7356,-2.6811,-2.6888,-2.7644,-2.6034,-2.5194,-2.5319,-2.5649,-2.5327,-2.4248,0.0,0.0,0.0,0.0,0.0,0.0,0.0,0.0,0.0,0.0,0.0,0.0,0.0,0.0,0.0,0.0,0.0,0.0,0.0,0.0,0.0,0.0,0.0,0.0,0.0,0.0,0.0,0.0,0.0,0.0,0.0,0.0,0.0,0.0,0.0,0.0,0.0,0.0,0.0,-2.3902,-2.5669,0.0,0.0,0.0,0.0,0.0,0.0,0.0,0.0,-3.108,0.0,0.0,0.0,0.0,0.0,0.0,0.0,0.0,0.0,0.0,0.0,0.0,0.0,0.0,0.0,0.0,0.0,0.0,0.0,0.0,0.0,0.0,0.0,0.0,0.0,0.0,0.0,0.0,0.0,0.0,0.0,0.0,0.0,0.0,0.0,0.0,0.0,0.0,0.0,0.0,0.0,0.0,0.0,0.0,0.0,0.0,0.0,0.0,0.0,0.0,0.0,0.0,0.0,0.0,0.0,-2.7568,-2.69,-2.6801,-2.7465,-2.5805,-2.479,-2.462,-2.5265,-2.4875,0.0,0.0,0.0,0.0,0.0,0.0,0.0,0.0,0.0,0.0,0.0,0.0,0.0,0.0,0.0,0.0,0.0,0.0,0.0,0.0,0.0,0.0,0.0,0.0,0.0,0.0,0.0,0.0,0.0,0.0,0.0,0.0,0.0,0.0,0.0,0.0,0.0,0.0,0.0,0.0,-2.5876,-2.7475,-2.8645,0.0,0.0,0.0,0.0,0.0,0.0,-3.2923,-3.2567,0.0,0.0,0.0,0.0,0.0,0.0,0.0,0.0,0.0,0.0,0.0,0.0,0.0,0.0,0.0,0.0,0.0,0.0,0.0,0.0,0.0,0.0,0.0,0.0,0.0,0.0,0.0,0.0,0.0,0.0,0.0,0.0,0.0,0.0,0.0,0.0,0.0,0.0,0.0,0.0,0.0,0.0,0.0,0.0,0.0,0.0,0.0,0.0,0.0,0.0,0.0,0.0,0.0,0.0,0.0,-2.752,-2.7122,-2.7004,-2.7275,-2.5825,-2.4801,-2.4337,-2.4856,-2.4302,0.0,0.0,0.0,0.0,0.0,0.0,0.0,0.0,0.0,0.0,0.0,0.0,0.0,0.0,0.0,0.0,0.0,0.0,0.0,0.0,0.0,0.0,0.0,0.0,0.0,0.0,0.0,0.0,0.0,0.0,0.0,0.0,0.0,0.0,0.0,0.0,0.0,0.0,0.0,0.0,0.0,-2.9053,-3.0446,-3.1271,0.0,0.0,0.0,0.0,-3.2928,-3.3514,0.0,0.0,0.0,0.0,0.0,0.0,0.0,0.0,0.0,0.0,0.0,0.0,0.0,0.0,0.0,0.0,0.0,0.0,0.0,0.0,0.0,0.0,0.0,0.0,0.0,0.0,0.0,0.0,0.0,0.0,0.0,0.0,0.0,0.0,0.0,0.0,0.0,0.0,0.0,0.0,0.0,0.0,0.0,0.0,0.0,0.0,0.0,0.0,0.0,0.0,0.0,0.0,0.0,0.0,0.0,0.0,-2.7376,-2.803,-2.7948,-2.7125,-2.6065,-2.5114,-2.4319,-2.4054,-2.3401,0.0,0.0,0.0,0.0,0.0,0.0,0.0,0.0,0.0,0.0,0.0,0.0,0.0,0.0,0.0,0.0,0.0,0.0,0.0,0.0,0.0,0.0,0.0,0.0,0.0,0.0,0.0,0.0,0.0,0.0,0.0,0.0,0.0,0.0,0.0,0.0,0.0,0.0,0.0,0.0,0.0,-2.986,-3.0956,-3.1499,-3.211,0.0,0.0,-3.291,-3.2895,-3.2881,0.0,0.0,0.0,0.0,0.0,0.0,0.0,0.0,0.0,0.0,0.0,0.0,0.0,0.0,0.0,0.0,0.0,0.0,0.0,0.0,0.0,0.0,0.0,0.0,0.0,0.0,0.0,0.0,0.0,0.0,0.0,0.0,0.0,0.0,0.0,0.0,0.0,0.0,0.0,0.0,0.0,0.0,0.0,0.0,0.0,0.0,0.0,0.0,0.0,0.0,0.0,0.0,0.0,0.0,0.0,-2.6237,-2.7307,-2.806,-2.7945,-2.6944,-2.6024,-2.5004,-2.3874,-2.3635,-2.2807,0.0,0.0,0.0,0.0,0.0,0.0,0.0,0.0,0.0,0.0,0.0,0.0,0.0,0.0,0.0,0.0,0.0,0.0,0.0,0.0,0.0,0.0,0.0,0.0,0.0,0.0,0.0,0.0,0.0,0.0,0.0,0.0,0.0,0.0,0.0,0.0,0.0,0.0,0.0,0.0,0.0,0.0,-3.1655,-3.2698,0.0,0.0,0.0,-3.3777,-3.3101,0.0,0.0,0.0,0.0,0.0,0.0,0.0,0.0,0.0,0.0,0.0,0.0,0.0,0.0,0.0,0.0,0.0,0.0,0.0,0.0,0.0,0.0,0.0,0.0,0.0,0.0,0.0,0.0,0.0,0.0,0.0,0.0,0.0,0.0,0.0,0.0,0.0,0.0,0.0,0.0,0.0,0.0,0.0,0.0,0.0,0.0,0.0,0.0,0.0,0.0,0.0,0.0,0.0,0.0,0.0,0.0,0.0,-2.7194,-2.8107,-2.7988,-2.6722,-2.6056,-2.5027,-2.3558,-2.341,0.0,0.0,0.0,0.0,0.0,0.0,0.0,0.0,0.0,0.0,0.0,0.0,0.0,0.0,0.0,0.0,0.0,0.0,0.0,0.0,0.0,0.0,0.0,0.0,0.0,0.0,0.0,-1.6053,0.0,0.0,0.0,0.0,0.0,0.0,0.0,0.0,0.0,0.0,0.0,0.0,0.0,0.0,-3.1727,-3.2514,-3.3767,-3.4635,0.0,0.0,-3.4202,-3.3319,-3.3458,-3.3273,0.0,0.0,0.0,0.0,0.0,0.0,0.0,0.0,0.0,0.0,0.0,0.0,0.0,0.0,0.0,0.0,0.0,0.0,0.0,0.0,0.0,0.0,0.0,0.0,0.0,0.0,0.0,0.0,0.0,0.0,0.0,0.0,0.0,0.0,0.0,0.0,0.0,0.0,0.0,0.0,0.0,0.0,0.0,0.0,0.0,0.0,0.0,0.0,0.0,0.0,0.0,0.0,0.0,0.0,0.0,-2.6972,-2.85,-2.8357,-2.6514,-2.6374,-2.5437,-2.3585,-2.3376,-2.2356,0.0,0.0,0.0,0.0,0.0,0.0,0.0,0.0,0.0,0.0,0.0,0.0,0.0,0.0,0.0,0.0,0.0,0.0,0.0,0.0,0.0,0.0,0.0,0.0,0.0,0.0,0.0,0.0,0.0,0.0,0.0,0.0,0.0,0.0,0.0,0.0,0.0,0.0,0.0,0.0,0.0,-3.2661,-3.3661,-3.4283,-3.476,0.0,0.0,-3.3405,-3.3391,-3.2427,-3.1927,-3.2613,0.0,0.0,0.0,0.0,0.0,0.0,0.0,0.0,0.0,0.0,0.0,0.0,0.0,0.0,0.0,0.0,0.0,0.0,0.0,0.0,0.0,0.0,0.0,0.0,0.0,0.0,0.0,0.0,0.0,0.0,0.0,0.0,0.0,0.0,0.0,0.0,0.0,0.0,0.0,0.0,0.0,0.0,0.0,0.0,0.0,0.0,0.0,0.0,0.0,0.0,0.0,0.0,0.0,-2.6646,-2.6791,-2.7757,-2.7588,-2.6143,-2.5605,-2.4605,-2.3052,-2.2773,-2.196,0.0,0.0,0.0,0.0,0.0,0.0,0.0,0.0,0.0,0.0,0.0,0.0,0.0,0.0,0.0,0.0,0.0,0.0,0.0,0.0,0.0,0.0,0.0,0.0,0.0,0.0,0.0,0.0,-2.2697,-2.3253,-2.3231,0.0,0.0,0.0,0.0,0.0,0.0,0.0,0.0,0.0,0.0,-3.2727,-3.3115,-3.377,0.0,0.0,-3.3828,-3.3307,-3.2645,-3.2924,-3.2765,-3.1409,-3.0986,0.0,0.0,0.0,0.0,0.0,0.0,0.0,0.0,0.0,0.0,0.0,0.0,0.0,0.0,0.0,0.0,0.0,0.0,0.0,0.0,0.0,0.0,0.0,0.0,0.0,0.0,0.0,0.0,0.0,0.0,0.0,0.0,0.0,0.0,0.0,0.0,0.0,0.0,0.0,0.0,0.0,0.0,0.0,0.0,0.0,0.0,0.0,0.0,0.0,0.0,0.0,0.0,-2.6772,-2.6641,-2.7223,-2.6982,-2.5882,-2.5031,-2.3931,-2.2623,-2.232,-2.163,0.0,0.0,0.0,0.0,0.0,0.0,0.0,0.0,0.0,0.0,0.0,0.0,0.0,0.0,0.0,0.0,0.0,0.0,0.0,0.0,0.0,0.0,0.0,0.0,0.0,0.0,0.0,0.0,-2.4092,-2.4524,-2.4132,0.0,0.0,0.0,0.0,0.0,0.0,0.0,0.0,0.0,0.0,-3.3169,-3.3401,-3.3913,-3.4189,-3.4072,-3.3809,-3.3337,-3.2501,-3.2998,-3.2886,-3.1228,0.0,0.0,0.0,0.0,0.0,0.0,0.0,0.0,0.0,0.0,0.0,0.0,0.0,0.0,0.0,0.0,0.0,0.0,0.0,0.0,0.0,0.0,0.0,0.0,0.0,0.0,0.0,0.0,0.0,0.0,-2.2402,0.0,0.0,0.0,0.0,0.0,0.0,0.0,0.0,0.0,0.0,0.0,0.0,0.0,0.0,0.0,0.0,0.0,0.0,0.0,0.0,0.0,0.0,-2.676,-2.6524,-2.7013,-2.6783,-2.5808,-2.4826,-2.3615,-2.229,-2.2192,-2.1499,-2.0037,0.0,0.0,0.0,0.0,0.0,0.0,0.0,0.0,0.0,0.0,0.0,0.0,0.0,0.0,0.0,0.0,0.0,0.0,0.0,0.0,0.0,0.0,0.0,0.0,0.0,0.0,-2.3399,-2.4198,-2.4869,0.0,0.0,0.0,0.0,0.0,0.0,0.0,0.0,0.0,0.0,-3.3423,-3.4248,-3.4981,-3.5008,-3.4869,-3.4832,-3.4014,-3.336,-3.3234,-3.2317,-3.1805,0.0,0.0,0.0,0.0,0.0,0.0,0.0,0.0,0.0,0.0,0.0,0.0,0.0,0.0,0.0,0.0,0.0,0.0,0.0,0.0,0.0,0.0,0.0,0.0,0.0,0.0,0.0,-2.3007,-2.3011,0.0,0.0,0.0,0.0,0.0,0.0,0.0,0.0,0.0,0.0,0.0,-2.7335,-2.7611,0.0,0.0,0.0,0.0,0.0,0.0,0.0,0.0,0.0,0.0,0.0,0.0,-2.6444,-2.6135,-2.6228,-2.5982,-2.5276,-2.3937,-2.282,-2.1957,-2.171,-2.0772,-1.9058,0.0,0.0,0.0,0.0,0.0,0.0,0.0,0.0,0.0,0.0,0.0,0.0,0.0,0.0,0.0,0.0,0.0,0.0,0.0,0.0,0.0,0.0,0.0,0.0,0.0,-2.5476,0.0,0.0,0.0,0.0,0.0,0.0,0.0,0.0,0.0,0.0,0.0,-3.1926,-3.3199,-3.3627,-3.3913,-3.4171,-3.4093,-3.395,0.0,0.0,0.0,0.0,0.0,0.0,0.0,0.0,0.0,0.0,0.0,0.0,0.0,0.0,-2.9232,-2.9393,-2.9815,-3.0134,-3.0094,0.0,0.0,0.0,0.0,0.0,0.0,0.0,0.0,0.0,0.0,0.0,0.0,0.0,0.0,-2.4534,0.0,-2.456,0.0,0.0,0.0,0.0,0.0,0.0,0.0,0.0,-2.8281,-2.8296,-2.8331,-2.8354,-2.8212,0.0,-2.7833,-2.645,0.0,0.0,0.0,0.0,0.0,0.0,0.0,0.0,-2.5872,-2.5491,-2.533,-2.5077,-2.459,-2.3268,-2.226,-2.1661,-2.119,-2.0237,-1.8757,-1.8571,-1.7971,0.0,0.0,0.0,0.0,0.0,0.0,0.0,0.0,0.0,0.0,0.0,0.0,0.0,0.0,0.0,0.0,0.0,0.0,0.0,0.0,0.0,0.0,0.0,-2.6469,0.0,0.0,0.0,0.0,0.0,0.0,0.0,0.0,0.0,-3.1123,-3.1787,-3.2564,-3.3559,-3.3958,-3.4138,-3.4093,0.0,0.0,0.0,0.0,0.0,0.0,0.0,-3.0531,-2.9368,-2.9557,-2.9842,-2.9825,-2.9615,-2.9305,-2.8812,0.0,0.0,-3.0088,-3.0517,-3.0858,-3.0907,-3.0205,-2.9569,-2.951,-2.9091,-2.8882,0.0,0.0,0.0,0.0,0.0,0.0,0.0,0.0,-2.685,-2.6811,0.0,-2.6742,0.0,0.0,0.0,0.0,0.0,0.0,0.0,0.0,-2.9008,-2.9561,-2.9495,-2.9533,-2.9139,-2.8371,-2.8457,-2.7948,-2.6874,-2.6915,0.0,0.0,0.0,0.0,0.0,0.0,-2.5031,-2.4753,-2.4472,-2.4156,-2.3862,-2.2843,-2.1961,-2.13,-2.0638,-1.9932,-1.9147,-1.8636,-1.8242,-1.7856,-1.743,0.0,0.0,0.0,0.0,0.0,0.0,0.0,0.0,0.0,0.0,0.0,0.0,0.0,0.0,0.0,0.0,0.0,0.0,0.0,0.0,-2.6076,0.0,0.0,0.0,0.0,0.0,0.0,0.0,0.0,0.0,0.0,-3.1324,-3.2667,-3.3693,-3.3733,0.0,0.0,0.0,0.0,-3.3299,-3.2962,-3.2136,-3.1208,-3.0271,-3.0017,-2.9924,-2.9848,0.0,0.0,-2.9761,-2.9146,-2.8685,-2.8605,-2.9219,-2.9779,-2.9822,-2.9869,-3.0041,-3.0258,-2.9515,-2.873,-2.8685,-2.8739,-2.8621,-2.7258,0.0,0.0,0.0,0.0,-2.6608,-2.7,-2.7704,-2.7569,-2.7534,-2.7543,-2.7509,0.0,0.0,0.0,0.0,0.0,0.0,-2.8342,-2.851,-2.9213,-2.9475,-2.9418,-2.9486,-2.9373,-2.9091,-2.8984,-2.876,-2.8442,-2.8264,-2.7554,-2.627,0.0,0.0,0.0,0.0,-2.4968,-2.5145,-2.4419,-2.3879,-2.3551,-2.2505,-2.1609,-2.0942,-2.0239,-1.9617,-1.9108,-1.8681,-1.8141,-1.7518,-1.7619,0.0,0.0,0.0,0.0,0.0,0.0,0.0,0.0,0.0,0.0,0.0,0.0,0.0,0.0,0.0,0.0,0.0,0.0,0.0,-2.6768,-2.7743,-2.8469,0.0,0.0,0.0,0.0,0.0,0.0,0.0,0.0,0.0,-3.2789,-3.3252,-3.3809,0.0,0.0,-3.4452,-3.3754,-3.3267,-3.2706,-3.1912,0.0,0.0,0.0,-2.9386,-2.8998,-2.8973,-2.9444,-2.9599,-2.9038,-2.9228,-2.9273,-2.8696,-2.8802,-2.8956,-2.902,-2.9933,-3.0722,-3.1138,-3.034,-2.958,-2.9661,-2.9172,-2.8587,-2.8167,-2.7651,-2.7128,-2.7083,-2.7343,-2.7224,-2.7543,-2.8159,-2.8146,-2.81,-2.802,-2.8104,-2.7762,-2.704,-2.6778,0.0,0.0,0.0,-2.8766,-2.8722,-2.9074,-2.9206,-2.9129,-2.9172,-2.9212,-2.916,-2.9126,-2.906,-2.8925,-2.885,-2.8314,-2.7333,0.0,0.0,-2.6177,-2.5188,-2.4688,-2.4742,-2.4169,-2.3648,-2.3159,-2.2289,-2.148,-2.0794,-2.0108,-1.9501,-1.9101,-1.87,-1.83,-1.7814,-1.8169,-1.8125,0.0,0.0,0.0,0.0,0.0,0.0,0.0,0.0,0.0,0.0,0.0,-2.2759,-2.3055,0.0,0.0,0.0,-2.5848,-2.6742,-2.7894,-2.8819,0.0,0.0,0.0,0.0,0.0,0.0,0.0,-3.2616,-3.3105,-3.3548,-3.3868,-3.3965,-3.4154,-3.46,-3.457,-3.4186,-3.3252,0.0,-3.1891,-3.0943,-3.0006,-2.9404,-2.9309,-2.8938,-2.8587,-2.8587,-2.8983,-2.9165,-2.8723,-2.9011,-2.9137,-2.8757,-2.8587,-2.8587,-2.8587,-2.9427,-3.0124,-3.0449,-2.9888,-2.9409,-2.9544,-2.9029,-2.8587,-2.8806,-2.8483,-2.7237,-2.7153,-2.7803,-2.7743,-2.7961,-2.8385,-2.8567,-2.8489,-2.8298,-2.8516,-2.8261,-2.7614,-2.7059,0.0,0.0,-2.8355,-2.8724,-2.8603,-2.8737,-2.8761,-2.8703,-2.8752,-2.8785,-2.8785,-2.8966,-2.8934,-2.8709,-2.885,-2.8794,-2.8569,-2.7786,-2.6903,-2.5904,-2.4982,-2.4293,-2.3855,-2.3738,-2.3397,-2.2823,-2.22,-2.1531,-2.0884,-2.0137,-1.9546,-1.9136,-1.869,-1.8468,-1.8436,-1.893,-1.8862,-1.8099,0.0,0.0,0.0,0.0,0.0,0.0,0.0,0.0,0.0,0.0,0.0,0.0,0.0,0.0,0.0,-2.8237,0.0,-2.8686,-2.9488,0.0,0.0,0.0,-3.1458,-3.1844,-3.1888,-3.2328,-3.3451,0.0,0.0,-3.4583,0.0,-3.4555,-3.4477,-3.437,-3.3939,-3.2994,-3.1952,-3.0958,-3.0022,-2.9219,-2.8671,-2.8694,-2.8623,-2.8587,-2.8587,-2.8587,-2.8623,-2.863,-2.863,-2.8596,-2.8587,-2.8587,-2.8587,-2.8587,-2.8659,-2.8587,-2.8712,-2.8641,-2.8614,-2.8676,-2.8623,-2.8587,-2.8592,-2.8402,-2.7878,-2.7807,-2.8012,-2.7951,-2.7987,-2.8084,-2.8102,-2.8074,-2.7992,-2.8001,-2.804,-2.8072,-2.8197,-2.8339,-2.8452,-2.8591,-2.8625,-2.8624,-2.8743,-2.8755,-2.8637,-2.8703,-2.8712,-2.8662,-2.8703,-2.8669,-2.8612,-2.8412,-2.8334,-2.8335,-2.7859,-2.7334,-2.6674,-2.4742,-2.3919,-2.4245,-2.3301,-2.2818,-2.2801,-2.2655,-2.2199,-2.1432,-2.0494,-1.9781,-1.936,-1.8464,-1.8029,-1.8076,-1.8891,-1.9221,-1.8913,-1.9509,0.0,0.0,0.0,0.0,0.0,0.0,0.0,0.0,0.0,-2.4536,-2.4286,0.0,-2.6592,0.0,-2.8361,-2.9368,-2.9518,-3.0295,0.0,0.0,-3.1107,-3.1593,-3.2323,-3.2575,-3.3078,-3.3989,-3.4236,-3.4379,-3.4595,-3.4614,-3.4305,-3.3577,-3.3384,-3.2929,-3.1869,-3.0922,-3.0004,-2.915,-2.8773,-2.8612,-2.8587,-2.8587,-2.8587,-2.8587,-2.8587,-2.8587,-2.8587,-2.8587,-2.8587,-2.8587,-2.8587,-2.8587,-2.8587,-2.8587,-2.8587,-2.8587,-2.8587,-2.8587,-2.8587,-2.8587,-2.8587,-2.8255,-2.802,-2.7878,-2.7733,-2.7645,-2.7803,-2.7831,-2.7695,-2.7783,-2.7733,-2.7616,-2.7704,-2.784,-2.7982,-2.8309,-2.8461,-2.8443,-2.8174,-2.8245,-2.8591,-2.8518,-2.8525,-2.8587,-2.8483,-2.8404,-2.8361,-2.8273,-2.821,-2.8183,-2.8019,-2.7963,-2.8026,-2.7654,-2.7103,-2.6312,-2.514,-2.4571,-2.4611,-2.3666,-2.3092,-2.2969,-2.2802,-2.2283,-2.1373,-2.0331,-1.9715,-1.9464,-1.8473,-1.7929,-1.795,-1.8962,-1.9376,-1.9058,-2.0034,-2.0215,0.0,0.0,0.0,0.0,0.0,0.0,0.0,0.0,0.0,0.0,0.0,-2.7042,0.0,-2.8944,0.0,-3.0297,-3.0947,-3.1379,-3.1556,-3.1956,-3.2466,-3.3012,-3.3206,-3.3543,-3.4083,-3.3953,-3.3789,-3.3789,-3.3504,-3.3045,-3.2367,-3.1977,-3.1494,-3.0867,-3.0266,-2.9577,-2.8757,-2.8587,-2.8587,-2.8587,-2.8587,-2.8587,-2.8587,-2.8587,-2.8587,-2.8587,-2.8587,-2.8587,-2.8587,-2.8587,-2.8587,-2.8587,-2.8587,-2.8587,-2.8587,-2.8587,-2.8587,-2.8587,-2.8587,-2.8587,-2.786,-2.7603,-2.7552,-2.7333,-2.7048,-2.7474,-2.7517,-2.7264,-2.7474,-2.7422,-2.7149,-2.7491,-2.7633,-2.7642,-2.7824,-2.7927,-2.7918,-2.754,-2.7785,-2.8414,-2.8173,-2.8219,-2.8475,-2.8183,-2.7994,-2.7896,-2.7739,-2.764,-2.7561,-2.761,-2.7624,-2.7624,-2.7258,-2.6565,-2.5603,-2.5668,-2.5413,-2.4767,-2.4249,-2.3748,-2.3293,-2.2885,-2.2202,-2.1206,-2.0174,-1.9669,-1.9697,-1.8714,-1.8106,-1.8153,-1.9198,-1.9558,-1.9092,-2.038,-2.0735,0.0,-2.0823,0.0,0.0,0.0,0.0,0.0,0.0,0.0,0.0,-2.6135,-2.7319,-2.8683,-2.9346,-3.0031,-3.0675,-3.1186,-3.1604,-3.1949,-3.2631,-3.3163,-3.3332,-3.336,-3.3459,-3.3624,-3.3047,-3.2637,-3.2625,-3.2033,-3.1509,-3.1017,-3.0427,-2.9881,-2.9603,-2.9446,-2.911,-2.854,-2.8558,-2.8551,-2.8424,-2.8487,-2.8587,-2.8587,-2.8543,-2.8552,-2.8527,-2.8492,-2.8466,-2.8466,-2.8466,-2.8518,-2.8518,-2.8552,-2.8587,-2.8587,-2.8587,-2.8587,-2.8587,-2.8587,-2.8587,-2.7722,-2.7573,-2.7239,-2.704,-2.6917,-2.6932,-2.694,-2.6966,-2.6923,-2.6858,-2.6833,-2.7149,-2.7267,-2.7298,-2.7447,-2.7496,-2.7514,-2.7444,-2.749,-2.7628,-2.7727,-2.7809,-2.7867,-2.7809,-2.7445,-2.6945,-2.7461,-2.7385,-2.6825,-2.7135,-2.7329,-2.7365,-2.6657,-2.617,-2.5897,0.0,0.0,0.0,-2.3979,-2.3903,-2.3663,-2.3337,-2.2849,-2.2131,-2.1363,0.0,-2.0318,-1.9697,-1.9347,-1.9381,-2.0012,0.0,0.0,0.0,0.0,0.0,0.0,0.0,0.0,0.0,0.0,0.0,-2.3874,-2.4309,-2.4835,-2.616,-2.713,-2.7591,-2.8371,-2.8942,-2.9262,-3.0137,-3.0749,-3.0825,-3.1198,-3.1465,-3.152,-3.1681,-3.1783,-3.179,-3.1793,-3.182,-3.1787,-3.1672,-3.1001,-2.9635,-2.9222,-2.8534,-2.7167,-2.7532,-2.7806,-2.7698,-2.808,-2.8279,-2.7718,-2.8117,-2.8433,-2.8552,-2.8361,-2.8183,-2.8139,-2.8002,-2.7878,-2.7888,-2.8055,-2.8219,-2.8228,-2.8413,-2.8587,-2.8587,-2.8587,-2.8587,-2.8587,-2.8587,-2.8587,-2.6874,0.0,-2.657,-2.6175,0.0,-2.6039,-2.6208,-2.6275,-2.6581,-2.67,-2.6691,-2.6891,-2.6956,-2.6947,-2.7014,-2.7052,-2.7043,-2.7052,-2.7046,-2.7065,-2.7317,-2.7535,-2.7701,-2.7513,-2.7261,-2.6895,-2.6744,-2.6644,-2.6626,-2.6279,-2.6335,-2.6699,-2.6115,-2.5681,-2.5435,-2.4768,-2.4209,-2.3788,-2.3869,-2.361,-2.3038,-2.2852,-2.2533,-2.2023,0.0,0.0,0.0,0.0,0.0,0.0,0.0,0.0,0.0,0.0,0.0,-2.0983,-2.1355,-2.1684,-2.1925,-2.2457,-2.3165,-2.3981,-2.4435,-2.4898,-2.536,-2.6638,-2.7528,-2.7829,-2.8413,-2.9011,-2.9448,-2.9787,-3.0145,-3.0437,-3.0668,-3.0819,-3.0994,-3.1074,-3.1163,-3.109,-3.0901,-3.0711,-3.0702,-2.9951,-2.9216,-2.8308,-2.7793,-2.7091,-2.5982,-2.6294,-2.681,-2.6819,-2.7118,-2.7281,-2.6955,-2.7109,-2.7411,-2.7393,-2.7268,-2.7175,-2.7175,-2.7396,-2.7531,-2.7603,-2.7977,-2.8361,-2.8361,-2.8483,-2.8589,-2.8576,-2.8486,-2.8317,-2.821,-2.8255,-2.8352,-2.5859,-2.5798,-2.5728,-2.5215,-2.4551,-2.5223,-2.5537,-2.5631,0.0,0.0,0.0,-2.67,-2.67,-2.67,-2.67,-2.67,-2.67,-2.67,-2.6714,-2.6713,-2.6982,-2.7276,-2.7496,-2.7227,-2.6948,-2.661,-2.5885,-2.5663,-2.5908,-2.5219,-2.5221,-2.5722,-2.5467,-2.4956,-2.4388,-2.3584,-2.3201,-2.3286,-2.3483,-2.312,-2.227,-2.2177,-2.1935,-2.1616,-2.1002,-2.0737,-2.083,-2.0295,-2.0005,-2.0012,-2.0433,-2.0644,-2.0664,-2.1247,-2.1404,-2.1052,-2.1605,-2.2077,-2.2293,-2.29,-2.3562,-2.4264,-2.4989,-2.5564,-2.6002,-2.6987,-2.7751,-2.8085,-2.839,-2.8818,-2.9446,-2.9266,-2.9306,-2.9869,-3.0018,-3.0191,-3.0423,-3.0541,-3.0496,-3.0487,-2.9988,-2.9535,-2.9326,-2.8302,-2.7254,-2.6955,-2.6444,-2.5697,-2.5099,-2.5479,-2.5914,-2.576,-2.6068,-2.624,-2.6041,-2.6143,-2.6107,-2.6237,-2.6111,-2.5997,-2.6081,-2.6604,-2.701,-2.7005,-2.7762,-2.8138,-2.8164,-2.8092,-2.8235,-2.8228,-2.7897,-2.7502,-2.7225,-2.7354,-2.7529,-2.5102,-2.5051,-2.4919,-2.4591,-2.4227,-2.483,-2.5252,-2.557,-2.6343,-2.67,-2.67,-2.67,-2.67,-2.67,-2.67,-2.67,-2.67,-2.67,-2.6708,0.0,-2.6741,-2.6783,-2.6849,-2.6783,-2.5949,-2.4562,-2.4938,-2.4423,-2.3251,-2.4056,-2.4642,-2.4689,-2.4508,-2.3712,-2.2448,-2.1792,-2.1271,-2.0919,-2.2065,-2.2565,-2.237,-2.2044,-2.1759,-2.1609,-2.1383,-2.1301,-2.1287,-2.1213,-2.1179,-2.1186,-2.1254,-2.1246,-2.1294,-2.1369,-2.1382,-2.1356,-2.1857,-2.2183,-2.2229,-2.3025,-2.3769,-2.4245,-2.4719,-2.5291,-2.6041,-2.6571,-2.6886,-2.6944,-2.7046,-2.7055,-2.7206,-2.7422,-2.7659,-2.7764,-2.8138,-2.8469,-2.8622,-2.8846,-2.9004,-2.9004,-2.8857,-2.8506,-2.7983,-2.7565,-2.6832,-2.5728,-2.5317,-2.4869,-2.4353,-2.4655,-2.4818,-2.452,-2.5335,-2.5787,-2.5366,-2.5566,-2.5733,-2.5857,-2.542,-2.5164,-2.5173,-2.561,-2.5914,-2.5884,-2.6765,-2.7116,-2.6708,-2.6709,-2.6843,-2.6819,-2.6348,-2.5745,-2.5249,-2.5322,-2.5749,-2.3849,-2.3667,-2.3558,-2.3169,-2.2707,-2.3326,-2.3921,-2.4444,-2.4809,-2.5521,-2.6342,-2.635,-2.635,-2.6358,-2.6393,-2.633,-2.6245,-2.611,-2.5966,-2.5856,-2.5975,-2.6068,-2.6027,-2.5706,-2.5065,-2.4277,-2.3801,-2.3282,-2.2716,-2.271,-2.2952,-2.3398,-2.3144,-2.2495,-2.1495,-2.0988,-2.033,-1.9656,-2.1076,-2.1717,-2.1363,-2.1288,-2.1251,-2.1153,-2.0914,-2.0729,-2.0779,-2.0779,-2.0815,-2.1062,-2.1062,-2.1166,-2.1375,-2.141,-2.141,-2.1416,-2.1902,-2.217,-2.217,-2.3068,-2.3681,-2.3909,-2.4542,-2.5051,-2.5419,-2.6016,-2.6385,-2.6393,-2.659,-2.67,-2.67,-2.6816,-2.6971,-2.719,-2.7465,-2.7687,-2.7878,-2.7991,-2.8092,-2.8119,-2.8246,-2.8129,-2.762,-2.7076,-2.6504,-2.5503,-2.4805,-2.402,-2.3513,-2.374,-2.3965,-2.3907,-2.4429,-2.4683,-2.4438,-2.4531,-2.4689,-2.4707,-2.4531,-2.4344,-2.4397,-2.4822,-2.5217,-2.5314,-2.6038,-2.6455,-2.6162,-2.6145,-2.5959,-2.5428,-2.5355,-2.4873,-2.4342,-2.4149,-2.4427,-2.2584,-2.2334,-2.2271,-2.194,-2.156,-2.1962,-2.2581,-2.3192,-2.3267,-2.4032,-2.5278,-2.5623,-2.5815,-2.5944,-2.598,-2.5909,-2.5785,-2.5435,-2.5276,-2.5217,-2.5231,-2.5341,-2.5414,-2.4818,-2.4309,-2.3875,-2.275,-2.2136,-2.1952,-2.1289,-2.1338,-2.2044,-2.1714,-2.1169,-2.0437,-1.9879,-1.9208,-1.8566,-1.9784,-2.0363,-2.0093,-2.023,-2.0361,-2.0457,-2.0172,-2.0034,-2.0034,-2.0156,-2.0263,-2.0489,-2.0588,-2.0858,-2.1215,-2.1264,-2.1313,-2.1416,-2.18,-2.2084,-2.2231,-2.2844,-2.3341,-2.3465,-2.4165,-2.4615,-2.4648,-2.5381,-2.5855,-2.5988,-2.6202,-2.6436,-2.6547,-2.6539,-2.6716,-2.7053,-2.7158,-2.7329,-2.7543,-2.7642,-2.7701,-2.7722,-2.7869,-2.7872,-2.7388,-2.6614,-2.5808,-2.5129,-2.4165,-2.3401,-2.3259,-2.3236,-2.3368,-2.3646,-2.3732,-2.373,-2.371,-2.3682,-2.3718,-2.3719,-2.3709,-2.3692,-2.3791,-2.4293,-2.471,-2.4825,-2.5425,-2.5761,-2.5712,-2.5465,-2.4971,-2.4268,-2.4112,-2.4093,-2.3566,-2.33,-2.33,-2.1591,-2.1507,-2.1477,-2.1609,-2.1663,-2.1467,-2.1763,-2.2336,-2.2376,-2.2684,-2.3275,-2.422,-2.496,-2.5529,-2.5524,-2.5548,-2.5408,-2.4875,-2.4887,-2.5258,-2.4859,-2.4908,-2.5298,-2.475,-2.3799,-2.2555,-2.1727,-2.0742,-1.9693,-2.0013,-2.0402,-2.0775,-2.0346,-1.9646,-1.876,-1.7798,-1.7187,-1.7086,-1.7704,-1.8299,-1.874,-1.8777,-1.9008,-1.9493,-1.947,-1.9457,-1.947,-1.9951,-1.9989,-1.9609,-2.0007,-2.0466,-2.0795,-2.0852,-2.1013,-2.1368,-2.1465,-2.165,-2.2137,-2.2263,-2.254,-2.2934,-2.3457,-2.3752,-2.3774,-2.4486,-2.516,-2.5419,-2.5577,-2.5844,-2.6087,-2.6167,-2.635,-2.6758,-2.7021,-2.7213,-2.7276,-2.7513,-2.7701,-2.7701,-2.7692,-2.7476,-2.6784,-2.6,-2.5066,-2.4088,-2.3567,-2.3274,-2.3504,-2.3422,-2.344,-2.3615,-2.3459,-2.3315,-2.3449,-2.3315,-2.3368,-2.3499,-2.333,-2.3298,-2.344,-2.3802,-2.4208,-2.4135,-2.4629,-2.4945,-2.4427,-2.3976,-2.3778,-2.33,-2.2973,-2.2618,-2.2459,-2.2485,-2.2598,-2.0465,-2.0047,-2.0054,-2.0117,-2.0158,-2.0034,-2.0162,-2.04,-2.0415,-2.0722,-2.1265,-2.1721,-2.2709,-2.4162,-2.4845,-2.4673,-2.3808,-2.3909,-2.3894,-2.3792,-2.3588,-2.3544,-2.3338,-2.2728,-2.1909,-2.1006,-2.0318,-1.9575,-1.8934,-1.8946,-1.9024,-1.8912,-1.8682,-1.8413,-1.7997,-1.726,-1.6778,-1.6558,-1.6753,-1.6753,-1.6709,-1.7675,-1.8526,-1.8888,-1.8529,-1.8382,-1.866,-1.8913,-1.8877,-1.8673,-1.9397,-2.0016,-2.0314,-2.0377,-2.0716,-2.1313,-2.141,-2.1506,-2.1712,-2.203,-2.2263,-2.2487,-2.2934,-2.3201,-2.3194,-2.3522,-2.3891,-2.4389,-2.5059,-2.5652,-2.6016,-2.6087,-2.6237,-2.6615,-2.6825,-2.6891,-2.6932,-2.7012,-2.7109,-2.7141,-2.7289,-2.7234,-2.6613,-2.5737,-2.4716,-2.3706,-2.3286,-2.3214,-2.3353,-2.3164,-2.3157,-2.3259,-2.2951,-2.2935,-2.3324,-2.3544,-2.3491,-2.3477,-2.3522,-2.3513,-2.3433,-2.3519,-2.3698,-2.344,-2.3849,-2.3998,-2.3544,-2.3232,-2.2995,-2.2649,-2.2496,-2.2319,-2.2319,-2.2319,-2.2319,-1.9681,-1.9206,-1.9131,-1.9108,-1.9108,-1.9108,-1.9108,-1.9108,-1.9108,-1.9355,-1.9822,-2.0011,-2.0931,-2.2433,-2.3608,-2.3526,-2.2775,-2.2977,-2.2909,-2.2458,-2.2432,-2.2113,-2.1584,-2.0934,-2.0263,-1.9615,-1.8992,-1.8468,-1.809,-1.8151,-1.7923,-1.7587,-1.7543,-1.7498,-1.7377,-1.7018,-1.6536,-1.6038,-1.6104,-1.5772,-1.5228,-1.6273,-1.7249,-1.764,-1.7132,-1.7022,-1.7538,-1.7704,-1.7808,-1.7847,-1.8739,-1.9421,-1.9882,-1.9996,-2.0328,-2.097,-2.1068,-2.1068,-2.1075,-2.1547,-2.1827,-2.1881,-2.2335,-2.2716,-2.2716,-2.2799,-2.3061,-2.3457,-2.4389,-2.5136,-2.5681,-2.5754,-2.5944,-2.6324,-2.635,-2.6393,-2.6496,-2.6547,-2.6573,-2.6683,-2.6956,-2.6775,-2.6129,-2.5302,-2.4484,-2.375,-2.3368,-2.3266,-2.3289,-2.3058,-2.2799,-2.3017,-2.2764,-2.2799,-2.3268,-2.3353,-2.3436,-2.3567,-2.3589,-2.3642,-2.3607,-2.3585,-2.3495,-2.3481,-2.3265,-2.3151,-2.3184,-2.2954,-2.2615,-2.2543,-2.2373,-2.2226,-2.2319,-2.2192,-2.2124,-1.9406,-1.9339,-1.9161,-1.9071,-1.9071,-1.9071,-1.9064,-1.9033,-1.9071,-1.9093,-1.9192,-1.9759,-2.0227,-2.0571,-2.1657,-2.2382,-2.2731,-2.2294,-2.2033,-2.1888,-2.1381,-2.0958,-2.0647,-1.9964,-1.9272,-1.8574,-1.799,-1.7414,-1.7035,-1.7432,-1.753,-1.7101,-1.708,-1.6974,-1.6658,-1.66,-1.6112,-1.5423,-1.5701,-1.5408,-1.4526,-1.448,-1.4865,-1.5305,-1.5251,-1.5516,-1.6021,-1.6498,-1.6971,-1.7394,-1.7917,-1.8615,-1.9443,-1.96,-1.9825,-2.0175,-2.0245,-2.0264,-2.0289,-2.0644,-2.0917,-2.0993,-2.1725,-2.2217,-2.2217,-2.2533,-2.2799,-2.2942,-2.3406,-2.4032,-2.4768,-2.5005,-2.5245,-2.5585,-2.5623,-2.5779,-2.6096,-2.6175,-2.6315,-2.6573,-2.6716,-2.6257,-2.4921,-2.4565,-2.43,-2.3831,-2.3511,-2.3468,-2.372,-2.3224,-2.2911,-2.2993,-2.3042,-2.3075,-2.31,-2.3116,-2.3149,-2.3245,-2.3394,-2.3531,-2.3698,-2.3762,-2.3602,-2.3468,-2.3292,-2.3157,-2.3084,-2.2849,-2.2494,-2.2272,-2.2046,-2.198,-2.1708,-2.1507,-2.1431,-1.8966,-1.8637,-1.8567,-1.8457,-1.834,-1.834,-1.8347,-1.8347,-1.8347,-1.834,-1.8405,-1.8735,-1.9112,-1.9474,-2.0025,-2.0813,-2.1695,-2.1962,-2.1671,-2.0893,-2.0495,-1.9951,-1.9244,-1.8652,-1.8086,-1.7535,-1.7248,-1.6746,-1.6151,-1.6285,-1.6014,-1.5493,-1.5635,-1.5694,-1.566,-1.5817,-1.5769,-1.5499,-1.5648,-1.5235,-1.4272,-1.4225,-1.4096,-1.3718,-1.4281,-1.4851,-1.54,-1.5579,-1.5572,-1.5412,-1.6257,-1.6991,-1.7672,-1.879,-1.9244,-1.8887,-1.9379,-1.9712,-1.9712,-2.0061,-2.0461,-2.0812,-2.1354,-2.1698,-2.1698,-2.1834,-2.207,-2.2402,-2.2579,-2.3009,-2.3608,-2.4364,-2.5051,-2.5397,-2.5511,-2.5494,-2.5734,-2.5952,-2.6167,-2.6324,-2.6488,-2.6156,-2.5096,-2.4619,-2.4185,-2.3475,-2.3135,-2.3178,-2.3319,-2.3024,-2.2782,-2.2985,-2.296,-2.291,-2.31,-2.306,-2.3035,-2.3019,-2.3093,-2.3133,-2.3236,-2.3283,-2.3149,-2.3051,-2.2985,-2.2823,-2.2609,-2.2031,-2.1793,-2.1613,-2.1414,-2.1167,-2.0804,-2.0574,-2.0531,-1.8233,-1.7821,-1.7788,-1.7706,-1.759,-1.7584,-1.7584,-1.759,-1.7584,-1.7643,-1.7827,-1.7948,-1.8377,-1.9047,-1.923,-1.9845,-2.0792,-2.1295,-2.0969,-1.9954,-1.9647,-1.8966,-1.8077,-1.7479,-1.6998,-1.6578,-1.6386,-1.5926,-1.5287,-1.5186,-1.4875,-1.4378,-1.4736,-1.5029,-1.5072,-1.5373,-1.5468,-1.5143,-1.5007,-1.449,-1.3716,-1.3554,-1.3396,-1.3174,-1.365,-1.4155,-1.4618,-1.4591,-1.474,-1.4885,-1.5356,-1.5907,-1.6663,-1.7951,-1.8495,-1.7974,-1.8409,-1.8748,-1.8791,-1.9134,-1.9571,-2.0109,-2.0525,-2.0828,-2.1119,-2.1209,-2.1451,-2.1848,-2.2137,-2.2363,-2.2799,-2.3651,-2.4348,-2.4649,-2.4776,-2.4934,-2.5105,-2.5449,-2.5726,-2.5867,-2.5995,-2.5689,-2.5119,-2.4689,-2.4253,-2.3614,-2.3211,-2.3047,-2.3136,-2.2824,-2.2597,-2.279,-2.2677,-2.265,-2.2747,-2.2721,-2.3044,-2.3093,-2.3095,-2.3011,-2.2951,-2.2935,-2.285,-2.2694,-2.251,-2.2342,-2.1902,-2.1288,-2.0966,-2.0788,-2.0653,-2.0441,-2.0043,-1.9612,-1.9671,-1.7214,-1.6996,-1.6931,-1.7009,-1.7015,-1.7009,-1.6918,-1.6967,-1.7005,-1.7295,-1.7599,-1.7696,-1.8308,-1.906,-1.9253,-1.9632,-2.0085,-2.0251,-1.9982,-1.9338,-1.8874,-1.8143,-1.7239,-1.6744,-1.6264,-1.5846,-1.5386,-1.492,-1.4524,-1.4397,-1.4282,-1.4347,-1.4573,-1.4705,-1.4936,-1.5052,-1.4909,-1.4178,-1.3937,-1.3327,-1.2351,-1.2414,-1.2663,-1.3027,-1.3176,-1.3318,-1.3611,-1.3686,-1.4334,-1.5426,-1.5277,-1.5597,-1.631,-1.7053,-1.7333,-1.7297,-1.7376,-1.7406,-1.7503,-1.7881,-1.8363,-1.8976,-1.9253,-1.995,-2.066,-2.0809,-2.0957,-2.1403,-2.1793,-2.2137,-2.2217,-2.261,-2.3009,-2.2979,-2.3529,-2.3891,-2.4217,-2.464,-2.509,-2.5422,-2.5428,-2.5076,-2.4887,-2.4578,-2.4189,-2.3853,-2.3452,-2.3071,-2.3056,-2.2646,-2.2372,-2.2358,-2.2432,-2.2552,-2.2424,-2.2358,-2.285,-2.3223,-2.3259,-2.3219,-2.3116,-2.3074,-2.2951,-2.279,-2.2358,-2.2115,-2.1064,-2.0454,-2.0008,-1.9815,-1.9757,-1.9555,-1.9093,-1.8725,-1.8815,-1.7332,-1.7115,-1.7122,-1.7044,-1.6924,-1.6888,-1.6888,-1.6933,-1.7254,-1.7472,-1.767,-1.8129,-1.8584,-1.8865,-1.9004,-1.9184,-1.9344,-1.9337,-1.9242,-1.9031,-1.8808,-1.8167,-1.7272,-1.6672,-1.6166,-1.5661,-1.5237,-1.4936,-1.4563,-1.3946,-1.3586,-1.3579,-1.3535,-1.3576,-1.3621,-1.3917,-1.3875,-1.3646,-1.36,-1.3184,-1.2566,-1.2471,-1.2472,-1.2389,-1.2363,-1.244,-1.2662,-1.3508,-1.4157,-1.4682,-1.4251,-1.4171,-1.4666,-1.5354,-1.5799,-1.5846,-1.6203,-1.6533,-1.6871,-1.7229,-1.784,-1.861,-1.913,-1.9705,-2.0268,-2.0429,-2.0573,-2.0963,-2.1153,-2.1354,-2.1602,-2.1739,-2.2149,-2.2806,-2.3016,-2.3334,-2.3787,-2.4405,-2.5005,-2.5411,-2.5419,-2.4943,-2.4164,-2.3786,-2.3416,-2.2702,-2.2405,-2.2366,-2.2312,-2.2382,-2.2299,-2.2319,-2.2405,-2.2543,-2.257,-2.2659,-2.295,-2.3214,-2.3267,-2.327,-2.3199,-2.3138,-2.3033,-2.2546,-2.2159,-2.1422,-2.0372,-1.9645,-1.9194,-1.8701,-1.8434,-1.8194,-1.7937,-1.7869,-1.7906,-1.6502,-1.6225,-1.6367,-1.6232,-1.597,-1.612,-1.6113,-1.6049,-1.6427,-1.6858,-1.7317,-1.789,-1.8467,-1.873,-1.8737,-1.881,-1.8923,-1.8577,-1.8323,-1.8325,-1.8304,-1.7875,-1.722,-1.652,-1.5709,-1.5049,-1.4701,-1.4347,-1.3849,-1.3254,-1.2877,-1.2839,-1.2876,-1.2946,-1.2876,-1.3007,-1.313,-1.3074,-1.2883,-1.2477,-1.2001,-1.2082,-1.2091,-1.1884,-1.2027,-1.2319,-1.2668,-1.3469,-1.3949,-1.4043,-1.4108,-1.4134,-1.3947,-1.4612,-1.4992,-1.4905,-1.5135,-1.5526,-1.6008,-1.6476,-1.7143,-1.8124,-1.8679,-1.924,-1.9832,-2.008,-2.0378,-2.0709,-2.095,-2.1111,-2.1368,-2.141,-2.1691,-2.2235,-2.2526,-2.2852,-2.3319,-2.3948,-2.4283,-2.4445,-2.4629,-2.4259,-2.3586,-2.304,-2.2792,-2.2049,-2.1818,-2.1886,-2.1982,-2.2197,-2.2274,-2.2422,-2.2569,-2.2703,-2.2842,-2.2959,-2.3111,-2.3197,-2.3261,-2.3205,-2.3154,-2.3157,-2.3082,-2.1924,-2.1292,-2.0422,-1.9412,-1.8808,-1.8306,-1.7765,-1.7493,-1.7617,-1.7625,-1.6957,-1.6871,-1.5028,-1.4542,-1.492,-1.4863,-1.4531,-1.4909,-1.4909,-1.4515,-1.4907,-1.5761,-1.66,-1.71,-1.7827,-1.8549,-1.825,-1.8354,-1.8663,-1.7838,-1.7352,-1.728,-1.7266,-1.7134,-1.6866,-1.5987,-1.5019,-1.4105,-1.3901,-1.3355,-1.2767,-1.2432,-1.2231,-1.237,-1.2522,-1.271,-1.2498,-1.2433,-1.2193,-1.2081,-1.1729,-1.116,-1.0577,-1.1087,-1.1315,-1.1265,-1.1744,-1.2295,-1.2772,-1.3186,-1.3558,-1.3933,-1.4619,-1.4594,-1.4265,-1.4581,-1.451,-1.426,-1.4258,-1.463,-1.5079,-1.5624,-1.6377,-1.7446,-1.7945,-1.8524,-1.9395,-1.9817,-2.0118,-2.0547,-2.0914,-2.1173,-2.1215,-2.1222,-2.1277,-2.1375,-2.1928,-2.2449,-2.2799,-2.3334,-2.3376,-2.3047,-2.3272,-2.353,-2.2825,-2.2505,-2.2516,-2.2421,-2.2065,-2.1982,-2.2086,-2.2209,-2.2405,-2.2515,-2.2569,-2.2614,-2.2694,-2.2816,-2.2958,-2.2901,-2.302,-2.3093,-2.2837,-2.2755,-2.2249,-2.1151,-2.0338,-1.9416,-1.867,-1.8136,-1.7751,-1.7445,-1.7379,-1.7519,-1.7167,-1.6541,-1.6247,-1.4485,-1.4346,-1.4444,-1.4438,-1.4299,-1.449,-1.4455,-1.4365,-1.4827,-1.5449,-1.6086,-1.6552,-1.7154,-1.7622,-1.7534,-1.7673,-1.7862,-1.7434,-1.7036,-1.6738,-1.6605,-1.6273,-1.5822,-1.5155,-1.4386,-1.366,-1.3305,-1.3172,-1.3105,-1.2198,-1.2034,-1.235,-1.1498,-1.1152,-1.1075,-1.0669,-1.0325,-1.0268,-1.0142,-0.9901,-0.9716,-0.9779,-0.9834,-0.9688,-1.0012,-1.0514,-1.1208,-1.2201,-1.2875,-1.3138,-1.3413,-1.341,-1.3105,-1.3198,-1.3416,-1.3686,-1.3768,-1.4158,-1.4821,-1.5152,-1.5907,-1.7133,-1.7444,-1.7984,-1.9032,-1.9251,-1.95,-1.9805,-2.0061,-2.0213,-2.0472,-2.0553,-2.056,-2.0686,-2.1404,-2.2086,-2.236,-2.2792,-2.2864,-2.2378,-2.2596,-2.2407,-2.1918,-2.178,-2.1847,-2.1801,-2.1765,-2.1811,-2.1961,-2.2152,-2.2285,-2.2358,-2.2386,-2.2432,-2.2497,-2.2651,-2.2695,-2.2588,-2.273,-2.2935,-2.242,-2.1878,-2.0927,-1.9767,-1.9441,-1.8695,-1.8107,-1.7563,-1.7321,-1.7199,-1.7051,-1.7034,-1.672,-1.6226,-1.6029,-1.4107,-1.3868,-1.403,-1.3941,-1.3779,-1.409,-1.4126,-1.4117,-1.4674,-1.5247,-1.5796,-1.6267,-1.6725,-1.7185,-1.6917,-1.7121,-1.7393,-1.6529,-1.5758,-1.533,-1.5124,-1.5061,-1.485,-1.4405,-1.3743,-1.3053,-1.2558,-1.2277,-1.202,-1.133,-1.1052,-1.102,-1.0465,-1.0094,-1.0082,-0.9506,-0.9113,-0.9116,-0.8918,-0.8661,-0.8345,-0.8603,-0.8608,-0.8603,-0.8807,-0.9375,-1.0018,-1.109,-1.2047,-1.2868,-1.3164,-1.2973,-1.2703,-1.252,-1.257,-1.2841,-1.2905,-1.337,-1.42,-1.4679,-1.5604,-1.6666,-1.7073,-1.7568,-1.8138,-1.8363,-1.8679,-1.9156,-1.9325,-1.9695,-2.0035,-2.0034,-1.9943,-2.0106,-2.057,-2.0998,-2.1204,-2.1541,-2.152,-2.1204,-2.1213,-2.1362,-2.0658,-2.0804,-2.0978,-2.1102,-2.1294,-2.1479,-2.1768,-2.1982,-2.22,-2.233,-2.2405,-2.2497,-2.2677,-2.2859,-2.2746,-2.2617,-2.1979,-2.2314,-2.1689,-2.0921,-1.9927,-1.8977,-1.8569,-1.818,-1.7727,-1.7377,-1.7248,-1.7083,-1.6793,-1.6586,-1.6355,-1.5983,-1.5818,-1.3742,-1.3175,-1.3578,-1.3423,-1.3155,-1.3766,-1.3947,-1.3763,-1.4385,-1.5034,-1.5511,-1.5874,-1.611,-1.6856,-1.6063,-1.6337,-1.6853,-1.5293,-1.4337,-1.3877,-1.3682,-1.3674,-1.3841,-1.3429,-1.2822,-1.2197,-1.1575,-1.101,-1.0581,-0.9879,-0.95,-0.9503,-0.9378,-0.9189,-0.8927,-0.8592,-0.839,-0.8197,-0.7812,-0.7425,-0.7105,-0.7363,-0.7497,-0.7505,-0.814,-0.8661,-0.925,-1.0088,-1.1146,-1.294,-1.3199,-1.2969,-1.2692,-1.2461,-1.2196,-1.1912,-1.2043,-1.2446,-1.3272,-1.4195,-1.5216,-1.6094,-1.6752,-1.7141,-1.7368,-1.7743,-1.8178,-1.8614,-1.9032,-1.9469,-1.9736,-1.956,-1.9404,-1.9423,-1.9236,-1.9153,-1.9569,-2.0045,-2.0077,-1.9502,-1.9791,-1.987,-1.9731,-1.9711,-2.0003,-2.0876,-2.1047,-2.137,-2.1623,-2.1857,-2.2163,-2.246,-2.256,-2.2615,-2.2867,-2.3133,-2.2919,-2.2638,-2.1538,-2.1148,-2.0547,-1.9803,-1.8961,-1.8301,-1.8141,-1.7952,-1.7683,-1.7402,-1.7174,-1.6922,-1.6641,-1.6504,-1.6347,-1.5796,-1.5463,-1.3167,-1.2963,-1.3065,-1.3219,-1.3359,-1.3568,-1.3748,-1.3966,-1.415,-1.4551,-1.4807,-1.4596,-1.4697,-1.5104,-1.4633,-1.4699,-1.551,-1.4321,-1.3606,-1.3481,-1.2927,-1.2447,-1.2251,-1.1881,-1.152,-1.0899,-1.0272,-0.9831,-0.9515,-0.9049,-0.8846,-0.8717,-0.7947,-0.7493,-0.7428,-0.7048,-0.6533,-0.6467,-0.6402,-0.627,-0.6073,-0.6137,-0.6201,-0.6205,-0.7039,-0.7755,-0.8221,-0.9131,-0.9897,-1.0524,-1.1392,-1.1951,-1.1996,-1.1755,-1.1594,-1.1655,-1.1494,-1.1778,-1.2592,-1.3354,-1.4224,-1.55,-1.6141,-1.6692,-1.7196,-1.7584,-1.7972,-1.8304,-1.8744,-1.8963,-1.9137,-1.8763,-1.8547,-1.8437,-1.8031,-1.7669,-1.7924,-1.8972,-1.9396,-1.9161,-1.9238,-1.9437,-1.9205,-1.9449,-1.9856,-2.0567,-2.0943,-2.1275,-2.1485,-2.1661,-2.1936,-2.2212,-2.2296,-2.2298,-2.2499,-2.2678,-2.2501,-2.2137,-2.115,-2.0101,-1.9515,-1.9003,-1.8314,-1.7988,-1.7876,-1.7643,-1.7393,-1.7232,-1.6973,-1.6738,-1.6462,-1.6161,-1.5821,-1.5404,-1.5142,-1.2393,-1.222,-1.2351,-1.2512,-1.2713,-1.3071,-1.3355,-1.3566,-1.3759,-1.3942,-1.4107,-1.3794,-1.3797,-1.3983,-1.3696,-1.396,-1.406,-1.3208,-1.2346,-1.2,-1.1578,-1.1073,-1.0173,-0.9923,-0.9621,-0.9497,-0.8994,-0.8608,-0.821,-0.7757,-0.7307,-0.7365,-0.6721,-0.6531,-0.6396,-0.5817,-0.562,-0.5486,-0.5088,-0.4891,-0.4889,-0.4688,-0.4753,-0.4949,-0.5666,-0.6256,-0.639,-0.7625,-0.8146,-0.8659,-0.9682,-1.0781,-1.1092,-1.0986,-1.1011,-1.1335,-1.1406,-1.1563,-1.2216,-1.3067,-1.3974,-1.4852,-1.5565,-1.5963,-1.6301,-1.6698,-1.6978,-1.7252,-1.7528,-1.7809,-1.8053,-1.7681,-1.7484,-1.7518,-1.7093,-1.6885,-1.7293,-1.8061,-1.8524,-1.8286,-1.8426,-1.8672,-1.8817,-1.905,-1.9434,-1.9969,-2.0166,-2.0499,-2.1023,-2.1222,-2.1448,-2.1661,-2.1819,-2.1936,-2.2089,-2.2103,-2.1962,-2.1438,-2.0633,-1.9554,-1.8648,-1.8213,-1.7785,-1.765,-1.7566,-1.7288,-1.7043,-1.6882,-1.6709,-1.6455,-1.6125,-1.5715,-1.5352,-1.5091,-1.4821,-1.1651,-1.1479,-1.1761,-1.1863,-1.1981,-1.2611,-1.2963,-1.3091,-1.3365,-1.3549,-1.3442,-1.3442,-1.3283,-1.3325,-1.3208,-1.3212,-1.2834,-1.1882,-1.0947,-1.0598,-1.0328,-0.9682,-0.8776,-0.827,-0.7884,-0.813,-0.7697,-0.7179,-0.6787,-0.6139,-0.6075,-0.5818,-0.5688,-0.5622,-0.5557,-0.5291,-0.4959,-0.4891,-0.4427,-0.396,-0.3891,-0.3624,-0.3756,-0.4219,-0.4814,-0.5145,-0.541,-0.6195,-0.6848,-0.6844,-0.8076,-0.9052,-0.9705,-1.0102,-1.011,-1.0728,-1.0844,-1.1134,-1.1608,-1.263,-1.3602,-1.4182,-1.4761,-1.5055,-1.5108,-1.5449,-1.5843,-1.6187,-1.6574,-1.693,-1.7049,-1.6787,-1.6663,-1.6684,-1.6399,-1.6485,-1.6964,-1.7179,-1.7361,-1.7664,-1.7977,-1.8232,-1.8335,-1.85,-1.8921,-1.9332,-1.953,-1.9818,-2.0368,-2.0836,-2.1111,-2.1409,-2.1623,-2.2044,-2.226,-2.2108,-2.1862,-2.1054,-2.0236,-1.9223,-1.8224,-1.7918,-1.7673,-1.74,-1.7207,-1.7027,-1.6755,-1.6471,-1.6289,-1.6131,-1.5725,-1.5181,-1.4932,-1.4748,-1.454,-1.1639,-1.1677,-1.168,-1.207,-1.2618,-1.2862,-1.3025,-1.3391,-1.3347,-1.3511,-1.3381,-1.2891,-1.2573,-1.252,-1.2108,-1.1909,-1.1737,-1.0686,-0.9898,-0.9713,-0.9314,-0.8525,-0.7692,-0.7172,-0.6584,-0.6003,-0.5945,-0.6145,-0.5947,-0.555,-0.5289,-0.5155,-0.4829,-0.47,-0.47,-0.4499,-0.4499,-0.4499,-0.4097,-0.3695,-0.3358,-0.3424,-0.3628,-0.4095,-0.456,-0.4823,-0.5087,-0.5617,-0.6081,-0.6081,-0.6342,-0.6854,-0.7656,-0.8575,-0.91,-0.9528,-0.9778,-1.0186,-1.0643,-1.1629,-1.2373,-1.2901,-1.3489,-1.3863,-1.4094,-1.4742,-1.5143,-1.5598,-1.6198,-1.6833,-1.6698,-1.6027,-1.5942,-1.5901,-1.5719,-1.5597,-1.6076,-1.6466,-1.6934,-1.7495,-1.7747,-1.7916,-1.8069,-1.8182,-1.8475,-1.8952,-1.9273,-1.9565,-2.0019,-2.0558,-2.0983,-2.1275,-2.1584,-2.2064,-2.2516,-2.2275,-2.1953,-2.0986,-2.0118,-1.921,-1.8373,-1.7954,-1.7612,-1.7183,-1.7077,-1.7101,-1.674,-1.6254,-1.6088,-1.6093,-1.5404,-1.4665,-1.4484,-1.4348,-1.4156,-1.0865,-1.0987,-1.1052,-1.1418,-1.1941,-1.2162,-1.232,-1.2524,-1.2536,-1.254,-1.229,-1.1787,-1.1469,-1.1285,-1.0783,-1.0855,-1.0963,-0.9482,-0.8481,-0.8048,-0.7737,-0.723,-0.6527,-0.6065,-0.5479,-0.4957,-0.496,-0.5095,-0.503,-0.4826,-0.4628,-0.4635,-0.4372,-0.4307,-0.4307,-0.4307,-0.4239,-0.4172,-0.3565,-0.3025,-0.269,-0.3092,-0.3499,-0.3768,-0.4104,-0.4303,-0.4434,-0.4829,-0.5025,-0.5087,-0.5352,-0.5745,-0.6306,-0.6908,-0.7856,-0.858,-0.8986,-0.934,-0.9792,-1.0742,-1.1428,-1.2031,-1.2565,-1.3122,-1.3494,-1.4034,-1.4373,-1.4551,-1.4723,-1.5225,-1.4921,-1.4666,-1.4707,-1.5101,-1.492,-1.5125,-1.5756,-1.6101,-1.657,-1.7137,-1.7393,-1.7564,-1.7922,-1.8036,-1.8135,-1.8493,-1.8946,-1.9273,-1.9636,-2.0215,-2.0716,-2.1062,-2.1337,-2.1672,-2.2088,-2.1989,-2.1623,-2.0748,-1.9993,-1.9085,-1.8269,-1.7715,-1.7191,-1.6693,-1.677,-1.6937,-1.6818,-1.6386,-1.6227,-1.5915,-1.5167,-1.4491,-1.4162,-1.3931,-1.3815,-0.9904,-1.0051,-1.0225,-1.0453,-1.0816,-1.1064,-1.117,-1.1178,-1.1174,-1.1174,-1.1115,-1.0608,-1.0351,-1.0091,-0.9776,-0.982,-1.0847,-0.8452,-0.6778,-0.6076,-0.6304,-0.5999,-0.5347,-0.4956,-0.4761,-0.4431,-0.3824,-0.4032,-0.4302,-0.396,-0.3831,-0.3699,-0.3836,-0.3839,-0.3769,-0.3632,-0.377,-0.3229,-0.3166,-0.2491,-0.1951,-0.222,-0.2761,-0.2964,-0.3168,-0.3438,-0.3908,-0.424,-0.4096,-0.4156,-0.4421,-0.5025,-0.5292,-0.5493,-0.6268,-0.7548,-0.8192,-0.8723,-0.9169,-0.9929,-1.053,-1.0947,-1.156,-1.2058,-1.2431,-1.2557,-1.2927,-1.3061,-1.3364,-1.3335,-1.3236,-1.308,-1.3369,-1.3772,-1.398,-1.4141,-1.4824,-1.5229,-1.5369,-1.5947,-1.6623,-1.7083,-1.7317,-1.7543,-1.7605,-1.776,-1.8185,-1.8451,-1.8887,-1.9791,-2.0377,-2.0789,-2.1094,-2.1274,-2.1458,-2.148,-2.0991,-2.0244,-1.9641,-1.8948,-1.8109,-1.7347,-1.6847,-1.6402,-1.642,-1.6541,-1.6502,-1.6293,-1.5767,-1.5247,-1.4717,-1.4303,-1.3928,-1.3762,-1.3689,-0.9265,-0.9144,-0.9172,-0.9352,-0.9696,-0.9755,-0.9767,-0.977,-0.9837,-0.9773,-0.9834,-0.9646,-0.9582,-0.925,-0.8428,-0.8751,-0.859,-0.7161,-0.5485,-0.4915,-0.5201,-0.5348,-0.5024,-0.4563,-0.45,-0.4169,-0.3156,-0.3226,-0.3837,-0.3226,-0.2416,-0.2417,-0.208,-0.2282,-0.2082,-0.2013,-0.1676,-0.1139,-0.2623,-0.2491,-0.0672,-0.0403,-0.1074,-0.1746,-0.2283,-0.2621,-0.35,-0.3836,-0.3834,-0.2751,-0.3628,-0.424,-0.4445,-0.4443,-0.4499,-0.5343,-0.6453,-0.7834,-0.8027,-0.8731,-0.9503,-0.9691,-0.9879,-0.9955,-1.0451,-1.0874,-1.1297,-1.1759,-1.2131,-1.2149,-1.185,-1.2118,-1.2347,-1.2432,-1.2544,-1.274,-1.3312,-1.435,-1.4482,-1.4818,-1.5502,-1.6114,-1.6582,-1.6808,-1.7038,-1.7192,-1.7427,-1.776,-1.8313,-1.9367,-2.002,-2.0462,-2.0846,-2.1038,-2.1062,-2.1022,-2.0655,-1.9877,-1.9316,-1.8784,-1.7992,-1.7223,-1.6609,-1.6261,-1.6165,-1.5864,-1.5584,-1.5293,-1.4963,-1.4812,-1.4584,-1.4164,-1.3649,-1.3539,-1.3474,-0.7638,-0.8362,-0.848,-0.8555,-0.8645,-0.8913,-0.9049,-0.9046,-0.9049,-0.9046,-0.8985,-0.8611,-0.8159,-0.757,-0.69,-0.6985,-0.7016,-0.586,-0.4923,-0.4403,-0.455,-0.4626,-0.4566,-0.4438,-0.431,-0.4112,-0.3775,-0.378,-0.3917,-0.3438,-0.2761,-0.0672,0.0537,0.1075,0.0201,0.0201,0.1141,0.1681,0.1345,0.0873,0.1074,0.114,0.0872,0.0268,-0.0469,-0.1139,-0.1811,-0.3569,-0.3568,-0.235,-0.1743,-0.1542,-0.255,-0.2884,-0.2746,-0.3216,-0.474,-0.5934,-0.6603,-0.7188,-0.7834,-0.835,-0.8546,-0.8865,-0.932,-0.9688,-0.9926,-1.0365,-1.0513,-1.0468,-1.0331,-1.0526,-1.0997,-1.1227,-1.1268,-1.1985,-1.2464,-1.3047,-1.3658,-1.4002,-1.4286,-1.4773,-1.5369,-1.6021,-1.6386,-1.685,-1.7305,-1.7866,-1.8503,-1.9381,-1.9851,-2.0135,-2.0487,-2.083,-2.0758,-2.0717,-2.0578,-1.9915,-1.92,-1.8625,-1.7903,-1.72,-1.6363,-1.554,-1.5064,-1.4781,-1.4617,-1.4638,-1.4631,-1.4619,-1.4579,-1.4032,-1.3473,-1.3143,-1.3041,-0.5578,-0.687,-0.7378,-0.7533,-0.7416,-0.781,-0.8006,-0.8006,-0.7947,-0.7941,-0.7882,-0.7442,-0.6734,-0.6017,-0.5885,-0.5885,-0.596,-0.5226,-0.4687,-0.4421,-0.4227,-0.4032,-0.3899,-0.3906,-0.4322,-0.4123,-0.1748,-0.148,-0.175,-0.1885,-0.0873,0.1078,0.2764,0.3306,0.2762,0.2083,0.2284,0.2965,0.3573,0.3297,0.2822,0.2686,0.2619,0.2282,0.1743,0.1005,0.0469,-0.0872,-0.1678,-0.0939,0.0536,0.0804,-0.0,-0.0334,-0.0669,-0.1204,-0.2469,-0.3539,-0.4538,-0.547,-0.6272,-0.6929,-0.7319,-0.7577,-0.8215,-0.8583,-0.8651,-0.8612,-0.8876,-0.8915,-0.9048,-0.9184,-0.96,-1.0045,-1.0268,-1.1179,-1.1774,-1.1702,-1.163,-1.1666,-1.2053,-1.2959,-1.3741,-1.4919,-1.5722,-1.6349,-1.7066,-1.7818,-1.8398,-1.8971,-1.9016,-1.909,-1.9309,-1.9589,-1.9617,-1.9695,-1.9808,-1.9451,-1.8693,-1.8076,-1.7119,-1.6433,-1.5676,-1.4918,-1.4037,-1.4234,-1.4349,-1.4374,-1.4342,-1.421,-1.4027,-1.3713,-1.3282,-1.2867,-1.2615,-0.2944,-0.4018,-0.5401,-0.5997,-0.6083,-0.6084,-0.6148,-0.6208,-0.6147,-0.621,-0.6272,-0.6017,-0.5952,-0.5758,-0.5357,-0.536,-0.5771,-0.4834,-0.4227,-0.4096,-0.4171,-0.3428,-0.2957,-0.2961,-0.3509,-0.2897,-0.0269,0.2221,0.3033,0.1275,0.2353,0.3918,0.4052,0.4184,0.3706,0.2958,0.255,0.3161,0.3901,0.4443,0.4104,0.4104,0.4105,0.4104,0.3903,0.343,0.208,0.1677,0.1408,0.1408,0.2012,0.3022,0.2818,0.2144,0.1472,0.0935,-0.0134,-0.1202,-0.227,-0.4345,-0.562,-0.5952,-0.6148,-0.6208,-0.6386,-0.6185,-0.6252,-0.6913,-0.7373,-0.7657,-0.7976,-0.8391,-0.8607,-0.8767,-0.8938,-0.9119,-0.9512,-0.9349,-0.9286,-0.9231,-0.9976,-1.1172,-1.1764,-1.2832,-1.471,-1.5481,-1.6312,-1.7033,-1.7299,-1.774,-1.7673,-1.7713,-1.7834,-1.798,-1.7973,-1.8023,-1.7971,-1.7325,-1.6473,-1.6241,-1.5864,-1.5229,-1.4142,-1.3785,-1.2981,-1.3544,-1.3789,-1.301,-1.2665,-1.3315,-1.3365,-1.2794,-1.236,-1.1892,-1.1854,-0.0736,-0.1138,-0.1934,-0.3274,-0.4975,-0.5372,-0.5365,-0.502,-0.5287,-0.542,-0.5423,-0.5093,-0.4895,-0.4895,-0.4761,-0.4696,-0.4835,-0.4574,-0.3356,-0.2819,-0.2891,-0.2689,-0.1611,0.0201,0.0739,0.0201,0.2218,0.357,0.3909,0.3498,0.3767,0.4177,0.4379,0.4314,0.3971,0.37,0.3493,0.3689,0.4427,0.5033,0.5024,0.5423,0.5556,0.5554,0.4556,0.4219,0.3613,0.3628,0.3294,0.3023,0.3157,0.4101,0.4916,0.3961,0.3418,0.2942,0.1737,0.0668,-0.0602,-0.2876,-0.4357,-0.3667,-0.4468,-0.5209,-0.46,-0.5142,-0.5726,-0.6159,-0.6127,-0.6276,-0.6672,-0.7202,-0.7498,-0.756,-0.748,-0.7432,-0.7657,-0.7772,-0.809,-0.8491,-0.9086,-0.998,-1.0323,-1.0605,-1.2686,-1.4573,-1.5443,-1.6071,-1.6096,-1.6225,-1.6096,-1.6273,-1.6412,-1.6101,-1.6076,-1.6086,-1.6082,-1.5272,-1.4395,-1.4184,-1.3966,-1.2705,-1.1824,-1.1705,-1.1591,-1.153,-1.13,-1.0835,-1.1246,-1.2477,-1.2313,-1.1522,-1.1125,-1.0841,-1.084,0.16,0.1533,0.1801,-0.0,-0.2883,-0.3551,-0.3478,-0.3208,-0.3675,-0.442,-0.4831,-0.4436,-0.4306,-0.4304,-0.4304,-0.4306,-0.4375,-0.4109,-0.2417,-0.141,-0.0739,-0.047,0.1477,0.3025,0.3633,0.309,0.3153,0.3962,0.4241,0.431,0.4436,0.4563,0.4561,0.4566,0.4308,0.4308,0.4371,0.4762,0.5092,0.5686,0.5672,0.6069,0.6334,0.6266,0.5404,0.4942,0.4677,0.4489,0.4165,0.3897,0.4032,0.4837,0.5239,0.5236,0.4691,0.408,0.3273,0.2003,0.1069,-0.0869,-0.2275,-0.1733,-0.2398,-0.2996,-0.3125,-0.3572,-0.3588,-0.4714,-0.4713,-0.4905,-0.542,-0.6373,-0.6655,-0.675,-0.5939,-0.5836,-0.6761,-0.7197,-0.756,-0.8002,-0.828,-0.8075,-0.7482,-0.771,-0.9895,-1.1842,-1.3059,-1.3646,-1.3876,-1.4054,-1.4293,-1.4558,-1.4955,-1.4523,-1.4093,-1.3821,-1.3651,-1.3663,-1.2818,-1.2219,-1.1624,-1.026,-0.9961,-1.049,-1.0235,-0.9409,-0.9371,-0.9739,-1.0798,-1.2057,-1.112,-0.9809,-1.0039,-0.9772,-0.9584,0.404,0.4034,0.5483,0.3741,0.0267,-0.0067,-0.0133,-0.0267,-0.1201,-0.2475,-0.383,-0.3902,-0.3902,-0.3902,-0.3561,-0.3697,-0.3768,-0.364,-0.2085,0.0336,0.1681,0.3304,0.4315,0.5057,0.5249,0.4782,0.4767,0.4824,0.4499,0.4697,0.4889,0.5148,0.5281,0.5084,0.4434,0.4367,0.4691,0.5211,0.5408,0.5871,0.6334,0.6597,0.6726,0.666,0.6398,0.5934,0.5672,0.5343,0.502,0.4691,0.4561,0.5092,0.5613,0.5545,0.5342,0.5274,0.4672,0.4544,0.5022,0.18,0.0733,0.06,0.0133,-0.0333,-0.0199,-0.0458,-0.1228,-0.2675,-0.2642,-0.3464,-0.4535,-0.5566,-0.5478,-0.5307,-0.4448,-0.4018,-0.4899,-0.5914,-0.6132,-0.5747,-0.5716,-0.5664,-0.4757,-0.4722,-0.6927,-0.88,-1.0371,-1.1141,-1.1411,-1.1379,-1.1544,-1.193,-1.2199,-1.0824,-1.0253,-1.1022,-1.121,-1.1356,-1.022,-0.8342,-0.7949,-0.7257,-0.7534,-0.8682,-0.7624,-0.5737,-0.7284,-0.9088,-0.8391,-0.7429,-0.857,-0.815,-0.8504,-0.8491,-0.7972,0.6157,0.6153,0.6783,0.6246,0.4765,0.3315,0.2788,0.2521,0.1061,-0.0399,-0.127,-0.1471,-0.1471,-0.1471,-0.1471,-0.174,-0.2344,-0.0402,0.1274,0.2688,0.3365,0.3898,0.4906,0.5713,0.5903,0.5822,0.6079,0.6079,0.5743,0.5547,0.5677,0.6003,0.6131,0.5935,0.5741,0.5677,0.5873,0.6137,0.6465,0.6926,0.7127,0.7519,0.7782,0.7719,0.7388,0.7055,0.6658,0.6328,0.5935,0.5611,0.5547,0.5941,0.6461,0.6461,0.6264,0.6463,0.6129,0.5804,0.6148,0.4865,0.4805,0.4196,0.2994,0.2127,0.212,0.0662,-0.0197,-0.0525,-0.0457,-0.111,-0.1651,-0.2449,-0.2708,-0.3031,-0.2461,-0.1821,-0.2247,-0.3421,-0.3964,-0.2957,-0.2544,-0.2427,-0.1845,-0.1342,-0.3025,-0.4148,-0.5422,-0.7913,-0.8792,-0.8286,-0.8131,-0.8598,-0.8531,-0.6904,-0.6113,-0.6545,-0.5776,-0.4863,-0.3494,-0.1614,-0.1781,-0.3427,-0.3048,-0.3077,-0.2525,-0.2058,-0.3282,-0.3957,-0.2575,-0.2066,-0.3942,-0.4846,-0.4639,-0.5074,-0.5543,0.8623,0.8506,0.8385,0.8264,0.7944,0.6157,0.5171,0.4716,0.3316,0.226,0.1602,0.1469,0.187,0.2071,0.2138,0.1466,0.0466,0.2403,0.4363,0.5387,0.4493,0.5161,0.5901,0.6228,0.6348,0.6531,0.6662,0.6664,0.6266,0.6332,0.6656,0.6981,0.7244,0.7632,0.7435,0.7107,0.6463,0.6728,0.719,0.7647,0.8042,0.8501,0.8829,0.8821,0.8619,0.8159,0.7767,0.7309,0.6915,0.6789,0.6857,0.7183,0.7512,0.7574,0.7377,0.7574,0.764,0.7307,0.7377,0.7834,0.7697,0.77,0.5638,0.4708,0.4632,0.3955,0.2643,0.205,0.1923,0.1129,0.0399,-0.02,0.0199,-0.0132,-0.0395,0.0255,0.0369,-0.0833,-0.0288,0.0619,0.1153,0.1206,0.1205,0.1314,0.1085,0.0374,-0.0369,-0.3108,-0.5489,-0.4756,-0.4171,-0.4536,-0.4389,-0.2743,-0.1778,-0.1717,-0.0565,0.1325,0.2181,0.2767,0.1689,-0.0281,0.1117,0.2031,0.1139,0.068,0.1282,0.1565,0.1411,0.0768,-0.0582,-0.101,-0.0691,-0.1518,-0.2578,1.1359,1.1006,1.0372,1.0059,0.9627,0.8256,0.717,0.6478,0.5945,0.5216,0.4425,0.428,0.4684,0.5922,0.6131,0.5226,0.4195,0.5413,0.6651,0.7414,0.6506,0.6909,0.6894,0.7145,0.7066,0.6994,0.706,0.7258,0.6595,0.6793,0.7312,0.8086,0.8487,0.8871,0.8603,0.8016,0.7374,0.777,0.7907,0.8425,0.8944,0.9268,0.9457,0.9579,0.9576,0.9055,0.86,0.8213,0.7892,0.7635,0.744,0.8086,0.8471,0.8466,0.8664,0.8796,0.8924,0.886,0.8921,0.9317,0.964,0.9387,0.8272,0.7745,0.7274,0.6729,0.554,0.4947,0.475,0.3042,0.1724,0.2585,0.3315,0.2656,0.1867,0.2199,0.2547,0.2887,0.3863,0.4568,0.5058,0.5229,0.5116,0.512,0.3892,0.3863,0.3096,0.2042,0.0103,0.0051,0.041,0.005,0.0509,0.1668,0.2339,0.2735,0.3595,0.5215,0.4264,0.4342,0.3343,0.3543,0.4706,0.5023,0.3532,0.3492,0.5257,0.5005,0.3795,0.319,0.3734,0.2126,0.2199,0.1343,0.053,1.3172,1.2716,1.2525,1.2166,1.1633,1.0728,0.9533,0.8342,0.8081,0.7558,0.6833,0.6519,0.6601,0.6944,0.655,0.6208,0.6137,0.634,0.724,0.7651,0.7627,0.7279,0.7335,0.7659,0.7654,0.7852,0.8049,0.8112,0.7917,0.7849,0.8353,0.9381,0.9142,0.946,0.9515,0.9,0.8994,0.893,0.8874,0.9195,0.9579,0.977,0.9955,1.0085,1.0148,0.9697,0.9256,0.9314,0.9058,0.8807,0.8991,0.9503,0.9567,0.9567,0.963,0.9627,0.9694,0.97,0.9761,0.9891,1.0212,1.0594,0.9952,0.9375,0.8849,0.8315,0.7715,0.7316,0.7244,0.5854,0.5068,0.5538,0.5545,0.4696,0.416,0.4512,0.4907,0.557,0.6548,0.6992,0.7489,0.7422,0.7543,0.6891,0.5862,0.6372,0.6376,0.5652,0.5035,0.4702,0.4172,0.3741,0.4439,0.5275,0.6626,0.7215,0.7962,0.8612,0.7389,0.7047,0.8101,0.8452,0.8765,0.8259,0.7184,0.8248,1.0292,0.9154,0.712,0.8945,0.9454,0.6969,0.487,0.4086,0.3423,1.4178,1.383,1.3638,1.32,1.2689,1.2322,1.1528,1.0537,0.9742,0.8904,0.8066,0.7757,0.7765,0.7767,0.7507,0.7367,0.7281,0.7879,0.8511,0.866,0.8114,0.8361,0.842,0.8425,0.8622,0.8823,0.8891,0.8882,0.8767,0.8894,0.9332,1.0158,0.9597,0.9974,1.0221,1.0158,1.0215,1.0155,1.0091,1.0028,1.0151,1.0342,1.0408,1.0534,1.0594,1.0285,0.9977,1.0221,1.0094,0.9907,1.0218,1.0411,1.0534,1.0657,1.0408,1.0468,1.0594,1.0661,1.072,1.0958,1.1153,1.1347,1.1476,1.108,1.0571,1.0043,0.9336,0.8754,0.9018,0.9015,0.869,0.8294,0.7366,0.6379,0.6687,0.6919,0.7438,0.799,0.8423,0.8848,0.8911,0.8728,0.8406,0.7829,0.7829,0.8505,0.8895,0.8728,0.8138,0.7675,0.7011,0.6398,0.7449,0.8574,0.9735,1.0144,1.0011,0.9966,0.955,0.9819,1.1886,1.1755,1.0475,1.0694,1.1115,1.203,1.2628,1.1933,1.0858,1.2415,1.2398,0.94,0.7346,0.7012,0.645,1.4708,1.466,1.4116,1.3612,1.3156,1.33,1.3223,1.287,1.117,0.9705,0.896,0.8731,0.8924,0.9111,0.8854,0.865,0.877,0.9172,0.9451,0.9989,0.9585,0.9573,0.9636,0.9961,0.9521,0.9585,0.9585,0.9521,0.9081,0.921,0.9843,1.0804,1.0548,1.0671,1.1115,1.0804,1.08,1.1048,1.0727,1.0471,1.0737,1.0933,1.1059,1.1432,1.1432,1.1244,1.087,1.0804,1.0863,1.08,1.093,1.1118,1.1424,1.1732,1.1487,1.1424,1.1666,1.1732,1.1911,1.2143,1.2324,1.2516,1.2577,1.2385,1.1943,1.1208,1.0445,1.0123,1.0252,1.0126,0.9733,1.0024,0.9536,0.888,0.8817,0.8901,0.9106,0.9558,0.9955,1.0273,1.0163,0.9982,0.9931,0.9408,0.939,1.034,1.078,1.0877,1.0874,1.0319,0.9886,0.9109,0.9773,1.0564,1.0744,1.1063,1.0853,1.075,1.0958,1.1719,1.317,1.2671,1.1602,1.245,1.3491,1.3522,1.3768,1.3434,1.3308,1.3397,1.2827,1.0696,0.9609,0.9225,0.8463,1.6238,1.5726,1.4909,1.4475,1.4389,1.4385,1.4093,1.3513,1.3089,1.2465,1.1958,1.1183,1.0815,1.0819,1.0132,0.9875,1.0025,1.0129,1.0164,1.0238,1.0225,1.0215,1.0085,1.0215,1.0094,1.0107,1.0107,1.0094,1.0101,1.0094,1.0281,1.1181,1.086,1.0856,1.1498,1.1122,1.1122,1.156,1.1365,1.1108,1.1244,1.1373,1.1498,1.1622,1.156,1.1369,1.1118,1.1185,1.1055,1.093,1.1244,1.167,1.2212,1.2712,1.2899,1.2899,1.2838,1.2842,1.2903,1.3074,1.3252,1.3252,1.3256,1.3256,1.2891,1.2108,1.1615,1.1417,1.1285,1.109,1.1076,1.1553,1.1781,1.1316,1.0967,1.0873,1.077,1.1121,1.1521,1.1434,1.1327,1.1267,1.1217,1.1187,1.1225,1.1516,1.1909,1.225,1.2645,1.2491,1.2584,1.2039,1.178,1.223,1.2105,1.192,1.1721,1.2358,1.2838,1.3624,1.4462,1.4229,1.3893,1.4865,1.5666,1.5422,1.5459,1.586,1.5717,1.4783,1.3432,1.1357,1.0954,1.0669,0.9767,1.6492,1.6433,1.6037,1.5499,1.4977,1.4895,1.4623,1.4181,1.3964,1.3918,1.3785,1.2659,1.2074,1.2262,1.1578,1.0888,1.0968,1.108,1.1108,1.1,1.0741,1.0727,1.0661,1.0598,1.0478,1.0491,1.0225,1.0281,1.0863,1.0737,1.08,1.1369,1.0919,1.0919,1.156,1.131,1.1247,1.1622,1.1622,1.1619,1.1622,1.1622,1.1622,1.1622,1.1556,1.1365,1.1369,1.1498,1.1373,1.1428,1.1732,1.2031,1.2577,1.3013,1.3385,1.339,1.339,1.3511,1.3631,1.3748,1.3928,1.3928,1.3923,1.3923,1.3919,1.3252,1.3166,1.3032,1.3032,1.2838,1.3016,1.3429,1.3382,1.3055,1.3186,1.3295,1.2989,1.2917,1.2883,1.253,1.2549,1.2591,1.2485,1.2169,1.239,1.3312,1.3669,1.3716,1.4068,1.4265,1.4501,1.4444,1.3882,1.3035,1.2423,1.2458,1.2623,1.3456,1.4494,1.4949,1.5417,1.5936,1.6372,1.6562,1.6745,1.6789,1.6943,1.6897,1.5912,1.4525,1.3374,1.207,1.1963,1.1849,1.1282,1.6191,1.6782,1.6961,1.6369,1.5259,1.5215,1.5137,1.4873,1.4453,1.4528,1.4763,1.3615,1.3093,1.2948,1.2887,1.2108,1.1727,1.1761,1.1802,1.1553,1.1376,1.1115,1.1115,1.1247,1.0993,1.0671,1.0471,1.0853,1.1369,1.1118,1.1055,1.1498,1.1556,1.1556,1.156,1.156,1.1622,1.1622,1.1619,1.1677,1.1681,1.1626,1.1622,1.1622,1.1622,1.1622,1.1622,1.1622,1.1622,1.2042,1.2401,1.2822,1.3178,1.3674,1.3859,1.3983,1.4043,1.3983,1.3983,1.4346,1.4529,1.4592,1.4647,1.4638,1.4633,1.4674,1.4587,1.4744,1.4749,1.4514,1.4695,1.488,1.4836,1.4669,1.4974,1.5119,1.4697,1.4315,1.399,1.3567,1.3459,1.3581,1.3352,1.3065,1.3658,1.4624,1.5202,1.538,1.5496,1.5492,1.559,1.5434,1.5048,1.4109,1.3371,1.322,1.3656,1.4633,1.5618,1.5929,1.6359,1.7026,1.7344,1.727,1.7395,1.7637,1.7218,1.686,1.5664,1.4477,1.3893,1.3058,1.229,1.2259,1.2616,1.6504,1.6191,1.6337,1.6211,1.5948,1.5981,1.5747,1.5442,1.563,1.571,1.5418,1.5535,1.5021,1.3756,1.3199,1.2671,1.2505,1.2435,1.18,1.129,1.1597,1.1365,1.131,1.1549,1.1185,1.0993,1.0919,1.1174,1.1494,1.1306,1.1306,1.156,1.1432,1.1432,1.1622,1.1622,1.1622,1.1622,1.174,1.1856,1.21,1.1981,1.1622,1.1622,1.1622,1.1622,1.1622,1.1622,1.1919,1.252,1.3308,1.3799,1.4098,1.4396,1.4756,1.4869,1.4928,1.4982,1.5099,1.5279,1.54,1.54,1.5454,1.5565,1.5675,1.5953,1.6099,1.6645,1.6409,1.5538,1.5543,1.5908,1.5923,1.554,1.552,1.5338,1.5036,1.4829,1.4572,1.409,1.367,1.3636,1.3485,1.3494,1.3794,1.4651,1.5186,1.5493,1.6379,1.6527,1.6644,1.6363,1.6042,1.6149,1.5789,1.4766,1.4996,1.5961,1.676,1.7236,1.7717,1.8257,1.8474,1.832,1.8373,1.8567,1.7965,1.7001,1.5985,1.5014,1.4723,1.4087,1.3188,1.2849,1.3308]},{"header":{"parameterUnit":"m.s-1","parameterCategory":1,"la1":31.0,"la2":29.5877,"lo1":-88.7671,"lo2":-86.6584,"dy":0.0162,"dx":0.0185,"nx":115,"ny":88,"refTime":"2024-07-27T12:00:00:Z","depth":0,"parameterNumber":3,"parameterNumberName":"V-component_of_WINDS"},"data":[0.0,0.0,0.0,0.0,0.0,0.0,0.0,0.0,0.0,0.0,0.0,0.0,0.0,0.0,0.0,0.0,0.0,0.0,0.0,0.0,0.0,0.0,0.0,0.0,0.0,0.0,0.0,0.0,0.0,0.0,0.0,0.0,0.0,0.0,0.0,0.0,0.0,0.0,0.0,0.0,0.0,0.0,0.0,0.0,0.0,0.0,0.0,0.0,0.0,0.0,0.0,0.0,0.0,0.0,0.0,0.0,0.0,0.0,0.0,0.0,0.0,0.0,0.0,0.0,0.0,0.0,0.0,0.0,0.0,0.0,0.0,0.0,0.0,0.0,0.0,0.0,0.0,0.0,0.0,0.0,0.0,0.0,0.0,0.0,0.0,0.0,0.0,0.0,0.0,0.0,0.0,0.0,0.0,0.0,0.0,0.0,0.0,0.0,0.0,0.0,0.0,0.0,0.0,0.0,0.0,0.0,0.0,0.0,0.0,0.0,0.0,0.0,0.0,0.0,0.0,0.0,0.0,0.0,0.0,0.0,0.0,0.0,0.0,0.0,0.0,0.0,0.0,0.0,0.0,0.0,0.0,0.0,0.0,0.0,0.0,0.0,0.0,0.0,0.0,0.0,0.0,0.0,0.0,0.0,0.0,0.0,0.0,0.0,0.0,0.0,0.0,0.0,0.0,0.0,0.0,0.0,0.0,0.0,0.0,0.0,0.0,0.0,0.0,0.0,0.0,0.0,0.0,0.0,0.0,0.0,0.0,0.0,0.0,0.0,0.0,0.0,0.0,0.0,0.0,0.0,0.0,0.0,0.0,0.0,0.0,0.0,0.0,0.0,0.0,0.0,0.0,0.0,0.0,0.0,0.0,0.0,0.0,0.0,0.0,0.0,0.0,0.0,0.0,0.0,0.0,0.0,0.0,0.0,0.0,0.0,0.0,0.0,0.0,0.0,0.0,0.0,0.0,0.0,0.0,0.0,0.0,0.0,0.0,0.0,0.0,0.0,0.0,0.0,0.0,0.0,0.0,0.0,0.0,0.0,0.0,0.0,0.0,0.0,0.0,0.0,0.0,0.0,0.0,0.0,0.0,0.0,0.0,0.0,0.0,0.0,0.0,0.0,0.0,0.0,0.0,0.0,0.0,0.0,0.0,0.0,0.0,0.0,0.0,0.0,0.0,0.0,0.0,0.0,0.0,0.0,0.0,0.0,0.0,0.0,0.0,0.0,0.0,0.0,0.0,0.0,0.0,0.0,0.0,0.0,0.0,0.0,0.0,0.0,0.0,0.0,0.0,0.0,0.0,0.0,0.0,0.0,0.0,0.0,0.0,0.0,0.0,0.0,0.0,0.0,0.0,0.0,0.0,0.0,0.0,0.0,0.0,0.0,0.0,0.0,0.0,0.0,0.0,0.0,0.0,0.0,0.0,0.0,0.0,0.0,0.0,0.0,0.0,0.0,0.0,0.0,0.0,0.0,0.0,0.0,0.0,0.0,0.0,0.0,0.0,0.0,0.0,0.0,0.0,0.0,0.0,0.0,0.0,0.0,0.0,0.0,0.0,0.0,0.0,0.0,0.0,0.0,0.0,0.0,0.0,0.0,0.0,0.0,0.0,0.0,0.0,0.0,0.0,0.0,0.0,0.0,0.0,0.0,0.0,0.0,0.0,0.0,0.0,0.0,0.0,0.0,0.0,0.0,0.0,0.0,0.0,0.0,0.0,0.0,0.0,0.0,0.0,0.0,0.0,0.0,0.0,0.0,0.0,0.0,0.0,0.0,0.0,0.0,0.0,0.0,0.0,0.0,0.0,0.0,0.0,0.0,0.0,0.0,0.0,0.0,0.0,0.0,0.0,0.0,0.0,0.0,0.0,0.0,0.0,0.0,0.0,0.0,0.0,0.0,0.0,0.0,0.0,0.0,0.0,0.0,0.0,0.0,0.0,0.0,0.0,0.0,0.0,0.0,0.0,0.0,0.0,0.0,0.0,0.0,0.0,0.0,0.0,0.0,0.0,0.0,0.0,0.0,0.0,0.0,0.0,0.0,0.0,0.0,0.0,0.0,0.0,0.0,0.0,0.0,0.0,0.0,0.0,0.0,0.0,0.0,0.0,0.0,0.0,0.0,0.0,0.0,0.0,0.0,0.0,0.0,0.0,0.0,0.0,0.0,0.0,0.0,0.0,0.0,0.0,0.0,0.0,0.0,0.0,0.0,0.0,0.0,0.0,0.0,0.0,0.0,0.0,0.0,0.0,0.0,0.0,0.0,0.0,0.0,0.0,0.0,0.0,0.0,0.0,0.0,0.0,0.0,0.0,0.0,0.0,0.0,0.0,0.0,0.0,0.0,0.0,0.0,0.0,0.0,0.0,0.0,0.0,0.0,0.0,0.0,0.0,0.0,0.0,0.0,0.0,0.0,0.0,0.0,0.0,0.0,0.0,0.0,0.0,0.0,0.0,0.0,0.0,0.0,0.0,0.0,0.0,0.0,0.0,0.0,0.0,0.0,0.0,0.0,0.0,0.0,0.0,0.0,0.0,0.0,0.0,0.0,0.0,0.0,0.0,0.0,0.0,0.0,0.0,0.0,0.0,0.0,0.0,0.0,0.0,0.0,0.0,0.0,0.0,0.0,0.0,0.0,0.0,0.0,0.0,0.0,0.0,0.0,0.0,0.0,0.0,0.0,0.0,0.0,0.0,0.0,0.0,0.0,0.0,0.0,0.0,0.0,0.0,0.0,0.0,0.0,0.0,0.0,0.0,0.0,0.0,0.0,0.0,0.0,0.0,0.0,0.0,0.0,0.0,0.0,0.0,0.0,0.0,0.0,0.0,0.0,0.0,0.0,0.0,0.0,0.0,0.0,0.0,0.0,0.0,0.0,0.0,0.0,0.0,0.0,0.0,0.0,0.0,0.0,0.0,0.0,0.0,0.0,0.0,0.0,0.0,0.0,0.0,0.0,0.0,0.0,0.0,0.0,0.0,0.0,0.0,0.0,0.0,0.0,0.0,0.0,0.0,0.0,0.0,0.0,0.0,0.0,0.0,0.0,0.0,0.0,0.0,0.0,0.0,0.0,0.0,0.0,0.0,0.0,0.0,0.0,0.0,0.0,0.0,0.0,0.0,0.0,0.0,0.0,0.0,0.0,0.0,0.0,0.0,0.0,0.0,0.0,0.0,0.0,0.0,0.0,0.0,0.0,0.0,0.0,0.0,0.0,0.0,0.0,0.0,0.0,0.0,0.0,0.0,0.0,0.0,0.0,0.0,0.0,0.0,0.0,0.0,0.0,0.0,0.0,0.0,0.0,0.0,0.0,0.0,0.0,0.0,0.0,0.0,0.0,0.0,0.0,0.0,0.0,0.0,0.0,0.0,0.0,0.0,0.0,0.0,0.0,0.0,0.0,0.0,0.0,0.0,0.0,0.0,0.0,0.0,0.0,0.0,0.0,0.0,0.0,0.0,0.0,0.0,0.0,0.0,0.0,0.0,0.0,0.0,0.0,0.0,0.0,0.0,0.0,0.0,0.0,0.0,0.0,0.0,0.0,0.0,0.0,0.0,0.0,0.0,0.0,0.0,0.0,0.0,0.0,0.0,0.0,0.0,0.0,0.0,0.0,0.0,0.0,0.0,0.0,0.0,0.0,0.0,0.0,0.0,0.0,0.0,0.0,0.0,0.0,0.0,0.0,0.0,0.0,0.0,0.0,0.0,0.0,0.0,0.0,0.0,0.0,0.0,0.0,0.0,0.0,0.0,0.0,0.0,0.0,0.0,0.0,0.0,0.0,0.0,0.0,0.0,0.0,0.0,0.0,0.0,0.0,0.0,0.0,0.0,0.0,0.0,0.0,0.0,0.0,0.0,0.0,0.0,0.0,0.0,0.0,0.0,0.0,0.0,0.0,0.0,0.0,0.0,0.0,0.0,0.0,0.0,0.0,0.0,0.0,0.0,0.0,0.0,0.0,0.0,0.0,0.0,0.0,0.0,0.0,0.0,0.0,0.0,0.0,0.0,0.0,0.0,0.0,0.0,0.0,0.0,0.0,0.0,0.0,0.0,0.0,0.0,0.0,0.0,0.0,0.0,0.0,0.0,0.0,0.0,0.0,0.0,0.0,0.0,0.0,0.0,0.0,0.0,0.0,0.0,0.0,0.0,0.0,0.0,0.0,0.0,0.0,0.0,0.0,0.0,0.0,0.0,0.0,0.0,0.0,0.0,0.0,0.0,0.0,0.0,0.0,0.0,0.0,0.0,0.0,0.0,0.0,0.0,0.0,0.0,0.0,0.0,0.0,0.6369,0.0,0.0,0.0,0.0,0.0,0.0,0.0,0.0,0.0,0.0,0.0,0.0,0.0,0.0,0.0,0.0,0.0,0.0,0.0,0.0,0.0,0.0,0.0,0.0,0.0,0.0,0.0,0.0,0.0,0.0,0.0,0.0,0.0,0.0,0.0,0.0,0.0,0.0,0.0,0.0,0.0,0.0,0.0,0.0,0.0,0.0,0.0,0.0,0.0,0.0,0.0,0.0,0.0,0.0,0.0,0.0,0.0,0.0,0.0,0.0,0.0,0.0,0.0,0.0,0.0,0.0,0.0,0.0,0.0,0.0,0.0,0.0,0.0,0.0,0.0,0.0,0.0,0.0,0.0,0.0,0.0,0.0,0.0,0.0,0.0,0.0,0.0,0.0,0.0,0.0,0.0,0.0,0.0,0.0,0.0,0.0,0.0,0.0,0.0,0.0,0.0,0.0,0.0,0.0,0.0,0.0,0.0,0.0,0.0,0.0,0.6989,0.6626,0.6057,0.5294,0.4408,0.0,0.0,0.0,0.0,0.0,0.0,0.0,0.0,0.0,0.0,0.0,0.0,0.0,0.0,0.0,0.0,0.0,0.0,0.0,0.0,0.0,0.0,0.0,0.0,0.0,0.0,0.0,0.0,0.0,0.0,0.0,0.0,0.0,0.0,0.0,0.0,0.0,0.0,0.0,0.0,0.0,0.0,0.0,0.0,0.0,0.0,0.0,0.0,0.0,0.0,0.0,0.0,0.0,0.0,0.0,0.0,0.0,0.0,0.0,0.0,0.0,0.0,0.0,0.0,0.0,0.0,0.0,0.0,0.0,0.0,0.0,0.0,0.0,0.0,0.0,0.0,0.0,0.0,0.0,0.0,0.0,0.0,0.0,0.0,0.0,0.0,0.0,0.0,0.0,0.0,0.0,0.0,0.0,0.0,0.0,0.0,0.0,0.0,0.0,0.0,0.0,0.0,0.0,0.0,0.0,0.0,0.0,0.0,0.0,0.0,0.0,0.0,0.4066,0.341,0.2521,0.0,0.0,0.0,0.0,0.0,0.0,0.0,0.0,0.0,0.0,0.0,0.0,0.0,0.0,0.0,0.0,0.0,0.0,0.0,0.0,0.0,0.0,0.0,0.0,0.0,0.0,0.0,0.0,0.0,0.0,0.0,0.0,0.0,0.0,0.0,0.0,0.0,0.0,0.0,0.0,0.0,0.0,0.0,0.0,0.0,0.0,0.0,0.0,0.0,0.0,0.0,0.0,0.0,0.0,0.0,0.0,0.0,0.0,0.0,0.0,0.0,0.0,0.0,0.0,0.0,0.0,0.0,0.0,0.0,0.0,0.0,0.0,0.0,0.0,0.0,0.0,0.0,0.0,0.0,0.0,0.0,0.0,0.0,0.0,0.0,0.0,0.0,0.0,0.0,0.0,0.0,0.0,0.0,0.0,0.0,0.0,0.0,0.0,0.0,0.0,0.0,0.0,0.0,0.0,0.0,0.0,0.0,0.0,0.0,0.0,0.2666,0.2644,0.2356,0.0,0.0532,0.0,0.0,0.0,0.0,0.0,0.0,0.0,0.0,0.0,0.0,0.0,0.0,0.0,0.0,0.0,0.0,0.0,0.0,0.0,0.0,0.0,0.0,0.0,0.0,0.0,0.0,0.0,0.0,0.0,0.0,0.0,0.0,0.0,0.0,0.0,0.0,0.0,0.0,0.0,0.0,0.0,0.0,0.0,0.0,0.0,0.0,0.0,0.0,0.0,0.0,0.0,0.0,0.0,0.0,0.0,0.0,0.0,0.0,0.0,0.0,0.0,0.0,0.0,0.0,0.0,0.0,0.0,0.0,0.0,0.0,0.0,0.0,0.0,0.0,0.0,0.0,0.0,0.0,0.0,0.0,0.0,0.0,0.0,0.0,0.0,0.0,0.0,0.0,0.0,0.0,0.0,0.0,0.0,0.0,0.0,0.0,0.0,0.0,0.0,0.0,0.0,0.0,0.0,0.0,0.0,0.0,0.0,0.0,0.0,0.0,0.1031,0.1271,0.1003,0.055,0.0,0.0,0.0,0.0,0.0,0.0,0.0,0.0,0.0,0.0,0.0,0.0,0.0,0.0,0.0,0.0,0.0,0.0,0.0,0.0,0.0,0.0,0.0,0.0,0.0,0.0,0.0,0.0,0.0,0.0,0.0,0.0,0.0,0.0,0.0,0.0,0.0,0.0,0.0,0.0,0.0,0.0,0.0,0.0,0.0,0.0,0.0,0.0,0.0,0.0,0.0,0.0,0.0,0.0,0.0,0.0,0.0,0.0,0.0,0.0,0.0,0.0,0.0,0.0,0.0,0.0,0.0,0.0,0.0,0.0,0.0,0.0,0.0,0.0,0.0,0.0,0.0,0.0,0.0,0.0,0.0,0.0,0.0,0.0,0.0,0.0,0.0,0.0,0.0,0.0,0.0,0.0,0.0,0.0,0.0,0.0,0.0,0.0,0.0,0.0,0.0,0.0,0.0,0.0,0.0,0.0,0.0,0.0,0.0,0.0,-0.0604,-0.0214,0.0069,-0.0132,-0.0374,-0.0575,0.0,0.0,0.0,0.0,0.0,0.0,0.0,0.0,0.0,0.0,0.0,0.0,0.0,0.0,0.0,0.0,0.0,0.0,0.0,0.0,0.0,0.0,0.0,0.0,0.0,0.0,0.0,0.0,0.0,0.0,0.0,0.0,0.0,0.0,0.0,0.0,0.0,0.0,0.0,0.0,0.0,0.0,0.0,0.0,0.0,0.0,0.0,0.0,0.0,0.0,0.0,0.0,0.0,0.0,0.0,0.0,0.0,0.0,0.0,0.0,0.0,0.0,0.0,0.0,0.0,0.0,0.0,0.0,0.0,0.0,0.0,0.0,0.0,0.0,0.0,0.0,0.0,0.0,0.0,0.0,0.0,0.0,0.0,0.0,0.0,0.0,0.0,0.0,0.0,0.0,0.0,0.0,0.0,0.0,0.0,0.0,0.0,0.0,0.0,0.0,0.0,0.0,0.0,0.0,0.0,0.0,0.0,0.0,0.0,-0.1342,-0.1053,-0.0837,-0.1053,-0.1104,0.0,0.0,0.0,0.0,0.0,0.0,0.0,0.0,0.0,0.0,0.0,0.0,0.0,0.0,0.0,0.0,0.0,0.0,0.0,0.0,0.0,0.0,0.0,0.0,0.0,0.0,0.0,0.0,0.0,0.0,0.0,0.0,0.0,0.0,0.0,0.0,0.0,0.0,0.0,0.0,0.0,0.0,0.0,0.0,0.0,0.0,0.0,0.0,0.0,0.0,0.0,0.0,0.0,0.0,0.0,0.0,0.0,0.0,0.0,0.0,0.0,0.0,0.0,0.0,0.0,0.0,0.0,0.0,0.0,0.0,0.0,0.0,0.0,0.0,0.0,0.0,0.0,0.0,0.0,0.0,0.0,0.0,0.0,0.0,0.0,0.0,0.0,0.0,0.0,0.0,0.0,0.0,0.0,0.0,0.0,0.0,0.0,0.0,0.0,0.0,0.0,0.0,0.0,0.0,0.0,0.0,0.0,0.0,0.0,-0.1927,-0.1652,-0.151,-0.1556,-0.1545,-0.1549,0.0,0.0,0.0,0.0,0.0,0.0,0.0,0.0,0.0,0.0,0.0,0.0,0.0,0.0,0.0,0.0,0.0,0.0,0.0,0.0,0.0,0.0,0.0,0.0,0.0,0.0,0.0,0.0,0.0,0.0,0.0,0.0,0.0,0.0,0.0,0.0,0.0,0.0,0.0,0.0,0.0,0.0,0.0,0.0,0.0,0.0,0.0,0.0,0.0,0.0,0.0,0.0,0.0,0.0,0.0,0.0,0.0,0.0,0.0,0.0,0.0,0.0,0.0,0.0,0.0,0.0,0.0,0.0,0.0,0.0,0.0,0.0,0.0,0.0,0.0,0.0,0.0,0.0,0.0,0.0,0.0,0.0,0.0,0.0,0.0,0.0,0.0,0.0,0.0,0.0,0.0,0.0,0.0,0.0,0.0,0.0,0.0,0.0,0.0,0.0,0.0,0.0,0.0,0.0,0.0,0.0,0.0,0.0,0.0,-0.2137,0.0,-0.1983,0.0,-0.2055,-0.2035,0.0,0.0,0.0,0.0,0.0,0.0,0.0,0.0,0.0,0.0,0.0,0.0,0.0,0.0,0.0,0.0,0.0,0.0,0.0,0.0,0.0,0.0,0.0,0.0,0.0,0.0,0.0,0.0,0.0,0.0,0.0,0.0,0.0,0.0,0.0,0.0,0.0,0.0,0.0,0.0,0.0,0.0,0.0,0.0,0.0,0.0,0.0,0.0,0.0,0.0,0.0,0.0,0.0,0.0,0.0,0.0,0.0,0.0,0.0,0.0,0.0,0.0,0.0,0.0,0.0,0.0,0.0,0.0,0.0,0.0,0.0,0.0,0.0,0.0,0.0,0.0,0.0,0.0,0.0,0.0,0.0,0.0,0.0,0.0,0.0,0.0,0.0,0.0,0.0,0.0,0.0,0.0,0.0,0.0,0.0,0.0,0.0,0.0,0.0,0.0,0.0,0.0,0.0,0.0,0.0,0.0,0.0,0.0,-0.2566,-0.234,-0.2453,-0.2551,-0.2613,-0.2645,-0.265,0.0,0.0,0.0,0.0,0.0,0.0,0.0,0.0,0.0,0.0,0.0,0.0,0.0,0.0,0.0,0.0,0.0,0.0,0.0,0.0,0.0,0.0,0.0,0.0,0.0,0.0,0.0,0.0,0.0,0.0,0.0,0.0,0.0,0.0,0.0,0.0,0.0,0.0,0.0,0.0,0.0,0.0,0.0,0.0,0.0,0.0,0.0,0.0,0.0,0.0,0.0,0.0,0.0,0.0,0.0,0.0,0.0,0.0,0.0,0.0,0.0,0.0,0.0,0.0,0.0,0.0,0.0,0.0,0.0,0.0,0.0,0.0,0.0,0.0,0.0,0.0,0.0,0.0,0.0,0.0,0.0,0.0,0.0,0.0,0.0,0.0,0.0,0.0,0.0,0.0,0.0,0.0,0.0,0.0,0.0,0.0,0.0,0.0,0.0,0.0,0.0,0.0,0.0,0.0,0.0,0.0,0.0,0.0,0.0,-0.2703,-0.2954,-0.3137,-0.3331,-0.3252,-0.3243,0.0,0.0,0.0,0.0,0.0,0.0,0.0,0.0,0.0,0.0,0.0,0.0,0.0,0.0,0.0,0.0,0.0,0.0,0.0,0.0,0.0,0.0,0.0,0.0,0.0,0.0,0.0,0.0,0.0,0.0,0.0,0.0,0.0,0.0,0.0,0.0,0.0,0.0,0.0,0.0,0.0,0.0,0.0,0.0,0.0,0.0,0.0,0.0,0.0,0.0,0.0,0.0,0.0,0.0,0.0,0.0,0.0,0.0,0.0,0.0,0.0,0.0,0.0,0.0,0.0,0.0,0.0,0.0,0.0,0.0,0.0,0.0,0.0,0.0,0.0,0.0,0.0,0.0,0.0,0.0,0.0,0.0,0.0,0.0,0.0,0.0,0.0,0.0,0.0,0.0,0.0,0.0,0.0,0.0,0.0,0.0,0.0,0.0,0.0,0.0,0.0,0.0,0.0,0.0,0.0,0.0,0.0,0.0,0.0,-0.2992,-0.3322,-0.3692,-0.3996,-0.3966,-0.3971,-0.3987,0.0,0.0,0.0,0.0,0.0,0.0,0.0,0.0,0.0,0.0,0.0,0.0,0.0,0.0,0.0,0.0,0.0,0.0,0.0,0.0,0.0,0.0,0.0,0.0,0.0,0.0,0.0,0.0,0.0,0.0,0.0,0.0,0.0,0.0,0.0,0.0,0.0,0.0,0.0,0.0,0.0,0.0,0.0,0.0,0.0,0.0,0.0,0.0,0.0,0.0,0.0,0.0,0.0,0.0,0.0,0.0,0.0,0.0,0.0,0.0,0.0,0.0,0.0,0.0,0.0,0.0,0.0,0.0,0.0,0.0,0.0,0.0,0.0,0.0,0.0,0.0,0.0,0.0,0.0,0.0,0.0,0.0,0.0,0.0,0.0,0.0,0.0,0.0,0.0,0.0,0.0,0.0,0.0,0.0,0.0,0.0,0.0,0.0,0.0,0.0,0.0,0.0,0.0,0.0,0.0,0.0,0.0,0.0,-0.3149,-0.3708,-0.4186,-0.4601,-0.4784,-0.4745,0.0,0.0,0.0,0.0,0.0,0.0,0.0,0.0,0.0,0.0,0.0,0.0,0.0,0.0,0.0,0.0,0.0,0.0,0.0,0.0,0.0,0.0,0.0,0.0,0.0,0.0,0.0,0.0,0.0,0.0,0.0,0.0,0.0,0.0,0.0,0.0,0.0,0.0,0.0,0.0,0.0,0.0,0.0,0.0,0.0,0.0,0.0,0.0,0.0,0.0,0.0,0.0,0.0,0.0,0.0,0.0,0.0,0.0,0.0,0.0,0.0,0.0,0.0,0.0,0.0,0.0,0.0,0.0,0.0,0.0,0.0,0.0,0.0,0.0,0.0,0.0,0.0,0.0,0.0,0.0,0.0,0.0,0.0,0.0,0.0,0.0,0.0,0.0,0.0,0.0,0.0,0.0,0.0,0.0,0.0,0.0,0.0,0.0,0.0,0.0,0.0,0.0,0.0,0.0,0.0,0.0,0.0,0.0,0.0,-0.3775,-0.4316,-0.472,-0.4788,-0.4683,-0.4769,0.0,0.0,0.0,0.0,0.0,0.0,0.0,0.0,0.0,0.0,0.0,0.0,0.0,0.0,0.0,0.0,0.0,0.0,0.0,0.0,0.0,0.0,0.0,0.0,0.0,0.0,0.0,0.0,0.0,0.0,0.0,0.0,0.0,0.0,0.0,0.0,0.0,0.0,0.0,0.0,0.0,0.0,0.0,0.0,0.0,0.0,0.0,0.0,0.0,0.0,0.0,0.0,0.0,0.0,0.0,0.0,0.0,0.0,0.0,0.0,0.0,0.0,0.0,0.0,0.0,0.0,0.0,0.0,0.0,0.0,0.0,0.0,0.0,0.0,0.0,0.0,0.0,0.0,0.0,0.0,0.0,0.0,0.0,0.0,0.0,0.0,0.0,0.0,0.0,0.0,0.0,0.0,0.0,0.0,0.0,0.0,0.0,0.0,0.0,0.0,0.0,0.0,0.0,0.0,0.0,0.0,0.0,0.0,-0.3678,-0.406,-0.4552,-0.4928,-0.5217,-0.5221,-0.5362,0.0,0.0,0.0,0.0,0.0,0.0,0.0,0.0,0.0,0.0,0.0,0.0,0.0,0.0,0.0,0.0,0.0,0.0,0.0,0.0,0.0,0.0,0.0,0.0,0.0,0.0,0.0,0.0,0.0,0.0,0.0,0.0,0.0,0.0,0.0,0.0,0.0,0.0,0.0,0.0,0.0,0.0,0.0,0.0,0.0,0.0,0.0,0.0,0.0,0.0,0.0,0.0,0.0,0.0,0.0,0.0,0.0,0.0,0.0,0.0,0.0,0.0,0.0,0.0,0.0,0.0,0.0,0.0,0.0,0.0,0.0,0.0,0.0,0.0,0.0,0.0,0.0,0.0,0.0,0.0,0.0,0.0,0.0,0.0,0.0,0.0,0.0,0.0,0.0,0.0,0.0,0.0,0.0,0.0,0.0,0.0,0.0,0.0,0.0,0.0,0.0,0.0,0.0,0.0,0.0,0.0,0.0,0.0,-0.4108,-0.4247,-0.4543,-0.4913,-0.5554,-0.5968,-0.6149,0.0,0.0,0.0,0.0,0.0,0.0,0.0,0.0,0.0,0.0,0.0,0.0,0.0,0.0,0.0,0.0,0.0,0.0,0.0,0.0,0.0,0.0,0.0,0.0,0.0,0.0,0.0,0.0,0.0,0.0,0.0,0.0,0.0,0.0,0.0,0.0,0.0,0.0,0.0,0.0,0.0,0.0,0.0,0.0,0.0,0.0,0.0,0.0,0.0,0.0,0.0,0.0,0.0,0.0,0.0,0.0,0.0,0.0,0.0,0.0,0.0,0.0,0.0,0.0,0.0,0.0,0.0,0.0,0.0,0.0,0.0,0.0,0.0,0.0,0.0,0.0,0.0,0.0,0.0,0.0,0.0,0.0,0.0,0.0,0.0,0.0,0.0,0.0,0.0,0.0,0.0,0.0,0.0,0.0,0.0,0.0,0.0,0.0,0.0,0.0,0.0,0.0,0.0,0.0,0.0,0.0,0.0,0.0,-0.4259,-0.4544,-0.4819,-0.5032,-0.5185,-0.5541,-0.5959,0.0,0.0,0.0,0.0,0.0,0.0,0.0,0.0,0.0,0.0,0.0,0.0,0.0,0.0,0.0,0.0,0.0,0.0,0.0,0.0,0.0,0.0,0.0,0.0,0.0,0.0,0.0,0.0,0.0,0.0,0.0,0.0,0.0,0.0,0.0,0.0,0.0,0.0,0.0,0.0,0.0,0.0,0.0,0.0,0.0,0.0,0.0,0.0,-0.9598,0.0,0.0,0.0,0.0,0.0,0.0,0.0,0.0,0.0,0.0,0.0,0.0,0.0,0.0,0.0,0.0,0.0,0.0,0.0,0.0,0.0,0.0,0.0,0.0,0.0,0.0,0.0,0.0,0.0,0.0,0.0,0.0,0.0,0.0,0.0,0.0,0.0,0.0,0.0,0.0,0.0,0.0,0.0,0.0,0.0,0.0,0.0,0.0,0.0,0.0,0.0,0.0,0.0,0.0,0.0,0.0,0.0,0.0,0.0,-0.4822,-0.5084,-0.5257,-0.5489,-0.5856,-0.6104,-0.6414,0.0,0.0,0.0,0.0,0.0,0.0,0.0,0.0,0.0,0.0,0.0,0.0,0.0,0.0,0.0,0.0,0.0,0.0,0.0,0.0,0.0,0.0,0.0,0.0,0.0,0.0,0.0,0.0,0.0,0.0,0.0,0.0,0.0,0.0,0.0,0.0,0.0,0.0,0.0,0.0,0.0,0.0,0.0,0.0,0.0,0.0,0.0,0.0,0.0,0.0,0.0,0.0,0.0,0.0,0.0,0.0,0.0,0.0,0.0,0.0,0.0,0.0,0.0,0.0,0.0,0.0,0.0,0.0,0.0,0.0,0.0,0.0,0.0,0.0,0.0,0.0,0.0,0.0,0.0,0.0,0.0,0.0,0.0,0.0,0.0,0.0,0.0,0.0,0.0,0.0,0.0,0.0,0.0,0.0,0.0,0.0,0.0,0.0,0.0,0.0,0.0,0.0,0.0,0.0,0.0,0.0,0.0,-0.5037,-0.5408,-0.5743,-0.5677,-0.5983,-0.6604,-0.6937,-0.7146,-0.7179,0.0,0.0,0.0,0.0,0.0,0.0,0.0,0.0,0.0,0.0,0.0,0.0,0.0,0.0,0.0,0.0,0.0,0.0,0.0,0.0,0.0,0.0,0.0,0.0,0.0,0.0,0.0,0.0,0.0,0.0,0.0,0.0,0.0,0.0,0.0,0.0,0.0,0.0,-0.5099,-0.6713,0.0,0.0,0.0,0.0,0.0,0.0,0.0,0.0,-1.0337,0.0,0.0,0.0,0.0,0.0,0.0,0.0,0.0,0.0,0.0,0.0,0.0,0.0,0.0,0.0,0.0,0.0,0.0,0.0,0.0,0.0,0.0,0.0,0.0,0.0,0.0,0.0,0.0,0.0,0.0,0.0,0.0,0.0,0.0,0.0,0.0,0.0,0.0,0.0,0.0,0.0,0.0,0.0,0.0,0.0,0.0,0.0,0.0,0.0,0.0,0.0,0.0,0.0,0.0,0.0,0.0,-0.507,-0.5272,-0.5532,-0.5876,-0.601,-0.6165,-0.6313,-0.7053,-0.7743,-0.8408,0.0,0.0,0.0,0.0,0.0,0.0,0.0,0.0,0.0,0.0,0.0,0.0,0.0,0.0,0.0,0.0,0.0,0.0,0.0,0.0,0.0,0.0,0.0,0.0,0.0,0.0,0.0,0.0,0.0,0.0,0.0,0.0,0.0,0.0,0.0,0.0,0.0,0.0,0.0,-0.7023,-0.8155,0.0,0.0,0.0,0.0,0.0,0.0,0.0,0.0,-1.0702,0.0,0.0,0.0,0.0,0.0,0.0,0.0,0.0,0.0,0.0,0.0,0.0,0.0,0.0,0.0,0.0,0.0,0.0,0.0,0.0,0.0,0.0,0.0,0.0,0.0,0.0,0.0,0.0,0.0,0.0,0.0,0.0,0.0,0.0,0.0,0.0,0.0,0.0,0.0,0.0,0.0,0.0,0.0,0.0,0.0,0.0,0.0,0.0,0.0,0.0,0.0,0.0,0.0,0.0,0.0,-0.5421,-0.5473,-0.5758,-0.6278,-0.6255,-0.6527,-0.7176,-0.7845,-0.8505,0.0,0.0,0.0,0.0,0.0,0.0,0.0,0.0,0.0,0.0,0.0,0.0,0.0,0.0,0.0,0.0,0.0,0.0,0.0,0.0,0.0,0.0,0.0,0.0,0.0,0.0,0.0,0.0,0.0,0.0,0.0,0.0,0.0,0.0,0.0,0.0,0.0,0.0,0.0,0.0,-0.7542,-0.8597,-0.9238,0.0,0.0,0.0,0.0,0.0,0.0,-1.1016,-1.0818,0.0,0.0,0.0,0.0,0.0,0.0,0.0,0.0,0.0,0.0,0.0,0.0,0.0,0.0,0.0,0.0,0.0,0.0,0.0,0.0,0.0,0.0,0.0,0.0,0.0,0.0,0.0,0.0,0.0,0.0,0.0,0.0,0.0,0.0,0.0,0.0,0.0,0.0,0.0,0.0,0.0,0.0,0.0,0.0,0.0,0.0,0.0,0.0,0.0,0.0,0.0,0.0,0.0,0.0,0.0,-0.585,-0.5889,-0.6234,-0.6864,-0.6739,-0.7112,-0.8084,-0.868,-0.9147,0.0,0.0,0.0,0.0,0.0,0.0,0.0,0.0,0.0,0.0,0.0,0.0,0.0,0.0,0.0,0.0,0.0,0.0,0.0,0.0,0.0,0.0,0.0,0.0,0.0,0.0,0.0,0.0,0.0,0.0,0.0,0.0,0.0,0.0,0.0,0.0,0.0,0.0,0.0,0.0,0.0,-0.8882,-0.96,-1.0161,0.0,0.0,0.0,0.0,-1.0938,-1.097,0.0,0.0,0.0,0.0,0.0,0.0,0.0,0.0,0.0,0.0,0.0,0.0,0.0,0.0,0.0,0.0,0.0,0.0,0.0,0.0,0.0,0.0,0.0,0.0,0.0,0.0,0.0,0.0,0.0,0.0,0.0,0.0,0.0,0.0,0.0,0.0,0.0,0.0,0.0,0.0,0.0,0.0,0.0,0.0,0.0,0.0,0.0,0.0,0.0,0.0,0.0,0.0,0.0,0.0,0.0,0.0,-0.6572,-0.6859,-0.7228,-0.765,-0.7969,-0.816,-0.8137,-0.9113,-0.9753,0.0,0.0,0.0,0.0,0.0,0.0,0.0,0.0,0.0,0.0,0.0,0.0,0.0,0.0,0.0,0.0,0.0,0.0,0.0,0.0,0.0,0.0,0.0,0.0,0.0,0.0,0.0,0.0,0.0,0.0,0.0,0.0,0.0,0.0,0.0,0.0,0.0,0.0,0.0,0.0,0.0,-0.8422,-0.8078,-0.933,-1.0201,0.0,0.0,-1.0932,-1.1006,-1.1322,0.0,0.0,0.0,0.0,0.0,0.0,0.0,0.0,0.0,0.0,0.0,0.0,0.0,0.0,0.0,0.0,0.0,0.0,0.0,0.0,0.0,0.0,0.0,0.0,0.0,0.0,0.0,0.0,0.0,0.0,0.0,0.0,0.0,0.0,0.0,0.0,0.0,0.0,0.0,0.0,0.0,0.0,0.0,0.0,0.0,0.0,0.0,0.0,0.0,0.0,0.0,0.0,0.0,0.0,0.0,-0.6299,-0.6935,-0.7453,-0.7947,-0.8431,-0.8456,-0.8732,-0.9284,-0.985,-1.0214,0.0,0.0,0.0,0.0,0.0,0.0,0.0,0.0,0.0,0.0,0.0,0.0,0.0,0.0,0.0,0.0,0.0,0.0,0.0,0.0,0.0,0.0,0.0,0.0,0.0,0.0,0.0,0.0,0.0,0.0,0.0,0.0,0.0,0.0,0.0,0.0,0.0,0.0,0.0,0.0,0.0,0.0,-0.826,-0.9299,0.0,0.0,0.0,-0.9925,-1.0596,0.0,0.0,0.0,0.0,0.0,0.0,0.0,0.0,0.0,0.0,0.0,0.0,0.0,0.0,0.0,0.0,0.0,0.0,0.0,0.0,0.0,0.0,0.0,0.0,0.0,0.0,0.0,0.0,0.0,0.0,0.0,0.0,0.0,0.0,0.0,0.0,0.0,0.0,0.0,0.0,0.0,0.0,0.0,0.0,0.0,0.0,0.0,0.0,0.0,0.0,0.0,0.0,0.0,0.0,0.0,0.0,0.0,-0.7478,-0.8126,-0.8691,-0.9201,-0.9035,-0.9357,-1.0182,-1.0423,0.0,0.0,0.0,0.0,0.0,0.0,0.0,0.0,0.0,0.0,0.0,0.0,0.0,0.0,0.0,0.0,0.0,0.0,0.0,0.0,0.0,0.0,0.0,0.0,0.0,0.0,0.0,-0.5449,0.0,0.0,0.0,0.0,0.0,0.0,0.0,0.0,0.0,0.0,0.0,0.0,0.0,0.0,-0.8058,-0.8333,-0.9206,-0.9768,0.0,0.0,-0.9244,-1.0028,-1.0309,-1.0571,0.0,0.0,0.0,0.0,0.0,0.0,0.0,0.0,0.0,0.0,0.0,0.0,0.0,0.0,0.0,0.0,0.0,0.0,0.0,0.0,0.0,0.0,0.0,0.0,0.0,0.0,0.0,0.0,0.0,0.0,0.0,0.0,0.0,0.0,0.0,0.0,0.0,0.0,0.0,0.0,0.0,0.0,0.0,0.0,0.0,0.0,0.0,0.0,0.0,0.0,0.0,0.0,0.0,0.0,0.0,-0.844,-0.8986,-0.9488,-0.9979,-0.9992,-1.0084,-1.0194,-1.0592,-1.0904,0.0,0.0,0.0,0.0,0.0,0.0,0.0,0.0,0.0,0.0,0.0,0.0,0.0,0.0,0.0,0.0,0.0,0.0,0.0,0.0,0.0,0.0,0.0,0.0,0.0,0.0,0.0,0.0,0.0,0.0,0.0,0.0,0.0,0.0,0.0,0.0,0.0,0.0,0.0,0.0,0.0,-0.8068,-0.7617,-0.8786,-0.9314,0.0,0.0,-0.9737,-0.9575,-1.0458,-1.115,-1.123,0.0,0.0,0.0,0.0,0.0,0.0,0.0,0.0,0.0,0.0,0.0,0.0,0.0,0.0,0.0,0.0,0.0,0.0,0.0,0.0,0.0,0.0,0.0,0.0,0.0,0.0,0.0,0.0,0.0,0.0,0.0,0.0,0.0,0.0,0.0,0.0,0.0,0.0,0.0,0.0,0.0,0.0,0.0,0.0,0.0,0.0,0.0,0.0,0.0,0.0,0.0,0.0,0.0,-0.8338,-0.9029,-0.9761,-1.0315,-1.0762,-1.0606,-1.0762,-1.1368,-1.1792,-1.211,0.0,0.0,0.0,0.0,0.0,0.0,0.0,0.0,0.0,0.0,0.0,0.0,0.0,0.0,0.0,0.0,0.0,0.0,0.0,0.0,0.0,0.0,0.0,0.0,0.0,0.0,0.0,0.0,-0.6723,-0.6339,-0.5684,0.0,0.0,0.0,0.0,0.0,0.0,0.0,0.0,0.0,0.0,-0.7405,-0.719,-0.7796,0.0,0.0,-0.8513,-0.9002,-0.9515,-1.0381,-1.0963,-1.1123,-1.1431,0.0,0.0,0.0,0.0,0.0,0.0,0.0,0.0,0.0,0.0,0.0,0.0,0.0,0.0,0.0,0.0,0.0,0.0,0.0,0.0,0.0,0.0,0.0,0.0,0.0,0.0,0.0,0.0,0.0,0.0,0.0,0.0,0.0,0.0,0.0,0.0,0.0,0.0,0.0,0.0,0.0,0.0,0.0,0.0,0.0,0.0,0.0,0.0,0.0,0.0,0.0,0.0,-0.9023,-0.9434,-1.0314,-1.0902,-1.1254,-1.1079,-1.1414,-1.2283,-1.2628,-1.2997,0.0,0.0,0.0,0.0,0.0,0.0,0.0,0.0,0.0,0.0,0.0,0.0,0.0,0.0,0.0,0.0,0.0,0.0,0.0,0.0,0.0,0.0,0.0,0.0,0.0,0.0,0.0,0.0,-0.7308,-0.6801,-0.5905,0.0,0.0,0.0,0.0,0.0,0.0,0.0,0.0,0.0,0.0,-0.7126,-0.7252,-0.7518,-0.7893,-0.8259,-0.8429,-0.8777,-0.9627,-1.0404,-1.1003,-1.1135,0.0,0.0,0.0,0.0,0.0,0.0,0.0,0.0,0.0,0.0,0.0,0.0,0.0,0.0,0.0,0.0,0.0,0.0,0.0,0.0,0.0,0.0,0.0,0.0,0.0,0.0,0.0,0.0,0.0,0.0,-0.5069,0.0,0.0,0.0,0.0,0.0,0.0,0.0,0.0,0.0,0.0,0.0,0.0,0.0,0.0,0.0,0.0,0.0,0.0,0.0,0.0,0.0,0.0,-0.9149,-0.9785,-1.0641,-1.1231,-1.1423,-1.1577,-1.2032,-1.274,-1.2812,-1.3175,-1.3965,0.0,0.0,0.0,0.0,0.0,0.0,0.0,0.0,0.0,0.0,0.0,0.0,0.0,0.0,0.0,0.0,0.0,0.0,0.0,0.0,0.0,0.0,0.0,0.0,0.0,0.0,-0.7716,-0.7225,-0.6722,0.0,0.0,0.0,0.0,0.0,0.0,0.0,0.0,0.0,0.0,-0.7104,-0.7358,-0.7755,-0.8163,-0.8452,-0.8685,-0.9194,-0.9645,-0.9765,-1.0578,-1.1263,0.0,0.0,0.0,0.0,0.0,0.0,0.0,0.0,0.0,0.0,0.0,0.0,0.0,0.0,0.0,0.0,0.0,0.0,0.0,0.0,0.0,0.0,0.0,0.0,0.0,0.0,0.0,-0.6706,-0.6762,0.0,0.0,0.0,0.0,0.0,0.0,0.0,0.0,0.0,0.0,0.0,-0.5437,-0.5555,0.0,0.0,0.0,0.0,0.0,0.0,0.0,0.0,0.0,0.0,0.0,0.0,-0.9887,-1.0626,-1.1066,-1.1704,-1.2533,-1.2197,-1.239,-1.3324,-1.3632,-1.4276,-1.5228,0.0,0.0,0.0,0.0,0.0,0.0,0.0,0.0,0.0,0.0,0.0,0.0,0.0,0.0,0.0,0.0,0.0,0.0,0.0,0.0,0.0,0.0,0.0,0.0,0.0,-0.8648,0.0,0.0,0.0,0.0,0.0,0.0,0.0,0.0,0.0,0.0,0.0,-0.7005,-0.7665,-0.7763,-0.7829,-0.7968,-0.85,-0.8938,0.0,0.0,0.0,0.0,0.0,0.0,0.0,0.0,0.0,0.0,0.0,0.0,0.0,0.0,-1.1075,-1.0698,-1.0852,-1.1117,-1.1252,0.0,0.0,0.0,0.0,0.0,0.0,0.0,0.0,0.0,0.0,0.0,0.0,0.0,0.0,-0.7794,0.0,-0.7744,0.0,0.0,0.0,0.0,0.0,0.0,0.0,0.0,-0.6986,-0.6924,-0.6736,-0.6807,-0.6773,0.0,-0.7004,-0.7087,0.0,0.0,0.0,0.0,0.0,0.0,0.0,0.0,-1.0126,-1.0952,-1.1344,-1.1961,-1.2869,-1.2568,-1.2852,-1.38,-1.4496,-1.5319,-1.6305,-1.6073,-1.5691,0.0,0.0,0.0,0.0,0.0,0.0,0.0,0.0,0.0,0.0,0.0,0.0,0.0,0.0,0.0,0.0,0.0,0.0,0.0,0.0,0.0,0.0,0.0,-0.9244,0.0,0.0,0.0,0.0,0.0,0.0,0.0,0.0,0.0,-0.7616,-0.7485,-0.7593,-0.8134,-0.8231,-0.8275,-0.85,0.0,0.0,0.0,0.0,0.0,0.0,0.0,-1.1339,-1.1347,-1.1643,-1.1906,-1.1974,-1.1815,-1.1617,-1.1349,0.0,0.0,-1.1324,-1.1486,-1.1691,-1.1864,-1.1594,-1.1424,-1.155,-1.1386,-1.1304,0.0,0.0,0.0,0.0,0.0,0.0,0.0,0.0,-0.8789,-0.8906,0.0,-0.9143,0.0,0.0,0.0,0.0,0.0,0.0,0.0,0.0,-0.8593,-0.8616,-0.8667,-0.8538,-0.8493,-0.8404,-0.7892,-0.8146,-0.9057,-0.881,0.0,0.0,0.0,0.0,0.0,0.0,-1.005,-1.0763,-1.1411,-1.1978,-1.2554,-1.2793,-1.3392,-1.4299,-1.5271,-1.6213,-1.7089,-1.6488,-1.6211,-1.6506,-1.5902,0.0,0.0,0.0,0.0,0.0,0.0,0.0,0.0,0.0,0.0,0.0,0.0,0.0,0.0,0.0,0.0,0.0,0.0,0.0,0.0,-0.9814,0.0,0.0,0.0,0.0,0.0,0.0,0.0,0.0,0.0,0.0,-0.7737,-0.7918,-0.8245,-0.8411,0.0,0.0,0.0,0.0,-0.9785,-1.0551,-1.0752,-1.0898,-1.1168,-1.1373,-1.1562,-1.1757,0.0,0.0,-1.1949,-1.1776,-1.1589,-1.163,-1.1805,-1.1956,-1.1822,-1.1916,-1.1985,-1.1995,-1.1775,-1.1608,-1.1589,-1.1611,-1.1564,-0.8139,0.0,0.0,0.0,0.0,-0.8262,-0.8643,-0.9068,-0.956,-0.975,-0.9753,-0.9877,0.0,0.0,0.0,0.0,0.0,0.0,-0.8868,-0.8921,-0.8862,-0.8871,-0.8924,-0.8734,-0.8701,-0.8825,-0.9139,-0.9484,-0.9724,-1.0287,-1.0097,-0.9367,0.0,0.0,0.0,0.0,-1.0857,-1.1725,-1.2108,-1.2563,-1.3189,-1.3322,-1.3899,-1.4869,-1.5812,-1.6607,-1.7205,-1.7268,-1.7216,-1.6991,-1.6502,0.0,0.0,0.0,0.0,0.0,0.0,0.0,0.0,0.0,0.0,0.0,0.0,0.0,0.0,0.0,0.0,0.0,0.0,0.0,-1.0409,-1.0373,-1.0151,0.0,0.0,0.0,0.0,0.0,0.0,0.0,0.0,0.0,-0.8786,-0.8677,-0.8744,0.0,0.0,-0.9554,-0.9759,-1.033,-1.0864,-1.1222,0.0,0.0,0.0,-1.165,-1.1569,-1.1632,-1.1821,-1.1959,-1.1732,-1.1809,-1.1827,-1.1667,-1.1637,-1.1699,-1.1725,-1.2018,-1.2335,-1.2344,-1.2105,-1.1876,-1.1909,-1.1712,-1.1622,-0.9562,-0.9319,-0.888,-0.8735,-0.8884,-0.9241,-0.9753,-1.0319,-1.0523,-1.0646,-1.0826,-1.0718,-1.038,-0.9909,-0.9746,0.0,0.0,0.0,-0.9835,-0.996,-0.9869,-0.9843,-0.9888,-0.9761,-0.9703,-0.9828,-0.9958,-1.0148,-1.0528,-1.0787,-1.0798,-1.0492,0.0,0.0,-1.0576,-1.0692,-1.1316,-1.2336,-1.2515,-1.2974,-1.3846,-1.4268,-1.4694,-1.5108,-1.5994,-1.6729,-1.7199,-1.7591,-1.7672,-1.7429,-1.7469,-1.6976,0.0,0.0,0.0,0.0,0.0,0.0,0.0,0.0,0.0,0.0,0.0,-1.2942,-1.2388,0.0,0.0,0.0,-1.1306,-1.1077,-1.0988,-1.1062,0.0,0.0,0.0,0.0,0.0,0.0,0.0,-0.9122,-0.9259,-0.9304,-0.9392,-0.926,-0.9311,-0.9677,-0.9995,-1.0126,-1.0246,0.0,-1.1371,-1.1492,-1.1593,-1.1657,-1.1842,-1.1692,-1.1622,-1.1622,-1.171,-1.1783,-1.1678,-1.1721,-1.1772,-1.1619,-1.1622,-1.1622,-1.1622,-1.1889,-1.2171,-1.2148,-1.2,-1.1882,-1.1861,-1.1728,-1.1622,-1.0986,-1.1436,-1.0387,-1.0084,-1.0326,-1.0511,-1.1085,-1.183,-1.1542,-1.1655,-1.2012,-1.1666,-1.1203,-1.0739,-1.0387,0.0,0.0,-1.0743,-1.0954,-1.1556,-1.1247,-1.1185,-1.1306,-1.1181,-1.1122,-1.1122,-1.0471,-1.0531,-1.1237,-1.0787,-1.0909,-1.1615,-1.1439,-1.135,-1.1398,-1.1188,-1.1652,-1.2818,-1.2889,-1.344,-1.454,-1.5473,-1.5787,-1.5383,-1.6162,-1.6842,-1.7306,-1.7659,-1.7834,-1.7882,-1.8522,-1.8214,-1.6804,0.0,0.0,0.0,0.0,0.0,0.0,0.0,0.0,0.0,0.0,0.0,0.0,0.0,0.0,0.0,-1.2425,0.0,-1.1663,-1.1764,0.0,0.0,0.0,-1.145,-1.0578,-1.0284,-0.9961,-0.9434,0.0,0.0,-0.9591,0.0,-0.9908,-0.9967,-1.0262,-1.0538,-1.0641,-1.108,-1.1421,-1.1524,-1.1436,-1.1439,-1.1593,-1.1637,-1.1622,-1.1622,-1.1622,-1.1637,-1.1567,-1.1567,-1.1626,-1.1622,-1.1622,-1.1622,-1.1622,-1.1652,-1.1622,-1.16,-1.1645,-1.1634,-1.1586,-1.1637,-1.1622,-1.1479,-1.1764,-1.1977,-1.2019,-1.1962,-1.2153,-1.2387,-1.2577,-1.2585,-1.2646,-1.2757,-1.2761,-1.2411,-1.1844,-1.1178,-1.0949,-1.1064,-1.0975,-1.1131,-1.1347,-1.1178,-1.1254,-1.1498,-1.1306,-1.131,-1.1435,-1.1306,-1.1365,-1.156,-1.1841,-1.2027,-1.2174,-1.2696,-1.2529,-1.1806,-1.2336,-1.2987,-1.3787,-1.414,-1.4889,-1.6114,-1.6384,-1.6804,-1.7433,-1.7581,-1.7889,-1.8372,-1.8383,-1.8347,-1.8314,-1.8645,-1.8643,-1.8344,-1.7955,0.0,0.0,0.0,0.0,0.0,0.0,0.0,0.0,0.0,-1.4816,-1.3951,0.0,-1.4139,0.0,-1.2627,-1.224,-1.1926,-1.2087,0.0,0.0,-1.1941,-1.1733,-1.1526,-1.0978,-1.0509,-1.0473,-1.006,-0.9777,-0.9838,-0.9844,-0.9999,-1.0185,-1.0446,-1.0779,-1.1286,-1.1408,-1.1517,-1.1556,-1.1552,-1.156,-1.1622,-1.1622,-1.1622,-1.1622,-1.1622,-1.1622,-1.1622,-1.1622,-1.1622,-1.1622,-1.1622,-1.1622,-1.1622,-1.1622,-1.1622,-1.1622,-1.1622,-1.1622,-1.1622,-1.1622,-1.1622,-1.2212,-1.2696,-1.3074,-1.3377,-1.3558,-1.3187,-1.3126,-1.3433,-1.3252,-1.3377,-1.3618,-1.3437,-1.313,-1.2826,-1.2382,-1.2154,-1.2146,-1.2177,-1.2062,-1.1843,-1.174,-1.167,-1.1622,-1.1798,-1.1911,-1.2039,-1.2293,-1.2413,-1.2474,-1.2769,-1.2891,-1.2846,-1.3563,-1.3661,-1.3191,-1.3438,-1.4043,-1.4861,-1.559,-1.6395,-1.7308,-1.7575,-1.7964,-1.8416,-1.8387,-1.8465,-1.8715,-1.8554,-1.8485,-1.8506,-1.9128,-1.9376,-1.9142,-1.9094,-1.8687,0.0,0.0,0.0,0.0,0.0,0.0,0.0,0.0,0.0,0.0,0.0,-1.4683,0.0,-1.342,0.0,-1.2318,-1.274,-1.2998,-1.2669,-1.2588,-1.2462,-1.226,-1.184,-1.1468,-1.1239,-1.0787,-1.0492,-1.0492,-1.0323,-1.0419,-1.083,-1.0855,-1.0998,-1.1387,-1.1542,-1.1725,-1.1619,-1.1622,-1.1622,-1.1622,-1.1622,-1.1622,-1.1622,-1.1622,-1.1622,-1.1622,-1.1622,-1.1622,-1.1622,-1.1622,-1.1622,-1.1622,-1.1622,-1.1622,-1.1622,-1.1622,-1.1622,-1.1622,-1.1622,-1.1622,-1.3065,-1.3687,-1.3812,-1.4304,-1.4916,-1.3923,-1.3795,-1.4268,-1.3923,-1.4048,-1.4588,-1.3932,-1.3627,-1.3631,-1.3571,-1.347,-1.3466,-1.3507,-1.3178,-1.2651,-1.2617,-1.2343,-1.1868,-1.2401,-1.261,-1.2566,-1.3231,-1.3481,-1.3442,-1.3541,-1.3623,-1.3623,-1.4341,-1.4801,-1.4931,-1.4819,-1.5195,-1.6084,-1.7059,-1.7815,-1.828,-1.8865,-1.913,-1.9094,-1.9061,-1.8995,-1.8938,-1.8796,-1.8749,-1.8798,-1.988,-2.0252,-1.9684,-2.0292,-2.0112,0.0,-1.8585,0.0,0.0,0.0,0.0,0.0,0.0,0.0,0.0,-1.5395,-1.491,-1.3835,-1.4392,-1.4163,-1.2784,-1.3479,-1.3742,-1.3152,-1.3267,-1.3147,-1.2629,-1.2556,-1.2261,-1.1742,-1.1379,-1.1158,-1.1075,-1.0874,-1.0926,-1.1289,-1.1225,-1.1098,-1.1142,-1.1525,-1.1761,-1.1531,-1.1538,-1.1608,-1.1556,-1.1582,-1.1622,-1.1622,-1.1677,-1.1681,-1.1743,-1.1802,-1.1864,-1.1864,-1.1864,-1.174,-1.174,-1.1681,-1.1622,-1.1622,-1.1622,-1.1622,-1.1622,-1.1622,-1.1622,-1.3446,-1.3748,-1.4483,-1.4911,-1.5152,-1.5005,-1.501,-1.5024,-1.5001,-1.5118,-1.5181,-1.4588,-1.4346,-1.4286,-1.376,-1.3485,-1.3494,-1.3459,-1.3408,-1.3326,-1.33,-1.3264,-1.3143,-1.3264,-1.3164,-1.2852,-1.3245,-1.3357,-1.3011,-1.3901,-1.4227,-1.4094,-1.5313,-1.6037,-1.6182,0.0,0.0,0.0,-1.84,-1.9098,-1.9333,-1.9756,-2.0215,-2.0728,-2.0361,0.0,-2.0766,-2.0308,-2.0035,-2.007,-2.0723,0.0,0.0,0.0,0.0,0.0,0.0,0.0,0.0,0.0,0.0,0.0,-1.7266,-1.6785,-1.6051,-1.541,-1.4807,-1.421,-1.4378,-1.4351,-1.3801,-1.3655,-1.353,-1.3403,-1.3002,-1.2633,-1.2495,-1.2082,-1.1725,-1.1649,-1.118,-1.0801,-1.0868,-1.0751,-1.075,-1.086,-1.0853,-1.0739,-1.0702,-1.1054,-1.1235,-1.1191,-1.1417,-1.1497,-1.1269,-1.1431,-1.156,-1.1681,-1.2039,-1.2254,-1.2235,-1.2687,-1.3074,-1.3005,-1.2712,-1.227,-1.2274,-1.1915,-1.1622,-1.1622,-1.1622,-1.1622,-1.1622,-1.1622,-1.1622,-1.3767,0.0,-1.4427,-1.4659,0.0,-1.4958,-1.5055,-1.5017,-1.5269,-1.5415,-1.541,-1.5059,-1.4942,-1.4937,-1.4591,-1.446,-1.4455,-1.446,-1.4305,-1.4014,-1.3994,-1.3803,-1.3511,-1.3868,-1.389,-1.3704,-1.3996,-1.4167,-1.4157,-1.4792,-1.5128,-1.526,-1.6239,-1.6917,-1.7318,-1.8244,-1.866,-1.8502,-1.9157,-1.9811,-2.0472,-2.0666,-2.1013,-2.1547,0.0,0.0,0.0,0.0,0.0,0.0,0.0,0.0,0.0,0.0,0.0,-2.0891,-1.9827,-1.91,-1.8808,-1.8185,-1.7936,-1.8236,-1.7672,-1.7032,-1.639,-1.5848,-1.5259,-1.4641,-1.5187,-1.5183,-1.4363,-1.4447,-1.4218,-1.3631,-1.3176,-1.2845,-1.2522,-1.2241,-1.204,-1.2012,-1.163,-1.133,-1.1327,-1.1049,-1.0923,-1.0867,-1.0738,-1.0603,-1.0432,-1.0624,-1.0832,-1.0836,-1.0956,-1.1022,-1.0891,-1.0953,-1.1144,-1.1137,-1.1364,-1.1535,-1.1535,-1.1983,-1.233,-1.2289,-1.2165,-1.2039,-1.2039,-1.1798,-1.1696,-1.1983,-1.2018,-1.2166,-1.2413,-1.2286,-1.2035,-1.3894,-1.4007,-1.4115,-1.4194,-1.4175,-1.471,-1.5043,-1.5249,0.0,0.0,0.0,-1.5415,-1.5415,-1.5415,-1.5415,-1.5415,-1.5415,-1.5415,-1.5114,-1.4655,-1.465,-1.435,-1.3859,-1.4401,-1.4632,-1.4599,-1.4794,-1.5041,-1.5337,-1.5682,-1.5991,-1.6387,-1.7097,-1.7801,-1.8378,-1.9183,-1.9554,-1.9453,-1.9704,-2.0365,-2.1319,-2.1416,-2.165,-2.1996,-2.1654,-2.138,-2.129,-2.0925,-2.0716,-2.0723,-2.1159,-2.1471,-2.1492,-2.1811,-2.1781,-2.1236,-2.0503,-1.9965,-1.9723,-1.9046,-1.8742,-1.8957,-1.799,-1.7162,-1.6565,-1.6216,-1.5701,-1.5012,-1.5899,-1.5974,-1.4762,-1.5073,-1.4932,-1.377,-1.3443,-1.3049,-1.2602,-1.2417,-1.2321,-1.2317,-1.204,-1.1858,-1.1774,-1.1363,-1.1011,-1.0891,-1.0617,-1.0382,-1.0141,-1.0294,-1.047,-1.0408,-1.0532,-1.0602,-1.0521,-1.0762,-1.0747,-1.0868,-1.1016,-1.1035,-1.1138,-1.143,-1.1744,-1.2094,-1.1999,-1.2162,-1.2028,-1.1997,-1.1985,-1.2347,-1.2421,-1.2606,-1.3059,-1.2901,-1.2618,-1.3488,-1.3602,-1.3742,-1.4126,-1.4629,-1.529,-1.6087,-1.6765,-1.5828,-1.5415,-1.5415,-1.5415,-1.5415,-1.5415,-1.5415,-1.5415,-1.5415,-1.5415,-1.5342,0.0,-1.5284,-1.523,-1.5113,-1.523,-1.5133,-1.4905,-1.5207,-1.5261,-1.5172,-1.5922,-1.631,-1.6574,-1.7888,-1.8946,-1.9428,-1.9111,-1.9153,-1.9593,-2.0397,-2.095,-2.1229,-2.1568,-2.1855,-2.199,-2.2046,-2.2058,-2.2044,-2.1967,-2.1931,-2.1938,-2.2009,-2.2097,-2.2051,-2.2128,-2.2142,-2.2018,-2.1479,-2.1143,-2.1094,-2.0192,-1.942,-1.9028,-1.8375,-1.7545,-1.643,-1.5808,-1.5444,-1.5322,-1.5537,-1.5542,-1.5236,-1.4966,-1.4629,-1.43,-1.3346,-1.2601,-1.2519,-1.2096,-1.1866,-1.1866,-1.1659,-1.1589,-1.1448,-1.1207,-1.0909,-1.046,-1.0357,-1.0111,-0.9901,-0.9961,-1.0027,-0.9907,-1.0236,-1.0419,-1.0313,-1.0852,-1.1056,-1.131,-1.1989,-1.2341,-1.2278,-1.2979,-1.3562,-1.4054,-1.3637,-1.3593,-1.3316,-1.3027,-1.2589,-1.2364,-1.2286,-1.2418,-1.2589,-1.2833,-1.3049,-1.3769,-1.4081,-1.4225,-1.4337,-1.4466,-1.5076,-1.5683,-1.6256,-1.5729,-1.5639,-1.5906,-1.5911,-1.5911,-1.5916,-1.5859,-1.6056,-1.64,-1.6394,-1.6384,-1.6393,-1.6389,-1.6368,-1.6342,-1.6063,-1.5891,-1.5691,-1.5383,-1.541,-1.5758,-1.6274,-1.6906,-1.7712,-1.8826,-1.9298,-1.9269,-1.9232,-1.9293,-1.94,-2.0265,-2.0881,-2.127,-2.1948,-2.2296,-2.2388,-2.2625,-2.2821,-2.2776,-2.2776,-2.2716,-2.2487,-2.2487,-2.2402,-2.2231,-2.217,-2.217,-2.2177,-2.1712,-2.141,-2.141,-2.0409,-1.9695,-1.9448,-1.8578,-1.7869,-1.7307,-1.6415,-1.5853,-1.5859,-1.5584,-1.5415,-1.5415,-1.5172,-1.4874,-1.4533,-1.3919,-1.3429,-1.3074,-1.283,-1.2654,-1.2593,-1.2282,-1.2158,-1.237,-1.1493,-1.0911,-1.0825,-1.0593,-1.032,-1.0407,-1.057,-1.042,-0.9781,-0.987,-0.9972,-0.9874,-1.0161,-1.0417,-1.0424,-1.0858,-1.1223,-1.1247,-1.1906,-1.2231,-1.2278,-1.235,-1.2336,-1.213,-1.2122,-1.2105,-1.2402,-1.2572,-1.2811,-1.3148,-1.3317,-1.3401,-1.4112,-1.4504,-1.4601,-1.466,-1.4611,-1.5165,-1.5592,-1.6014,-1.5991,-1.6134,-1.6337,-1.6324,-1.6367,-1.6528,-1.6472,-1.6745,-1.7148,-1.7075,-1.7049,-1.717,-1.7098,-1.7092,-1.7142,-1.6662,-1.6474,-1.6486,-1.5709,-1.5717,-1.6467,-1.6783,-1.7747,-1.9163,-1.9638,-1.9655,-1.9479,-1.9535,-1.9461,-1.931,-2.0045,-2.0722,-2.1267,-2.1981,-2.2416,-2.262,-2.29,-2.3047,-2.3047,-2.3187,-2.3106,-2.2656,-2.2765,-2.2663,-2.2356,-2.231,-2.2263,-2.2177,-2.18,-2.1513,-2.1375,-2.066,-2.0112,-1.9952,-1.905,-1.8465,-1.8405,-1.7363,-1.6631,-1.6477,-1.6135,-1.5806,-1.5637,-1.5633,-1.5347,-1.4765,-1.4592,-1.4227,-1.3808,-1.3631,-1.3511,-1.3446,-1.307,-1.2923,-1.299,-1.1989,-1.1155,-1.1122,-1.0886,-1.0726,-1.0846,-1.0897,-1.0588,-0.9976,-0.9769,-0.9951,-0.9821,-0.9991,-1.0007,-0.9825,-1.0003,-1.024,-1.0283,-1.0375,-1.0616,-1.0988,-1.1055,-1.1335,-1.118,-1.1471,-1.191,-1.2299,-1.2686,-1.3218,-1.3537,-1.3452,-1.3452,-1.4089,-1.4235,-1.435,-1.4852,-1.5739,-1.625,-1.6699,-1.7139,-1.7248,-1.6939,-1.6525,-1.6414,-1.6678,-1.7058,-1.7135,-1.7151,-1.7219,-1.67,-1.6787,-1.7197,-1.6689,-1.6721,-1.7225,-1.6694,-1.6664,-1.6997,-1.6521,-1.6499,-1.7119,-1.7628,-1.8859,-2.0504,-2.0257,-2.0344,-2.0836,-1.9941,-1.9426,-1.9397,-2.0011,-2.0593,-2.1181,-2.1317,-2.1674,-2.2326,-2.2398,-2.2383,-2.2398,-2.2951,-2.2995,-2.2458,-2.2915,-2.3031,-2.2694,-2.2656,-2.2533,-2.2224,-2.213,-2.1935,-2.1471,-2.1313,-2.1019,-2.056,-1.9946,-1.9579,-1.9598,-1.862,-1.7699,-1.7307,-1.709,-1.6703,-1.6301,-1.6192,-1.5911,-1.5294,-1.4824,-1.4469,-1.435,-1.3868,-1.3511,-1.3511,-1.3506,-1.3327,-1.3208,-1.2611,-1.1755,-1.0724,-1.0927,-1.0791,-1.0281,-1.049,-1.0498,-1.0024,-1.0383,-1.0749,-1.0502,-1.0749,-1.0588,-1.034,-1.0694,-1.074,-1.0806,-1.1162,-1.1807,-1.1576,-1.2079,-1.2032,-1.2179,-1.2547,-1.2378,-1.2259,-1.2538,-1.2993,-1.3032,-1.3047,-1.3047,-1.5421,-1.5946,-1.5952,-1.6218,-1.6691,-1.6885,-1.7068,-1.727,-1.7283,-1.7311,-1.7375,-1.7355,-1.7504,-1.7716,-1.7722,-1.7926,-1.8269,-1.8346,-1.8334,-1.8339,-1.8679,-1.8812,-1.8647,-1.816,-1.7821,-1.7626,-1.7125,-1.7091,-1.7656,-1.8618,-1.9614,-2.0459,-2.0299,-2.036,-2.0612,-1.9855,-1.9472,-1.9646,-1.9878,-2.0323,-2.0912,-2.1347,-2.1883,-2.251,-2.2377,-2.2498,-2.2838,-2.3149,-2.29,-2.2155,-2.3014,-2.3127,-2.2169,-2.2731,-2.2806,-2.2263,-2.217,-2.2077,-2.1902,-2.1554,-2.1313,-2.1062,-2.056,-2.0258,-2.0251,-1.9825,-1.9347,-1.8715,-1.7792,-1.6978,-1.6415,-1.6301,-1.6078,-1.5522,-1.5177,-1.5059,-1.5005,-1.4819,-1.4642,-1.4583,-1.4282,-1.4177,-1.4225,-1.3541,-1.2256,-1.0928,-1.0858,-1.1011,-1.0643,-1.1049,-1.1108,-1.0846,-1.1506,-1.156,-1.0753,-1.0237,-1.0336,-1.0391,-1.0289,-1.0285,-1.0679,-1.0843,-1.1177,-1.1751,-1.1761,-1.1769,-1.1674,-1.2158,-1.2291,-1.2234,-1.2534,-1.2886,-1.2886,-1.2886,-1.2886,-1.6441,-1.7067,-1.715,-1.7205,-1.7205,-1.7205,-1.7205,-1.7205,-1.7205,-1.7427,-1.777,-1.7939,-1.8195,-1.8492,-1.8527,-1.8882,-1.9452,-1.9711,-1.9566,-1.9266,-1.9846,-1.9911,-1.952,-1.9015,-1.8649,-1.8372,-1.7866,-1.7834,-1.8328,-1.938,-2.017,-2.0411,-2.045,-2.0488,-2.0527,-2.0102,-1.997,-2.0073,-2.0245,-2.0554,-2.096,-2.14,-2.1979,-2.2578,-2.2428,-2.2487,-2.2855,-2.3072,-2.2794,-2.2039,-2.3038,-2.3248,-2.2374,-2.3002,-2.3179,-2.2586,-2.2495,-2.2495,-2.2502,-2.2023,-2.1732,-2.1691,-2.1195,-2.0815,-2.0815,-2.0709,-2.0403,-1.9946,-1.8715,-1.7682,-1.6917,-1.6805,-1.6528,-1.5974,-1.5911,-1.5859,-1.5685,-1.5637,-1.5575,-1.5405,-1.4942,-1.4765,-1.4859,-1.4098,-1.2882,-1.152,-1.1524,-1.1663,-1.1485,-1.1749,-1.1868,-1.1351,-1.1914,-1.1805,-1.085,-1.0643,-1.0435,-1.0186,-1.0135,-1.0035,-1.0142,-1.0194,-1.0399,-1.0949,-1.0972,-1.1167,-1.1433,-1.1759,-1.2215,-1.2368,-1.2594,-1.2832,-1.2886,-1.2812,-1.2773,-1.6795,-1.6886,-1.7102,-1.7247,-1.7247,-1.7247,-1.724,-1.7288,-1.7247,-1.7267,-1.7433,-1.7869,-1.8616,-1.9607,-1.9672,-1.9976,-2.0377,-2.0074,-1.9839,-1.9708,-1.9336,-1.912,-1.9169,-1.8699,-1.8774,-1.9234,-1.8793,-1.8838,-1.9339,-1.9965,-2.0435,-2.0745,-2.0812,-2.0962,-2.1226,-2.1247,-2.1093,-2.0939,-2.1413,-2.1601,-2.1335,-2.1366,-2.173,-2.2269,-2.2294,-2.2159,-2.205,-2.25,-2.2623,-2.2263,-2.2932,-2.3402,-2.3586,-2.3671,-2.3522,-2.3209,-2.3187,-2.3209,-2.3135,-2.2727,-2.2529,-2.2512,-2.182,-2.1361,-2.1361,-2.1013,-2.0709,-2.0566,-1.9991,-1.9202,-1.8244,-1.7918,-1.7595,-1.7096,-1.704,-1.6821,-1.6306,-1.6197,-1.5968,-1.5575,-1.5347,-1.4931,-1.4316,-1.4111,-1.347,-1.2738,-1.2898,-1.2875,-1.1956,-1.1961,-1.18,-1.1401,-1.1301,-1.1255,-1.1204,-1.115,-1.1103,-1.0901,-1.06,-1.0293,-0.9877,-0.9721,-1.0079,-1.0387,-1.0799,-1.1108,-1.1259,-1.1642,-1.2213,-1.2473,-1.2537,-1.269,-1.2596,-1.2417,-1.2373,-1.7304,-1.7686,-1.7774,-1.7902,-1.8022,-1.8022,-1.8029,-1.8029,-1.8029,-1.8022,-1.8165,-1.8899,-1.9705,-2.0522,-2.1102,-2.1087,-2.0678,-2.0751,-2.0745,-2.0621,-2.0674,-2.066,-2.0457,-1.9914,-1.948,-1.9389,-1.924,-1.9435,-1.9945,-2.02,-2.0589,-2.113,-2.1618,-2.1901,-2.2057,-2.2484,-2.2625,-2.2551,-2.2768,-2.2694,-2.2403,-2.2328,-2.2341,-2.2277,-2.1886,-2.1811,-2.2096,-2.2353,-2.2239,-2.1706,-2.2687,-2.2962,-2.2317,-2.2592,-2.2631,-2.2409,-2.249,-2.2576,-2.2576,-2.228,-2.2232,-2.2613,-2.221,-2.1888,-2.1888,-2.1739,-2.1499,-2.1166,-2.0963,-2.0446,-1.9722,-1.878,-1.7869,-1.7374,-1.7207,-1.7196,-1.6872,-1.6533,-1.6192,-1.5974,-1.568,-1.4949,-1.4126,-1.3858,-1.3475,-1.2155,-1.2236,-1.2259,-1.1818,-1.1795,-1.1923,-1.146,-1.151,-1.161,-1.1204,-1.1309,-1.136,-1.1414,-1.1263,-1.1158,-1.0897,-1.0795,-1.1103,-1.1305,-1.146,-1.1629,-1.1958,-1.1838,-1.233,-1.229,-1.2363,-1.2283,-1.2072,-1.2059,-1.2094,-1.8075,-1.8535,-1.8581,-1.8659,-1.8781,-1.8774,-1.8774,-1.8781,-1.8774,-1.8919,-1.9201,-1.9846,-2.0589,-2.134,-2.2024,-2.204,-2.1531,-2.186,-2.1809,-2.1491,-2.1535,-2.1437,-2.1072,-2.0466,-1.999,-1.9757,-1.979,-2.0112,-2.0565,-2.0616,-2.0854,-2.1317,-2.2053,-2.2386,-2.2557,-2.3447,-2.3933,-2.3885,-2.4133,-2.4116,-2.3756,-2.3714,-2.3557,-2.3167,-2.2718,-2.2326,-2.219,-2.2149,-2.1956,-2.1657,-2.2447,-2.2612,-2.1913,-2.2069,-2.2139,-2.1999,-2.2134,-2.2245,-2.2196,-2.1914,-2.2024,-2.263,-2.2399,-2.2238,-2.2353,-2.2349,-2.2116,-2.1752,-2.1471,-2.1222,-2.0709,-1.967,-1.8768,-1.8323,-1.8167,-1.795,-1.7743,-1.7246,-1.6866,-1.6558,-1.593,-1.5132,-1.4284,-1.4111,-1.3513,-1.2227,-1.2406,-1.2319,-1.2108,-1.2136,-1.2269,-1.1864,-1.2121,-1.217,-1.1968,-1.2017,-1.1364,-1.1263,-1.1326,-1.1473,-1.1506,-1.156,-1.1769,-1.2067,-1.2286,-1.2448,-1.2455,-1.2229,-1.2104,-1.2002,-1.1924,-1.1861,-1.1806,-1.1842,-1.1878,-1.9035,-1.9295,-1.9391,-1.931,-1.9317,-1.931,-1.9376,-1.9347,-1.9391,-1.9721,-2.0156,-2.0447,-2.1247,-2.212,-2.2443,-2.2684,-2.3106,-2.3194,-2.2885,-2.2344,-2.1713,-2.1337,-2.1099,-2.0494,-2.0355,-2.0559,-2.0699,-2.1014,-2.1431,-2.1446,-2.1476,-2.1573,-2.2441,-2.2972,-2.2565,-2.4323,-2.4936,-2.4932,-2.5536,-2.5739,-2.5464,-2.5313,-2.5124,-2.4893,-2.4781,-2.3903,-2.2102,-2.201,-2.2072,-2.2031,-2.2229,-2.2483,-2.2552,-2.2426,-2.2285,-2.214,-2.224,-2.2278,-2.2202,-2.1886,-2.1982,-2.2615,-2.2443,-2.2353,-2.2646,-2.2709,-2.2572,-2.2163,-2.1793,-2.1471,-2.1361,-2.0901,-2.0446,-2.051,-1.9831,-1.9347,-1.8921,-1.84,-1.7814,-1.7147,-1.6356,-1.5745,-1.5476,-1.4841,-1.4177,-1.3841,-1.354,-1.332,-1.3111,-1.2943,-1.2852,-1.2779,-1.2627,-1.2372,-1.2622,-1.2779,-1.1769,-1.1015,-1.1032,-1.1137,-1.115,-1.1191,-1.1506,-1.1801,-1.1951,-1.2133,-1.2284,-1.2109,-1.1904,-1.1789,-1.1638,-1.1576,-1.1643,-1.1701,-1.1814,-1.8914,-1.9176,-1.9183,-1.9265,-1.9384,-1.9428,-1.9428,-1.9479,-1.9848,-2.0188,-2.0598,-2.1605,-2.2344,-2.2784,-2.3364,-2.3796,-2.3994,-2.3986,-2.3762,-2.3292,-2.2615,-2.2534,-2.2714,-2.2225,-2.2149,-2.2367,-2.2067,-2.2354,-2.297,-2.287,-2.3064,-2.388,-2.4799,-2.5265,-2.5218,-2.6312,-2.6797,-2.6782,-2.6981,-2.6882,-2.6346,-2.6294,-2.6001,-2.5401,-2.5349,-2.4951,-2.4323,-2.3875,-2.3678,-2.361,-2.3256,-2.2789,-2.2264,-2.2236,-2.1946,-2.1415,-2.1698,-2.1841,-2.1593,-2.1371,-2.1642,-2.2475,-2.2497,-2.2569,-2.301,-2.309,-2.2949,-2.2579,-2.2388,-2.221,-2.1983,-2.1834,-2.1389,-2.0716,-2.0453,-2.0105,-1.9521,-1.8727,-1.7918,-1.7302,-1.6905,-1.651,-1.5918,-1.5299,-1.4917,-1.4255,-1.3864,-1.3572,-1.3473,-1.3184,-1.2939,-1.2886,-1.2676,-1.2368,-1.2318,-1.2112,-1.1443,-1.1011,-1.1036,-1.1099,-1.1065,-1.1036,-1.1296,-1.155,-1.1659,-1.1752,-1.194,-1.1863,-1.159,-1.1629,-1.1631,-1.1591,-1.1593,-1.1715,-1.1908,-1.9579,-1.9859,-1.9767,-1.9866,-2.0077,-1.9995,-1.9987,-2.0177,-2.0837,-2.1193,-2.1576,-2.2693,-2.332,-2.3547,-2.4199,-2.4513,-2.455,-2.4653,-2.4649,-2.4318,-2.3534,-2.3507,-2.381,-2.3375,-2.34,-2.3737,-2.3413,-2.3644,-2.4479,-2.4284,-2.4475,-2.5199,-2.6109,-2.6542,-2.6695,-2.7423,-2.784,-2.7878,-2.7945,-2.7861,-2.7601,-2.7459,-2.7157,-2.6693,-2.6543,-2.6419,-2.6264,-2.5874,-2.5295,-2.4571,-2.3832,-2.3065,-2.2319,-2.2287,-2.1916,-2.1287,-2.1316,-2.1468,-2.1148,-2.1183,-2.1552,-2.2381,-2.2659,-2.2929,-2.3323,-2.3407,-2.3135,-2.2799,-2.2565,-2.2441,-2.2224,-2.217,-2.1881,-2.1286,-2.1006,-2.0666,-2.0093,-1.9307,-1.8549,-1.8006,-1.7486,-1.6908,-1.6286,-1.5614,-1.5229,-1.4387,-1.3899,-1.3478,-1.3339,-1.3075,-1.2925,-1.2686,-1.2382,-1.2071,-1.1764,-1.1447,-1.1023,-1.1002,-1.1095,-1.1255,-1.1293,-1.1108,-1.1196,-1.1413,-1.1561,-1.132,-1.1434,-1.119,-1.0945,-1.1209,-1.1469,-1.1223,-1.1175,-1.1929,-1.2201,-2.078,-2.1158,-2.0917,-2.0934,-2.1142,-2.0901,-2.0901,-2.1319,-2.1997,-2.2404,-2.2848,-2.3536,-2.4092,-2.4393,-2.4776,-2.4917,-2.4992,-2.5241,-2.5365,-2.5142,-2.4545,-2.4244,-2.4312,-2.4153,-2.4389,-2.4805,-2.4696,-2.4985,-2.5607,-2.5489,-2.55,-2.579,-2.6551,-2.6797,-2.7111,-2.7763,-2.821,-2.829,-2.8491,-2.8697,-2.8865,-2.8694,-2.8542,-2.8415,-2.8178,-2.7942,-2.7705,-2.749,-2.6608,-2.488,-2.421,-2.3699,-2.3052,-2.2669,-2.2237,-2.1443,-2.1339,-2.1287,-2.114,-2.1505,-2.2031,-2.2532,-2.3072,-2.3498,-2.3738,-2.3617,-2.3348,-2.292,-2.2625,-2.241,-2.2356,-2.2363,-2.2324,-2.2231,-2.1643,-2.1118,-2.0709,-2.0105,-1.9528,-1.8914,-1.81,-1.7174,-1.6583,-1.5685,-1.4974,-1.4352,-1.3855,-1.3471,-1.3205,-1.3017,-1.2676,-1.248,-1.2382,-1.2278,-1.2067,-1.1751,-1.1384,-1.1606,-1.1477,-1.1263,-1.1386,-1.1221,-1.1032,-1.1246,-1.1331,-1.1097,-1.0943,-1.079,-1.0825,-1.1167,-1.1125,-1.0736,-1.1201,-1.2073,-1.2467,-2.1174,-2.1268,-2.1214,-2.1206,-2.13,-2.1182,-2.123,-2.1397,-2.2086,-2.2797,-2.3296,-2.3971,-2.4612,-2.5166,-2.5275,-2.5357,-2.5392,-2.5486,-2.5496,-2.553,-2.557,-2.5667,-2.5947,-2.6117,-2.6359,-2.6666,-2.6255,-2.642,-2.7019,-2.6766,-2.6872,-2.7415,-2.7931,-2.8312,-2.8479,-2.8727,-2.8956,-2.8997,-2.9042,-2.9166,-2.9249,-2.9228,-2.9178,-2.9165,-2.9076,-2.8888,-2.8637,-2.8228,-2.7453,-2.6208,-2.5903,-2.5088,-2.3887,-2.3568,-2.3005,-2.201,-2.1716,-2.1802,-2.1973,-2.2149,-2.2612,-2.3366,-2.3683,-2.3865,-2.4142,-2.4094,-2.3867,-2.3602,-2.3385,-2.3253,-2.3038,-2.2927,-2.2934,-2.2873,-2.1972,-2.1328,-2.1126,-2.0703,-2.0139,-1.9538,-1.8877,-1.7904,-1.6818,-1.6043,-1.5297,-1.4498,-1.4,-1.3563,-1.3392,-1.3113,-1.2866,-1.2779,-1.273,-1.2627,-1.2471,-1.2107,-1.2004,-1.2264,-1.1895,-1.1186,-1.1301,-1.1268,-1.1127,-1.107,-1.1112,-1.0958,-1.0934,-1.0869,-1.1035,-1.1223,-1.1447,-1.149,-1.1926,-1.2621,-1.2807,-2.1415,-2.156,-2.1501,-2.157,-2.1733,-2.1905,-2.2067,-2.2374,-2.3257,-2.3819,-2.4208,-2.4811,-2.5269,-2.5478,-2.5681,-2.5745,-2.5786,-2.6071,-2.6226,-2.6286,-2.6596,-2.6756,-2.6929,-2.7236,-2.7565,-2.7833,-2.7556,-2.7736,-2.8146,-2.8042,-2.8236,-2.8521,-2.8948,-2.911,-2.9073,-2.9256,-2.935,-2.9359,-2.94,-2.9476,-2.9588,-2.9514,-2.9533,-2.9514,-2.9494,-2.9288,-2.9095,-2.8703,-2.8039,-2.7284,-2.699,-2.6453,-2.5202,-2.4704,-2.4019,-2.2929,-2.2465,-2.2362,-2.2725,-2.2931,-2.3353,-2.4023,-2.4383,-2.463,-2.4737,-2.4704,-2.4453,-2.4082,-2.3971,-2.3681,-2.3355,-2.3047,-2.2841,-2.2527,-2.1771,-2.1275,-2.1484,-2.0711,-1.998,-1.943,-1.8851,-1.8084,-1.6729,-1.6327,-1.5665,-1.4913,-1.4499,-1.4082,-1.3668,-1.3339,-1.3012,-1.2827,-1.2676,-1.2471,-1.2121,-1.171,-1.1652,-1.1963,-1.1934,-1.1186,-1.123,-1.1241,-1.1045,-1.0901,-1.0883,-1.087,-1.0863,-1.0964,-1.1255,-1.1522,-1.1923,-1.2161,-1.2437,-1.2943,-1.3098,-2.1675,-2.2036,-2.1835,-2.2011,-2.2445,-2.2797,-2.3098,-2.3718,-2.4666,-2.5145,-2.5187,-2.5778,-2.5907,-2.5709,-2.6212,-2.6272,-2.6327,-2.6893,-2.7106,-2.7235,-2.7442,-2.7577,-2.7461,-2.7687,-2.7973,-2.8219,-2.8469,-2.8682,-2.8874,-2.9101,-2.9237,-2.9247,-2.9297,-2.9367,-2.9428,-2.9476,-2.9504,-2.9558,-2.9672,-2.9782,-2.988,-2.9807,-2.9794,-2.9822,-2.9604,-2.9476,-2.9338,-2.9091,-2.8661,-2.7908,-2.7829,-2.7344,-2.661,-2.5833,-2.5006,-2.4156,-2.3258,-2.2923,-2.3459,-2.386,-2.4232,-2.4783,-2.531,-2.5532,-2.5389,-2.5105,-2.4792,-2.4479,-2.4142,-2.3829,-2.352,-2.2901,-2.252,-2.2245,-2.1458,-2.1178,-2.1262,-2.0487,-1.9473,-1.8915,-1.8455,-1.7657,-1.6926,-1.6466,-1.6126,-1.5028,-1.4669,-1.4212,-1.3842,-1.3525,-1.3055,-1.2578,-1.2377,-1.2215,-1.1714,-1.1158,-1.124,-1.1411,-1.1392,-1.1127,-1.1214,-1.1147,-1.0947,-1.078,-1.0686,-1.068,-1.073,-1.098,-1.1421,-1.1739,-1.2035,-1.2157,-1.2318,-1.3079,-1.3501,-2.2131,-2.2229,-2.218,-2.2554,-2.3139,-2.3266,-2.3693,-2.4311,-2.4633,-2.5203,-2.5517,-2.593,-2.6377,-2.6832,-2.7092,-2.7356,-2.7275,-2.7511,-2.7589,-2.764,-2.7881,-2.812,-2.8174,-2.8332,-2.8513,-2.8766,-2.9006,-2.9169,-2.9284,-2.937,-2.9391,-2.9429,-2.9657,-2.9775,-2.9791,-2.9933,-3.009,-3.0104,-3.0118,-3.0146,-3.0186,-3.0163,-3.014,-3.0159,-2.9895,-2.9718,-2.9643,-2.9406,-2.9157,-2.8916,-2.8554,-2.7985,-2.7102,-2.6248,-2.5442,-2.4573,-2.3697,-2.3623,-2.458,-2.4852,-2.5142,-2.5925,-2.5957,-2.5827,-2.5494,-2.5229,-2.4965,-2.4736,-2.4428,-2.4271,-2.4059,-2.3483,-2.3006,-2.2566,-2.1584,-2.0779,-2.0894,-2.0524,-1.9824,-1.9329,-1.8822,-1.8205,-1.7141,-1.6685,-1.6151,-1.5219,-1.4732,-1.4283,-1.4019,-1.38,-1.3377,-1.2953,-1.2808,-1.2745,-1.2407,-1.1805,-1.1465,-1.134,-1.1186,-1.0971,-1.1041,-1.0972,-1.0681,-1.0543,-1.0425,-1.0549,-1.0921,-1.1191,-1.1666,-1.1884,-1.2181,-1.2513,-1.2926,-1.3509,-1.3875,-2.2473,-2.2624,-2.2986,-2.3409,-2.391,-2.4583,-2.5117,-2.5514,-2.5876,-2.6221,-2.6531,-2.6783,-2.7078,-2.7444,-2.7621,-2.7696,-2.7744,-2.7847,-2.8058,-2.8271,-2.8478,-2.8658,-2.8927,-2.9024,-2.9177,-2.9228,-2.9418,-2.9533,-2.9605,-2.9727,-2.9861,-2.9817,-3.0008,-3.008,-3.0089,-3.0276,-3.0323,-3.0338,-3.0407,-3.0449,-3.044,-3.0462,-3.0442,-3.0391,-3.0205,-3.0079,-3.0061,-2.9751,-2.9623,-2.9467,-2.9147,-2.8644,-2.7979,-2.7191,-2.642,-2.5761,-2.4884,-2.494,-2.5756,-2.5784,-2.5871,-2.6794,-2.6556,-2.6307,-2.6087,-2.5835,-2.5652,-2.5457,-2.5267,-2.5082,-2.4847,-2.3678,-2.3202,-2.2624,-2.1393,-2.0302,-1.9982,-1.9796,-1.9606,-1.9185,-1.8833,-1.8269,-1.7624,-1.7153,-1.6672,-1.6027,-1.5826,-1.5377,-1.472,-1.4449,-1.4129,-1.38,-1.3568,-1.3377,-1.3142,-1.2633,-1.1862,-1.1579,-1.1261,-1.0951,-1.0767,-1.0622,-1.0424,-1.05,-1.0659,-1.1067,-1.1442,-1.1712,-1.1974,-1.2288,-1.2655,-1.307,-1.3464,-1.3828,-1.4188,-2.2867,-2.315,-2.3849,-2.4322,-2.484,-2.6,-2.6578,-2.6841,-2.7403,-2.7475,-2.7713,-2.7713,-2.7692,-2.778,-2.7847,-2.7856,-2.8,-2.8162,-2.8518,-2.892,-2.8966,-2.9147,-2.9392,-2.9568,-2.9684,-2.9567,-2.9763,-2.9902,-2.9994,-3.0173,-3.0196,-3.0286,-3.0321,-3.0333,-3.0355,-3.0392,-3.0448,-3.0449,-3.053,-3.0594,-3.0584,-3.0616,-3.0591,-3.0501,-3.0393,-3.0338,-3.0292,-3.0112,-2.996,-2.9941,-2.9622,-2.9379,-2.9005,-2.8331,-2.7778,-2.7409,-2.6342,-2.6231,-2.6697,-2.6629,-2.6553,-2.7243,-2.7045,-2.6882,-2.6841,-2.6624,-2.6368,-2.6158,-2.5892,-2.5578,-2.5276,-2.3975,-2.2935,-2.2241,-2.0896,-1.9822,-1.9258,-1.9079,-1.9113,-1.886,-1.8697,-1.8311,-1.8097,-1.7787,-1.7338,-1.6879,-1.668,-1.6337,-1.5629,-1.5,-1.4577,-1.417,-1.3842,-1.318,-1.2852,-1.2957,-1.2306,-1.167,-1.1333,-1.1099,-1.0681,-1.0449,-1.0462,-1.0873,-1.1175,-1.1431,-1.1842,-1.23,-1.2556,-1.2774,-1.3195,-1.3729,-1.3986,-1.418,-1.4476,-2.3343,-2.4075,-2.4215,-2.5024,-2.6159,-2.6518,-2.7003,-2.7455,-2.7672,-2.7701,-2.7742,-2.7963,-2.8075,-2.812,-2.8353,-2.8575,-2.8688,-2.8773,-2.895,-2.924,-2.9318,-2.9486,-2.9744,-2.9874,-3.0009,-3.018,-3.0232,-3.0202,-3.0241,-3.0316,-3.0383,-3.0396,-3.0489,-3.0539,-3.0539,-3.0559,-3.0559,-3.0559,-3.0606,-3.0647,-3.0666,-3.0649,-3.0655,-3.0586,-3.0511,-3.045,-3.0398,-3.0304,-3.0224,-3.0224,-3.0161,-2.9988,-2.9602,-2.8718,-2.8217,-2.7869,-2.7233,-2.7063,-2.7547,-2.723,-2.7308,-2.7667,-2.7657,-2.7504,-2.7365,-2.701,-2.6765,-2.648,-2.6048,-2.5432,-2.464,-2.3986,-2.298,-2.2088,-2.1242,-2.0418,-2.003,-1.9711,-1.931,-1.8843,-1.862,-1.8471,-1.8307,-1.8182,-1.7841,-1.729,-1.6902,-1.6563,-1.5996,-1.5281,-1.4692,-1.4283,-1.3884,-1.3127,-1.2417,-1.2667,-1.2484,-1.1693,-1.1324,-1.1372,-1.0985,-1.0523,-1.0582,-1.1159,-1.1303,-1.1266,-1.183,-1.2585,-1.2797,-1.2743,-1.3509,-1.4349,-1.4421,-1.4474,-1.4852,-2.3842,-2.4676,-2.5117,-2.5949,-2.6977,-2.7478,-2.7835,-2.8129,-2.8156,-2.8165,-2.8264,-2.8456,-2.8565,-2.8648,-2.8841,-2.9033,-2.9128,-2.9182,-2.9336,-2.9518,-2.9652,-2.983,-3.0061,-3.0148,-3.03,-3.0439,-3.0458,-3.0446,-3.0466,-3.047,-3.051,-3.0559,-3.0627,-3.0646,-3.0646,-3.0646,-3.0646,-3.0655,-3.0692,-3.0711,-3.0752,-3.0704,-3.0709,-3.0687,-3.0654,-3.0617,-3.0579,-3.0489,-3.0437,-3.0398,-3.0352,-3.026,-2.9989,-2.9625,-2.9064,-2.8737,-2.8285,-2.8118,-2.8439,-2.8168,-2.8107,-2.8173,-2.8057,-2.7823,-2.7666,-2.7396,-2.7175,-2.708,-2.6976,-2.6505,-2.624,-2.4898,-2.3882,-2.2924,-2.1811,-2.0818,-2.0258,-1.9972,-1.9573,-1.9117,-1.8898,-1.8753,-1.8478,-1.8354,-1.8214,-1.7781,-1.721,-1.6828,-1.6403,-1.5652,-1.4982,-1.4544,-1.419,-1.3674,-1.3011,-1.3082,-1.3121,-1.2283,-1.1543,-1.1581,-1.1471,-1.1123,-1.1271,-1.1743,-1.1634,-1.1424,-1.1667,-1.2348,-1.2508,-1.2888,-1.3716,-1.4428,-1.4602,-1.4809,-1.5143,-2.4826,-2.5681,-2.6295,-2.7055,-2.7815,-2.8452,-2.8725,-2.8743,-2.8734,-2.8734,-2.8767,-2.8948,-2.903,-2.9101,-2.9218,-2.9348,-2.9401,-2.9476,-2.9655,-2.9867,-2.9979,-3.0161,-3.0323,-3.0429,-3.049,-3.0559,-3.0592,-3.0624,-3.0607,-3.0594,-3.065,-3.0676,-3.0689,-3.0708,-3.0697,-3.0684,-3.0707,-3.0719,-3.0765,-3.0788,-3.0798,-3.0789,-3.0785,-3.0785,-3.0785,-3.0775,-3.0719,-3.0655,-3.0596,-3.0539,-3.0492,-3.0437,-3.0402,-3.0376,-3.0136,-2.972,-2.9539,-2.9448,-2.9302,-2.9043,-2.8737,-2.8706,-2.8433,-2.8236,-2.8085,-2.8039,-2.7881,-2.7851,-2.7707,-2.7341,-2.6693,-2.581,-2.4622,-2.3498,-2.2264,-2.1264,-2.0782,-2.0487,-2.0395,-1.9958,-1.9463,-1.914,-1.8981,-1.8812,-1.8714,-1.8553,-1.8027,-1.774,-1.7231,-1.617,-1.5425,-1.4898,-1.4498,-1.4215,-1.3935,-1.3883,-1.3828,-1.34,-1.2573,-1.2188,-1.2043,-1.1811,-1.2017,-1.2081,-1.204,-1.1907,-1.2044,-1.239,-1.3113,-1.3729,-1.4212,-1.4492,-1.4677,-1.4953,-1.527,-2.6907,-2.773,-2.7814,-2.8361,-2.8978,-2.9153,-2.9191,-2.92,-2.9188,-2.9209,-2.9178,-2.9251,-2.9272,-2.9338,-2.9392,-2.9542,-2.9711,-2.9826,-2.9961,-3.0179,-3.0269,-3.0333,-3.0428,-3.053,-3.0569,-3.0635,-3.0668,-3.069,-3.0699,-3.069,-3.0696,-3.0715,-3.0711,-3.0706,-3.074,-3.0715,-3.0706,-3.0701,-3.0757,-3.0798,-3.0784,-3.0788,-3.0762,-3.0741,-3.0726,-3.0728,-3.0719,-3.0689,-3.0669,-3.0668,-3.0655,-3.0655,-3.0656,-3.0646,-3.0559,-3.0304,-3.0037,-2.9757,-2.9696,-2.9476,-2.9247,-2.9175,-2.9101,-2.9117,-2.8911,-2.8702,-2.8497,-2.8214,-2.8067,-2.7611,-2.6772,-2.5694,-2.4496,-2.3628,-2.2747,-2.2177,-2.1724,-2.1076,-2.0974,-2.0774,-2.0294,-1.9899,-1.9588,-1.942,-1.9258,-1.9094,-1.8853,-1.8472,-1.784,-1.6615,-1.5854,-1.5279,-1.4801,-1.4527,-1.4475,-1.4516,-1.453,-1.431,-1.3463,-1.2789,-1.2715,-1.2513,-1.2178,-1.2254,-1.2348,-1.2732,-1.3135,-1.359,-1.4138,-1.4366,-1.4584,-1.4668,-1.4765,-1.5103,-1.55,-2.8506,-2.8231,-2.8175,-2.8652,-2.942,-2.9381,-2.937,-2.936,-2.937,-2.936,-2.9389,-2.9542,-2.967,-2.9806,-2.9888,-2.9958,-3.0091,-3.0149,-3.0227,-3.0366,-3.0443,-3.0501,-3.0549,-3.0608,-3.0665,-3.0712,-3.0746,-3.0784,-3.0787,-3.0775,-3.0785,-3.0793,-3.0767,-3.0782,-3.0781,-3.0741,-3.076,-3.0794,-3.081,-3.0769,-3.0743,-3.0731,-3.072,-3.0702,-3.0699,-3.0701,-3.0708,-3.0731,-3.0721,-3.0711,-3.0702,-3.0703,-3.0685,-3.0656,-3.0619,-3.0603,-3.0355,-3.0174,-3.0095,-2.994,-2.9757,-2.9607,-2.9561,-2.9456,-2.9336,-2.9165,-2.9034,-2.8869,-2.8306,-2.7812,-2.7269,-2.6218,-2.5291,-2.4353,-2.3492,-2.266,-2.2255,-2.193,-2.1543,-2.1356,-2.1179,-2.0806,-2.0395,-1.9962,-1.9702,-1.9384,-1.8885,-1.826,-1.7558,-1.6553,-1.6003,-1.566,-1.5229,-1.479,-1.4875,-1.4914,-1.5089,-1.4804,-1.3695,-1.3224,-1.3369,-1.3198,-1.2842,-1.3156,-1.3743,-1.4088,-1.4301,-1.4322,-1.444,-1.4619,-1.4836,-1.4982,-1.5162,-1.5525,-1.589,-2.9735,-2.8892,-2.8786,-2.9129,-2.9744,-2.9663,-2.9621,-2.9621,-2.9657,-2.9638,-2.9674,-2.9848,-3.0066,-3.0247,-3.0273,-3.0273,-3.0308,-3.0414,-3.0452,-3.0492,-3.0559,-3.0624,-3.0651,-3.07,-3.0752,-3.0799,-3.078,-3.0814,-3.0819,-3.0811,-3.0788,-3.087,-3.0814,-3.0809,-3.0794,-3.075,-3.0735,-3.0795,-3.076,-3.0722,-3.071,-3.0703,-3.0709,-3.0706,-3.0702,-3.0706,-3.0699,-3.073,-3.0735,-3.0718,-3.0698,-3.0702,-3.0693,-3.0662,-3.0647,-3.064,-3.0515,-3.0469,-3.0366,-3.0251,-3.0155,-3.0011,-2.9909,-2.9834,-2.9624,-2.9448,-2.9205,-2.9074,-2.8585,-2.8491,-2.8265,-2.6862,-2.6197,-2.5337,-2.4487,-2.3437,-2.2617,-2.2599,-2.2581,-2.253,-2.2314,-2.1891,-2.1363,-2.0629,-2.0123,-1.9745,-1.9037,-1.8211,-1.7612,-1.7007,-1.6972,-1.6889,-1.6638,-1.6292,-1.6243,-1.6163,-1.604,-1.5611,-1.4539,-1.4123,-1.4556,-1.4035,-1.3388,-1.3972,-1.4857,-1.4804,-1.4665,-1.4627,-1.4658,-1.4909,-1.5174,-1.5432,-1.5689,-1.6032,-1.6219,-3.0571,-3.0518,-3.0244,-3.0151,-3.0234,-3.0244,-3.0221,-3.0178,-3.0211,-3.0188,-3.0155,-3.0247,-3.027,-3.0327,-3.0381,-3.04,-3.0394,-3.0518,-3.0559,-3.0596,-3.0645,-3.0678,-3.0708,-3.0746,-3.0797,-3.0792,-3.079,-3.0799,-3.0798,-3.0745,-3.076,-3.0797,-3.0779,-3.0742,-3.0734,-3.0717,-3.0685,-3.0717,-3.0661,-3.0646,-3.0654,-3.0654,-3.0664,-3.0654,-3.068,-3.0698,-3.0701,-3.0716,-3.072,-3.07,-3.0696,-3.0682,-3.0671,-3.0657,-3.0638,-3.0611,-3.0644,-3.0592,-3.0541,-3.0434,-3.0323,-3.027,-3.0221,-3.0178,-3.0042,-2.9415,-2.9102,-2.9072,-2.8767,-2.8329,-2.8048,-2.7447,-2.6888,-2.6394,-2.5594,-2.4719,-2.3994,-2.3733,-2.3726,-2.3737,-2.3359,-2.2779,-2.2479,-2.1785,-2.0815,-2.0359,-1.9788,-1.9,-1.8878,-1.8451,-1.8542,-1.8503,-1.8387,-1.8217,-1.821,-1.8023,-1.766,-1.7325,-1.6617,-1.6241,-1.6285,-1.543,-1.4266,-1.4718,-1.547,-1.5242,-1.518,-1.5574,-1.578,-1.5521,-1.558,-1.594,-1.6181,-1.6443,-1.6543,-3.0675,-3.0682,-3.0534,-3.0508,-3.0545,-3.0467,-3.0429,-3.0409,-3.0373,-3.035,-3.0369,-3.0436,-3.0478,-3.0478,-3.049,-3.051,-3.0528,-3.0607,-3.0647,-3.0681,-3.0724,-3.0732,-3.0739,-3.0751,-3.0792,-3.0751,-3.075,-3.0741,-3.0729,-3.07,-3.0678,-3.0694,-3.0675,-3.0694,-3.0681,-3.0686,-3.0661,-3.0599,-3.053,-3.0486,-3.0428,-3.0369,-3.0345,-3.0336,-3.0482,-3.0501,-3.0529,-3.0655,-3.0693,-3.0691,-3.0678,-3.0635,-3.0604,-3.0604,-3.0591,-3.0552,-3.0595,-3.0618,-3.0648,-3.0568,-3.0521,-3.0414,-3.0347,-3.0317,-3.0327,-2.9923,-2.9806,-2.961,-2.9138,-2.8607,-2.9189,-2.8358,-2.7502,-2.7262,-2.6747,-2.5918,-2.5241,-2.4838,-2.4355,-2.4146,-2.3824,-2.3368,-2.3187,-2.3005,-2.1972,-2.1007,-2.04,-1.9934,-1.9876,-1.9771,-1.9788,-1.9566,-1.9386,-1.9532,-1.9502,-1.9341,-1.9166,-1.8859,-1.8508,-1.7992,-1.7479,-1.6482,-1.5619,-1.5963,-1.625,-1.639,-1.6596,-1.6927,-1.6751,-1.6115,-1.6192,-1.6609,-1.6808,-1.6935,-1.7097,-3.0534,-3.0518,-3.0533,-3.0596,-3.0646,-3.0576,-3.0525,-3.0525,-3.0482,-3.0482,-3.0499,-3.0598,-3.0636,-3.0627,-3.0627,-3.0636,-3.0646,-3.0693,-3.0715,-3.0749,-3.0772,-3.0778,-3.0746,-3.0711,-3.0694,-3.0685,-3.0639,-3.0614,-3.0665,-3.0665,-3.0598,-3.053,-3.052,-3.0549,-3.0656,-3.0656,-3.0617,-3.0499,-3.0426,-3.0311,-3.0234,-3.0167,-3.0122,-3.0127,-3.0263,-3.0342,-3.0384,-3.0492,-3.0606,-3.0632,-3.0624,-3.0537,-3.0491,-3.0471,-3.0481,-3.048,-3.0499,-3.0559,-3.0606,-3.0642,-3.0619,-3.0517,-3.0472,-3.0419,-3.0367,-3.018,-2.9755,-2.9766,-2.9341,-2.9309,-2.9973,-2.9045,-2.8541,-2.8388,-2.794,-2.7163,-2.6142,-2.5518,-2.4923,-2.4446,-2.4219,-2.4134,-2.3731,-2.3555,-2.2894,-2.2039,-2.1627,-2.1215,-2.1065,-2.0935,-2.0796,-2.0504,-2.0119,-2.0361,-2.0602,-2.0491,-2.0335,-2.0162,-1.9738,-1.8997,-1.8335,-1.7418,-1.6743,-1.6706,-1.7034,-1.7604,-1.7624,-1.739,-1.695,-1.6444,-1.68,-1.725,-1.7388,-1.7539,-1.7931,-3.018,-3.0132,-3.0319,-3.0465,-3.0546,-3.0586,-3.0576,-3.0555,-3.0562,-3.0593,-3.064,-3.0671,-3.0671,-3.0671,-3.0663,-3.0666,-3.0687,-3.0752,-3.0779,-3.077,-3.0784,-3.079,-3.0704,-3.063,-3.0548,-3.0625,-3.0528,-3.046,-3.0559,-3.0519,-3.044,-3.0358,-3.0335,-3.0378,-3.0579,-3.0588,-3.0481,-3.0327,-3.0283,-3.0206,-3.0122,-3.0066,-3.0027,-3.0042,-3.0099,-3.0174,-3.0234,-3.0304,-3.0409,-3.0481,-3.052,-3.0426,-3.0285,-3.0288,-3.0294,-3.0296,-3.0355,-3.0404,-3.0418,-3.0523,-3.0548,-3.0531,-3.0459,-3.0486,-3.038,-2.9987,-2.9603,-2.9831,-2.9462,-2.9268,-2.9467,-2.9668,-2.9555,-2.9348,-2.8898,-2.8142,-2.709,-2.6136,-2.5544,-2.4892,-2.5009,-2.5031,-2.4474,-2.4013,-2.3574,-2.3076,-2.2758,-2.2468,-2.2156,-2.1975,-2.1711,-2.1412,-2.1024,-2.1359,-2.1617,-2.1631,-2.1534,-2.1358,-2.107,-2.0517,-1.9675,-1.8783,-1.8189,-1.7702,-1.7961,-1.8619,-1.8143,-1.7552,-1.7691,-1.7936,-1.7572,-1.7782,-1.7929,-1.8313,-1.8895,-2.993,-2.9911,-2.9975,-3.0031,-3.0084,-3.0268,-3.0341,-3.0345,-3.0392,-3.0486,-3.0618,-3.0629,-3.0629,-3.0629,-3.0629,-3.0634,-3.0643,-3.07,-3.0725,-3.0722,-3.0724,-3.0642,-3.0546,-3.0455,-3.0369,-3.0305,-3.0215,-3.0215,-3.0251,-3.0297,-3.0263,-3.018,-3.0135,-3.0184,-3.0241,-3.0263,-3.0216,-3.0163,-3.0095,-3.0002,-2.9975,-2.9879,-2.9822,-2.9848,-2.9911,-2.9962,-3.0032,-3.0094,-3.0184,-3.0275,-3.0297,-3.0212,-3.0075,-3.0075,-3.0117,-3.0085,-3.0125,-3.0209,-3.0221,-3.0286,-3.0335,-3.0336,-3.04,-3.0414,-3.0317,-3.0335,-3.0165,-3.0054,-2.9928,-2.9911,-3.0248,-3.0272,-3.0191,-3.0102,-2.9615,-2.8741,-2.778,-2.6893,-2.6137,-2.5464,-2.5263,-2.5206,-2.4834,-2.4573,-2.4196,-2.3831,-2.3484,-2.2982,-2.2608,-2.2612,-2.2491,-2.2254,-2.2081,-2.2408,-2.2616,-2.2454,-2.2745,-2.2878,-2.2701,-2.2373,-2.143,-2.0209,-1.9806,-1.9426,-1.9505,-1.958,-1.9353,-1.9236,-1.9558,-1.9657,-1.9159,-1.8739,-1.8781,-1.9446,-2.0332,-2.9345,-2.942,-2.9485,-2.955,-2.9647,-2.993,-3.0096,-3.02,-3.0278,-3.0414,-3.0563,-3.059,-3.0568,-3.0574,-3.057,-3.0512,-3.0504,-3.0531,-3.0559,-3.0554,-3.0521,-3.0435,-3.0359,-3.0274,-3.0189,-3.008,-3.0052,-3.0061,-3.0127,-3.0113,-3.0023,-2.9939,-2.9886,-2.978,-2.9819,-2.9889,-3.0085,-3.0037,-2.995,-2.9836,-2.9753,-2.9645,-2.9569,-2.9541,-2.957,-2.967,-2.9765,-2.9871,-2.9954,-3.0003,-2.9998,-2.9921,-2.9851,-2.9825,-2.9864,-2.9825,-2.9808,-2.9861,-2.9864,-2.9757,-2.9763,-2.9772,-3.0052,-3.0152,-3.0095,-3.0043,-3.0207,-3.0263,-3.0359,-3.0438,-3.0486,-3.0507,-3.0439,-3.0322,-3.0144,-2.9276,-2.8181,-2.7263,-2.6434,-2.5793,-2.5149,-2.5117,-2.5088,-2.5073,-2.484,-2.4499,-2.4167,-2.3605,-2.3087,-2.3119,-2.3063,-2.2805,-2.2844,-2.3178,-2.3243,-2.31,-2.3528,-2.4261,-2.3738,-2.2949,-2.273,-2.1482,-2.1318,-2.1094,-2.0867,-2.076,-2.0967,-2.1055,-2.0831,-2.0708,-2.0509,-2.0121,-1.9793,-2.0432,-2.1378,-2.8472,-2.8673,-2.8888,-2.9008,-2.9196,-2.9521,-2.9864,-3.0152,-3.0232,-3.0356,-3.0521,-3.0453,-3.0433,-3.0465,-3.0473,-3.0414,-3.0326,-3.0311,-3.0314,-3.0297,-3.0285,-3.0226,-3.016,-3.0051,-3.0009,-2.9996,-2.9981,-2.9943,-3.0056,-3.0022,-2.988,-2.966,-2.9598,-2.9475,-2.9514,-2.9658,-2.9855,-2.9774,-2.9769,-2.9626,-2.9484,-2.9394,-2.9323,-2.9263,-2.9254,-2.9388,-2.9505,-2.9615,-2.9712,-2.9789,-2.9838,-2.966,-2.9542,-2.9523,-2.9486,-2.9457,-2.9418,-2.9438,-2.9409,-2.9327,-2.9233,-2.9325,-2.9578,-2.968,-2.9728,-2.9736,-2.9891,-2.9965,-2.9987,-3.0208,-3.0361,-3.031,-3.0268,-3.0362,-3.0529,-2.9586,-2.8402,-2.7466,-2.6645,-2.5909,-2.5141,-2.4866,-2.487,-2.4889,-2.4923,-2.4739,-2.4335,-2.3946,-2.3545,-2.3603,-2.3483,-2.3135,-2.3315,-2.3848,-2.3752,-2.311,-2.3358,-2.377,-2.3007,-2.2336,-2.2369,-2.2368,-2.1673,-2.1331,-2.1687,-2.1743,-2.1485,-2.1465,-2.1523,-2.1345,-2.0651,-2.0662,-2.0075,-2.1198,-2.2083,-2.7615,-2.7903,-2.7968,-2.8147,-2.8435,-2.8695,-2.9124,-2.9579,-2.9641,-2.9758,-2.9893,-3.0023,-3.0085,-3.0078,-3.0166,-3.0178,-3.0163,-3.0151,-3.0159,-3.0127,-3.0033,-3.0029,-2.9975,-2.9884,-2.9865,-2.9823,-2.9781,-2.9754,-2.9806,-2.9814,-2.9616,-2.9307,-2.9443,-2.9332,-2.9284,-2.9436,-2.9418,-2.9437,-2.9485,-2.9386,-2.9263,-2.92,-2.9117,-2.9082,-2.906,-2.9193,-2.9357,-2.9318,-2.9398,-2.9494,-2.9408,-2.9247,-2.9226,-2.9226,-2.9205,-2.9196,-2.9184,-2.9202,-2.9172,-2.9138,-2.9038,-2.8911,-2.9107,-2.9288,-2.94,-2.9485,-2.9567,-2.9618,-2.9605,-2.9772,-2.9886,-2.9882,-2.992,-3.0075,-3.0075,-2.9313,-2.8189,-2.7378,-2.6508,-2.5211,-2.4496,-2.4465,-2.448,-2.464,-2.4654,-2.4639,-2.4436,-2.4002,-2.3689,-2.3638,-2.3361,-2.2969,-2.2834,-2.3077,-2.2919,-2.2371,-2.28,-2.3033,-2.2407,-2.2015,-2.2107,-2.2017,-2.1558,-2.1516,-2.1786,-2.1771,-2.1577,-2.1565,-2.1436,-2.0571,-1.9932,-2.024,-2.0684,-2.152,-2.1922,-2.625,-2.671,-2.6479,-2.6766,-2.7367,-2.7513,-2.8003,-2.8755,-2.9116,-2.9353,-2.9584,-2.9727,-2.9755,-2.9765,-2.9832,-2.9826,-2.9757,-2.9665,-2.9683,-2.9711,-2.9763,-2.9644,-2.9607,-2.9626,-2.958,-2.9551,-2.9541,-2.9513,-2.9598,-2.955,-2.9373,-2.9088,-2.9319,-2.9172,-2.9066,-2.9088,-2.9047,-2.9079,-2.9101,-2.9123,-2.9069,-2.9002,-2.8989,-2.8943,-2.8911,-2.9043,-2.9181,-2.9066,-2.911,-2.9185,-2.9056,-2.8998,-2.8943,-2.8888,-2.8989,-2.8957,-2.8911,-2.8897,-2.8864,-2.8733,-2.8679,-2.8624,-2.8583,-2.8676,-2.8847,-2.8962,-2.9167,-2.9317,-2.9267,-2.9258,-2.9336,-2.9409,-2.9545,-2.9693,-2.9255,-2.882,-2.8004,-2.719,-2.5922,-2.4475,-2.3994,-2.3979,-2.4072,-2.4276,-2.4276,-2.4017,-2.3792,-2.35,-2.3142,-2.2939,-2.2579,-2.2131,-2.1944,-2.1907,-2.1738,-2.1755,-2.2096,-2.2384,-2.2363,-2.2054,-2.2005,-2.2108,-2.2085,-2.1926,-2.1814,-2.1592,-2.1225,-2.1198,-2.0969,-2.0063,-1.9555,-2.0044,-2.046,-2.0958,-2.1097,-2.46,-2.5264,-2.4698,-2.5201,-2.61,-2.6104,-2.6667,-2.7757,-2.8358,-2.9005,-2.9305,-2.9476,-2.9418,-2.9341,-2.9419,-2.9439,-2.9373,-2.9311,-2.9305,-2.9218,-2.9282,-2.9245,-2.9224,-2.9135,-2.9303,-2.9282,-2.9282,-2.9303,-2.9472,-2.9433,-2.9206,-2.8896,-2.898,-2.8924,-2.8767,-2.8896,-2.8887,-2.8782,-2.8883,-2.8966,-2.891,-2.8858,-2.881,-2.8653,-2.8653,-2.8728,-2.8881,-2.8896,-2.8863,-2.8887,-2.8848,-2.8776,-2.8635,-2.85,-2.861,-2.8635,-2.8516,-2.85,-2.8404,-2.8264,-2.8175,-2.8111,-2.8084,-2.8148,-2.8306,-2.8637,-2.8893,-2.8986,-2.8951,-2.8996,-2.9089,-2.8907,-2.8918,-2.9044,-2.8838,-2.823,-2.7414,-2.6441,-2.511,-2.3912,-2.3513,-2.3516,-2.3538,-2.3731,-2.3685,-2.3361,-2.3118,-2.2932,-2.2544,-2.2255,-2.182,-2.133,-2.0958,-2.0845,-2.0973,-2.1027,-2.1301,-2.1561,-2.174,-2.1696,-2.1387,-2.1947,-2.2771,-2.1893,-2.0873,-2.0923,-2.0703,-2.0491,-2.0106,-1.9492,-1.9288,-1.9906,-2.0259,-2.0243,-2.0182,-2.3191,-2.3647,-2.3975,-2.433,-2.4551,-2.4542,-2.5294,-2.6521,-2.669,-2.7352,-2.8172,-2.8573,-2.8735,-2.8744,-2.9014,-2.9092,-2.9113,-2.9005,-2.9106,-2.9112,-2.9075,-2.9047,-2.9082,-2.9047,-2.911,-2.9147,-2.9147,-2.911,-2.9128,-2.911,-2.9034,-2.8752,-2.8854,-2.8845,-2.8637,-2.8785,-2.8785,-2.8612,-2.8669,-2.8749,-2.8728,-2.8687,-2.8637,-2.8587,-2.8612,-2.8678,-2.8776,-2.8761,-2.8801,-2.8848,-2.8728,-2.8525,-2.8255,-2.8055,-2.798,-2.798,-2.8008,-2.8017,-2.7989,-2.7878,-2.7783,-2.7783,-2.7791,-2.7791,-2.7963,-2.8353,-2.8569,-2.8617,-2.8648,-2.8703,-2.8667,-2.8415,-2.8268,-2.8363,-2.8385,-2.7604,-2.6825,-2.5577,-2.4291,-2.3705,-2.3225,-2.3102,-2.3126,-2.3065,-2.3014,-2.2848,-2.2635,-2.2329,-2.1792,-2.1419,-2.1046,-2.054,-1.9899,-1.9764,-2.0047,-2.0338,-2.0611,-2.0772,-2.095,-2.088,-2.075,-2.0899,-2.1089,-2.0367,-1.9695,-1.9739,-1.961,-1.9325,-1.8898,-1.8501,-1.8487,-1.8901,-1.8596,-1.8479,-1.8663,-2.1786,-2.2208,-2.301,-2.3305,-2.3285,-2.3268,-2.3979,-2.5065,-2.5321,-2.5902,-2.6909,-2.7779,-2.8272,-2.8201,-2.8478,-2.8739,-2.8761,-2.8676,-2.8749,-2.8843,-2.8919,-2.8883,-2.8897,-2.892,-2.8984,-2.9021,-2.9075,-2.9034,-2.8863,-2.891,-2.8887,-2.8678,-2.8821,-2.8821,-2.8612,-2.8712,-2.8737,-2.8587,-2.8587,-2.8578,-2.8587,-2.8587,-2.8587,-2.8587,-2.8603,-2.8669,-2.8678,-2.8637,-2.8687,-2.8644,-2.85,-2.8343,-2.8084,-2.7906,-2.7751,-2.776,-2.776,-2.7701,-2.7642,-2.7573,-2.7483,-2.7483,-2.7474,-2.7474,-2.7465,-2.7783,-2.7759,-2.7789,-2.7789,-2.7847,-2.7754,-2.7534,-2.759,-2.7681,-2.749,-2.6959,-2.6195,-2.5214,-2.4229,-2.3565,-2.3112,-2.2832,-2.2757,-2.2529,-2.2352,-2.1724,-2.1559,-2.1529,-2.1055,-2.0756,-2.0329,-1.9973,-1.9462,-1.9325,-1.969,-1.9841,-1.991,-2.0043,-2.0226,-2.0111,-2.0002,-1.9591,-1.9254,-1.9052,-1.8761,-1.8484,-1.8329,-1.812,-1.7828,-1.7464,-1.7508,-1.7726,-1.7326,-1.7001,-1.7126,-2.0538,-2.1004,-2.1807,-2.2122,-2.2099,-2.2035,-2.2654,-2.3686,-2.4173,-2.4787,-2.57,-2.7159,-2.7761,-2.7926,-2.7954,-2.8183,-2.8312,-2.8393,-2.8492,-2.8594,-2.8696,-2.8767,-2.8767,-2.8737,-2.8825,-2.8924,-2.8966,-2.8836,-2.8678,-2.8776,-2.8801,-2.8637,-2.8603,-2.8603,-2.8612,-2.8612,-2.8587,-2.8587,-2.8578,-2.8543,-2.8552,-2.8596,-2.8587,-2.8587,-2.8587,-2.8587,-2.8587,-2.8587,-2.8587,-2.837,-2.8183,-2.7973,-2.7785,-2.7577,-2.7496,-2.7444,-2.7413,-2.7444,-2.7444,-2.7267,-2.7181,-2.7158,-2.7117,-2.71,-2.7092,-2.7025,-2.7006,-2.6875,-2.6884,-2.7012,-2.6925,-2.6845,-2.6903,-2.7017,-2.6737,-2.6453,-2.5715,-2.5045,-2.4354,-2.3617,-2.3194,-2.2828,-2.2442,-2.218,-2.1647,-2.0983,-2.0544,-2.041,-2.0286,-2.019,-1.9954,-1.9754,-1.9435,-1.942,-1.9546,-1.9235,-1.9144,-1.9506,-1.9634,-1.9496,-1.9239,-1.8744,-1.8437,-1.8359,-1.8092,-1.7483,-1.7143,-1.6934,-1.6651,-1.6581,-1.663,-1.6789,-1.6685,-1.6343,-1.5932,-1.9756,-2.0264,-2.0447,-2.0472,-2.0505,-2.0454,-2.1185,-2.2364,-2.3064,-2.3962,-2.5038,-2.5983,-2.6822,-2.7591,-2.7829,-2.7966,-2.7923,-2.8094,-2.8313,-2.8478,-2.8524,-2.8669,-2.8712,-2.8585,-2.8761,-2.8825,-2.8821,-2.8734,-2.8628,-2.8703,-2.8703,-2.8612,-2.8653,-2.8653,-2.8587,-2.8587,-2.8587,-2.8587,-2.8518,-2.8448,-2.8335,-2.8396,-2.8587,-2.8587,-2.8587,-2.8587,-2.8587,-2.8587,-2.8422,-2.812,-2.7745,-2.7526,-2.7374,-2.7218,-2.7036,-2.6963,-2.693,-2.6889,-2.6824,-2.6733,-2.6674,-2.6674,-2.6632,-2.6556,-2.6479,-2.629,-2.6144,-2.5753,-2.5881,-2.6379,-2.6387,-2.6215,-2.624,-2.6514,-2.648,-2.6168,-2.5654,-2.5301,-2.4863,-2.416,-2.3558,-2.3034,-2.2442,-2.2128,-2.1757,-2.1119,-2.0616,-2.0374,-1.9694,-1.9609,-1.9574,-1.9415,-1.9289,-1.9504,-1.9585,-1.8564,-1.8354,-1.877,-1.8943,-1.8564,-1.8187,-1.7785,-1.7531,-1.7538,-1.691,-1.6211,-1.5964,-1.6275,-1.6055,-1.603,-1.5927,-1.5923,-1.5857,-1.5656,-1.5242]}]]